GFSGBSN_con_mucape_000.txt.gz
CAPE
13 13 1 0 1 2 2 0 0 1 0 0 12 26 30 35 31 82 206 180 157 159 112 106 95 111 58 0 0 0 0 0 0 107 96 19 13 7 0 0 0 0 0 0 0 0 0
6 18 15 0 0 0 4 0 0 0 1 19 54 81 58 45 41 47 146 195 263 235 174 152 126 177 53 0 0 1 0 0 0 68 112 30 10 6 0 0 0 0 0 0 0 0 0
18 17 20 0 0 0 0 0 0 0 20 26 47 58 65 53 35 75 171 207 268 298 241 195 188 95 56 0 0 12 4 7 7 51 71 25 29 29 11 0 1 0 0 0 0 0 0
22 17 25 2 0 0 0 0 0 0 43 58 52 58 59 32 46 94 168 318 319 302 272 259 246 75 6 0 0 11 12 14 40 66 109 61 66 13 19 0 0 0 0 0 0 0 0
0 11 14 11 0 1 2 0 4 0 28 55 58 52 43 0 0 43 102 156 269 344 353 329 126 41 0 92 0 9 6 0 12 49 122 58 55 36 34 5 15 5 0 0 0 0 0
0 2 13 27 14 0 1 0 0 0 0 0 47 63 80 12 4 56 130 158 185 295 231 180 80 41 7 4 0 17 13 2 52 27 107 90 33 43 45 23 0 1 0 0 0 0 0
26 0 7 16 30 1 2 0 0 4 1 1 0 41 24 74 71 86 62 82 0 0 92 17 3 20 26 3 49 29 29 17 76 68 50 55 6 22 13 5 0 3 0 0 0 0 0
39 20 2 4 25 3 0 0 0 1 6 1 2 2 4 53 50 79 59 77 1 0 5 0 5 17 149 36 10 57 89 75 59 0 48 63 18 1 10 2 0 3 0 0 0 0 0
31 35 2 2 5 5 0 0 0 1 3 2 2 2 4 11 0 66 0 0 12 3 7 88 77 0 113 76 101 29 66 55 2 10 45 15 0 0 8 3 14 2 0 0 0 0 0
24 39 4 1 0 5 0 0 0 5 6 3 4 0 0 1 0 28 56 0 31 55 84 42 60 52 93 127 56 37 27 9 59 0 27 0 0 0 24 4 3 0 0 0 0 0 0
21 27 19 0 2 1 1 0 0 10 10 16 8 2 1 1 0 0 0 0 0 19 2 0 17 61 76 67 12 22 0 38 20 2 29 2 2 0 3 0 0 0 0 0 0 0 0
22 25 31 0 0 2 0 1 0 1 9 4 2 4 0 0 0 0 1 0 0 2 0 0 0 0 0 4 14 37 5 9 29 21 41 9 0 18 0 0 0 0 0 0 0 0 0
32 25 32 7 0 1 1 0 0 0 0 2 0 0 4 0 0 1 0 0 0 0 0 0 0 0 0 10 7 7 0 2 6 0 0 10 4 2 0 0 0 0 0 0 0 0 0
52 31 29 2 0 2 2 0 0 0 0 0 1 1 1 0 4 1 0 0 0 0 0 0 0 0 0 0 6 8 0 17 12 0 0 0 2 12 0 0 0 0 0 0 0 0 0
39 0 27 0 0 0 0 0 0 0 0 0 0 0 0 2 20 8 4 0 0 0 0 0 0 0 0 0 0 0 0 1 0 0 0 0 0 0 0 0 0 0 0 0 0 0 0
18 0 0 0 0 0 0 0 0 0 0 0 0 0 0 9 25 12 0 0 0 0 0 0 0 0 0 0 0 0 0 4 0 0 0 0 0 0 0 0 0 0 0 0 0 0 0
0 0 0 0 0 0 0 0 0 0 0 0 0 0 18 7 38 12 1 0 0 0 0 0 0 0 0 0 0 0 0 0 3 0 0 0 0 0 0 0 0 0 0 0 0 0 0
0 0 0 0 0 0 0 0 0 0 0 0 0 0 8 15 12 6 0 0 0 0 3 0 0 0 0 0 0 13 4 0 8 0 0 0 0 0 0 0 0 0 0 0 0 0 0
0 0 0 0 0 0 0 0 0 0 0 0 0 7 11 22 8 0 0 0 0 0 0 0 0 0 26 0 0 0 0 0 0 2 0 0 0 0 0 0 0 0 0 0 0 0 0
0 0 0 0 0 0 0 0 0 0 0 0 0 0 0 0 0 2 0 0 0 0 0 0 0 0 0 0 0 0 0 5 17 6 4 6 0 0 0 0 0 0 0 0 0 0 0
0 0 0 0 0 0 0 0 0 0 0 0 0 0 0 0 0 0 0 0 0 0 0 0 1 0 0 0 0 0 10 8 14 9 0 0 0 0 0 0 0 0 0 0 0 0 0
0 0 0 0 0 0 0 0 0 0 0 0 0 0 0 0 0 0 0 0 0 0 0 0 0 0 26 0 11 5 3 1 0 0 0 0 0 0 0 0 0 0 0 0 0 0 0
0 0 0 0 0 0 0 0 0 0 0 0 0 0 0 0 0 0 0 0 0 0 0 0 0 0 0 0 0 1 1 0 0 0 0 1 0 0 1 0 0 0 0 0 0 0 0
0 0 0 0 0 0 0 0 0 0 0 0 0 0 0 0 0 0 0 0 0 0 0 0 0 0 0 0 0 0 0 0 0 0 0 0 0 0 0 0 0 0 0 0 0 0 0
0 0 0 0 0 0 0 0 0 0 0 0 0 0 0 0 0 0 0 0 0 0 0 0 0 0 0 0 0 0 0 0 0 0 0 0 0 0 0 0 0 0 0 0 0 0 0
0 0 0 0 0 0 0 0 0 0 0 0 0 0 0 0 0 0 0 0 0 0 0 0 0 0 0 0 0 0 0 0 0 0 0 0 0 0 0 0 0 0 0 0 0 0 0
0 0 0 0 0 0 0 0 0 0 0 0 0 0 0 0 0 0 0 0 0 0 0 0 0 0 0 0 0 0 0 0 0 0 0 0 0 0 0 0 0 0 0 0 0 0 0
0 0 0 0 0 0 0 0 0 0 0 0 0 0 0 0 0 0 0 0 0 0 0 0 0 0 0 0 0 0 0 0 0 0 0 0 0 0 0 0 0 0 0 0 0 0 0
0 0 0 0 0 0 0 0 0 0 0 0 0 0 0 0 0 0 0 0 0 0 0 0 0 0 0 0 0 0 0 0 0 0 0 0 0 0 0 0 0 0 0 0 0 0 0

GFSGBSN_con_mucape_003.txt.gz
CAPE
1 28 16 0 0 0 7 16 0 0 0 4 5 16 2 0 0 12 70 143 292 305 242 200 164 147 63 19 0 0 0 0 0 14 38 76 28 0 0 0 0 0 0 0 0 0 0
34 30 30 16 4 0 3 3 0 0 0 0 17 27 37 21 15 28 38 123 329 390 334 259 226 226 52 0 0 0 0 0 0 0 47 102 5 0 0 0 0 0 0 0 0 0 0
25 7 33 33 1 0 1 1 0 0 0 37 31 30 40 20 49 53 51 103 273 380 368 272 256 84 52 0 0 0 4 0 0 0 78 84 12 35 3 8 1 0 0 0 0 0 0
15 21 24 28 7 1 1 1 3 1 1 43 41 42 37 27 39 49 83 113 233 437 435 353 333 86 20 0 0 0 1 1 0 1 105 159 62 29 17 23 16 3 6 0 0 0 0
15 11 6 29 27 4 4 0 4 4 0 0 23 38 71 84 44 31 46 103 192 329 420 381 131 77 27 0 0 0 2 0 4 0 73 68 76 23 43 41 22 18 0 0 0 0 0
38 13 10 33 30 33 19 0 0 4 3 5 0 0 59 66 84 68 54 92 107 136 193 105 111 88 30 0 0 0 9 5 26 0 81 112 39 20 11 25 0 0 0 0 0 0 0
34 44 15 8 23 31 17 1 0 0 8 3 1 1 0 1 74 109 68 30 0 46 43 15 50 20 0 1 0 3 15 6 34 29 29 60 8 0 0 5 2 2 0 0 0 0 0
30 39 28 26 23 17 16 0 0 4 2 3 1 1 1 14 58 52 7 0 5 4 33 35 26 8 33 77 75 5 23 0 0 0 75 72 0 0 2 6 6 15 0 0 0 0 0
28 32 34 13 15 11 9 0 0 6 9 4 1 0 7 57 33 19 0 0 33 12 8 12 1 26 50 68 48 51 13 28 0 0 47 9 0 3 0 7 27 15 1 0 0 0 0
27 29 34 28 4 7 5 4 0 4 5 13 4 1 0 0 0 29 0 0 44 65 2 0 42 56 18 38 64 93 6 49 2 0 33 27 3 7 12 0 19 9 10 6 0 0 0
31 28 34 34 24 1 5 1 5 2 8 16 10 7 1 1 0 0 0 1 46 70 0 3 81 136 100 40 35 0 44 110 0 0 44 1 5 14 4 7 4 11 19 0 0 0 0
46 31 41 36 35 4 8 5 2 0 2 4 4 3 3 0 0 0 5 48 22 4 1 23 78 32 77 55 27 20 6 2 4 12 24 2 14 28 0 0 12 16 0 0 0 0 0
53 52 53 54 34 24 16 8 1 2 0 1 9 4 11 0 0 0 0 33 5 5 1 0 0 25 0 0 12 9 1 41 1 0 0 2 0 12 0 1 26 0 0 0 0 0 0
53 52 53 60 0 34 0 14 1 0 0 0 0 5 28 6 1 0 0 0 0 0 0 1 0 2 0 4 0 27 10 2 0 0 0 0 0 1 0 2 0 0 0 0 0 0 0
40 35 30 38 46 30 0 0 6 1 0 0 0 0 0 4 5 0 0 0 1 0 0 0 2 0 0 0 0 0 5 0 0 0 0 0 0 0 0 0 0 0 0 0 0 0 0
35 28 9 0 52 0 0 0 10 5 0 0 0 0 13 40 6 1 0 0 0 0 0 0 0 0 0 0 0 7 0 0 0 0 0 0 0 0 0 0 0 0 0 0 0 0 0
26 23 0 0 0 0 0 0 0 11 0 0 0 0 2 26 71 0 0 0 0 0 0 0 0 2 0 0 2 17 3 0 5 0 0 0 0 0 0 0 0 0 0 0 0 0 0
26 26 0 0 0 0 0 0 0 8 0 0 0 0 10 26 27 4 0 0 0 0 20 4 0 0 0 0 7 7 0 0 0 1 0 0 0 0 0 0 0 0 0 0 0 0 0
25 15 0 0 0 0 0 0 0 0 0 0 0 5 27 25 2 15 0 0 0 0 0 0 0 0 1 0 0 0 1 0 0 0 9 0 0 0 0 0 0 0 0 0 0 0 0
9 0 0 0 0 0 0 0 0 0 0 0 0 0 0 5 4 4 0 0 0 2 0 0 11 6 35 0 19 0 0 0 0 4 39 24 0 0 0 0 0 0 0 0 0 0 0
0 0 0 0 0 0 0 0 0 0 0 0 0 0 0 0 0 7 0 0 0 0 0 0 0 0 0 0 13 0 0 3 6 13 25 21 0 0 0 0 0 0 0 0 0 0 0
0 0 0 0 0 0 0 0 0 0 0 0 0 0 0 0 0 0 0 0 0 0 0 0 0 0 0 0 0 0 2 9 0 0 0 0 0 0 0 0 0 0 0 0 0 0 0
0 0 0 0 0 0 0 0 0 0 0 0 0 0 0 0 0 0 0 3 0 0 0 0 0 0 0 0 1 14 26 33 29 31 21 1 0 0 0 0 0 0 0 0 0 0 0
0 0 0 0 0 0 0 0 0 0 0 0 0 0 0 0 0 0 0 0 0 0 0 0 0 0 4 9 6 10 7 9 6 2 2 0 1 0 0 0 0 0 0 0 0 0 0
12 0 0 0 0 0 0 0 0 0 0 0 0 0 0 0 0 0 0 0 0 0 0 0 0 1 3 0 0 1 9 5 4 5 0 2 8 1 0 1 0 0 0 0 0 0 0
14 0 0 0 0 0 0 0 0 0 0 0 0 0 0 0 0 0 0 0 0 0 0 0 0 0 0 0 0 0 0 4 1 0 0 0 0 0 0 0 0 0 0 0 0 0 0
5 0 0 0 0 0 0 0 0 0 0 0 0 0 0 0 0 0 0 0 0 0 0 0 0 0 0 0 0 0 0 0 0 0 0 0 0 0 0 0 0 0 0 0 0 0 0
0 0 0 0 0 0 0 0 0 0 0 0 0 0 0 0 0 0 0 0 0 0 0 0 0 0 0 0 0 0 0 0 0 0 0 0 0 0 0 0 0 0 0 0 0 0 0
0 0 0 0 0 0 0 0 0 0 0 0 0 0 0 0 0 0 0 0 0 0 0 0 0 0 0 0 0 0 0 0 0 0 0 0 0 0 0 0 0 0 0 0 0 0 0

GFSGBSN_con_mucape_006.txt.gz
CAPE
37 34 5 32 19 7 6 11 8 0 0 0 0 14 19 7 7 2 0 18 31 82 99 151 203 231 75 19 0 0 0 0 0 0 32 40 32 18 0 0 0 0 0 0 0 0 0
27 21 37 21 26 23 9 7 7 0 0 0 0 31 13 17 19 4 6 0 9 66 89 270 384 334 41 0 0 0 3 0 1 0 7 59 14 0 7 1 0 0 0 0 0 0 0
28 10 28 5 20 19 7 2 6 0 0 0 0 2 1 13 6 24 28 14 6 73 138 268 427 142 31 0 0 0 0 1 0 2 0 36 49 19 9 17 0 9 0 0 0 0 0
27 15 11 9 9 23 10 3 0 0 5 0 0 44 33 29 16 19 16 40 32 103 127 317 398 80 0 0 0 0 0 0 0 1 0 84 156 24 33 22 20 21 10 0 0 0 0
44 32 10 6 4 25 31 24 5 0 1 10 9 4 1 53 57 65 34 45 79 79 131 274 117 17 22 0 0 0 0 0 7 0 20 82 71 36 38 25 5 20 0 0 0 0 0
38 40 40 19 14 23 24 33 9 8 1 0 5 4 5 0 40 60 67 24 62 45 59 49 81 12 0 0 0 0 0 9 30 1 3 134 58 41 26 43 0 0 0 0 0 0 0
37 35 37 36 18 24 1 23 12 3 14 7 13 6 1 0 0 73 62 0 0 0 20 1 0 1 1 0 2 0 0 23 28 0 0 89 74 7 0 0 0 15 0 0 0 0 0
34 35 39 35 20 23 3 8 10 1 11 3 16 3 1 0 21 72 0 0 0 4 0 0 28 23 27 51 77 7 4 12 0 0 0 144 0 0 9 3 4 26 21 1 0 0 0
34 36 35 33 33 18 0 4 12 1 3 8 5 3 1 0 63 49 3 0 32 35 0 0 0 37 19 38 45 10 10 18 0 0 0 20 12 4 0 0 2 1 12 0 0 0 0
43 40 38 38 36 30 17 5 5 7 1 9 3 5 0 0 0 0 0 0 45 4 0 0 6 3 35 33 30 30 5 21 0 0 0 38 4 6 0 2 5 7 1 14 12 6 0
62 39 49 46 35 41 33 21 8 4 11 1 20 3 1 0 0 0 0 0 0 1 0 0 7 7 34 1 28 61 1 12 0 0 0 11 11 9 5 5 0 0 4 33 28 7 0
74 54 60 68 65 56 39 2 9 13 10 5 3 3 3 0 0 6 1 2 0 0 0 0 44 7 13 1 60 71 71 67 22 0 0 8 13 23 9 12 0 0 20 8 20 1 0
92 61 59 66 65 61 51 39 0 22 6 6 0 0 9 0 0 13 0 0 0 2 0 0 11 17 28 0 65 18 0 0 1 0 0 0 8 5 0 6 25 14 5 4 0 0 0
83 68 46 36 53 68 45 37 0 26 10 5 2 15 0 0 28 0 0 0 0 0 0 0 33 0 0 29 0 0 1 0 6 0 0 0 0 24 14 0 0 38 0 0 0 0 0
67 59 44 40 0 17 50 15 0 7 12 7 9 0 0 0 1 0 0 0 4 0 0 0 20 0 0 8 24 36 0 0 0 0 0 0 0 0 0 0 1 6 0 0 0 0 0
66 52 35 29 0 0 18 0 0 0 2 12 0 0 0 2 5 0 0 0 18 15 0 0 0 0 0 0 3 0 0 0 3 0 0 0 0 0 0 4 5 0 0 0 0 0 0
64 43 30 27 0 0 0 0 0 0 9 0 0 0 0 10 0 0 0 0 5 0 0 0 12 0 0 0 0 0 0 0 2 0 0 0 0 0 17 0 0 0 0 0 0 0 0
63 39 26 31 0 0 0 0 0 0 0 0 0 0 5 7 0 0 0 0 0 0 32 19 0 0 0 0 0 2 0 0 0 0 0 0 0 0 0 0 0 0 0 0 0 0 0
62 37 25 26 0 0 0 0 0 0 0 0 0 18 4 3 3 0 0 0 0 0 1 22 0 0 0 0 0 0 0 0 0 0 0 0 0 0 0 0 0 0 0 0 0 0 0
60 31 26 12 0 0 0 0 0 0 0 0 4 7 8 13 2 0 0 0 0 0 0 0 0 0 0 0 0 4 0 1 0 0 13 0 0 0 0 0 0 0 0 0 0 0 0
61 34 25 0 0 0 0 0 0 0 0 0 0 1 17 0 0 1 0 0 0 0 0 0 0 0 0 17 0 0 0 0 0 0 2 13 0 2 0 0 0 0 0 0 0 0 0
51 36 14 0 0 0 0 0 0 0 0 0 0 0 3 0 0 0 0 0 0 0 0 0 0 0 24 8 0 0 0 0 0 0 28 9 7 0 0 0 0 0 0 0 0 0 0
54 36 21 0 0 0 0 0 0 0 0 0 0 0 0 0 0 0 0 0 0 0 0 0 0 2 3 7 1 6 0 0 0 0 0 4 0 0 0 0 0 0 0 0 0 0 0
60 39 10 0 0 0 0 0 0 0 0 0 0 0 0 2 2 1 4 0 0 0 0 0 0 0 0 0 22 28 19 16 19 12 7 5 20 0 0 0 0 0 0 0 0 0 0
55 42 17 0 0 0 0 0 0 0 0 0 0 0 0 0 0 2 0 0 0 0 0 0 0 0 0 0 0 0 3 6 16 10 13 18 30 0 0 0 0 0 0 0 0 0 0
38 54 19 4 0 0 0 0 0 0 0 0 0 0 0 0 0 0 0 0 0 0 0 0 0 1 2 0 0 0 0 0 0 0 15 11 6 0 1 0 0 0 4 0 0 0 0
67 47 13 2 0 0 0 0 0 0 0 0 0 0 0 0 0 0 0 0 0 0 0 0 0 0 0 0 0 0 2 1 0 1 13 12 6 0 2 0 0 0 0 0 0 0 0
27 39 20 0 0 0 0 0 0 0 0 0 0 0 0 0 0 0 0 0 0 0 0 0 0 0 0 0 0 0 0 0 0 0 1 2 0 0 0 0 0 0 0 0 0 0 0
28 35 4 0 0 0 0 0 0 2 0 0 0 0 0 0 0 0 0 0 0 0 0 0 0 0 0 0 0 0 0 0 0 0 0 0 0 0 0 0 0 0 0 0 0 0 0

GFSGBSN_con_mucape_009.txt.gz
CAPE
59 34 32 36 37 4 18 1 2 1 0 0 0 0 0 0 27 13 17 0 4 25 51 64 75 97 19 27 0 2 17 0 0 10 0 21 61 60 24 0 0 0 0 0 0 0 0
46 34 20 36 24 43 32 1 0 0 0 0 0 0 0 0 9 43 24 0 0 17 60 71 95 99 1 8 0 0 0 6 0 10 0 8 49 48 29 3 1 0 0 0 0 0 0
45 28 18 11 6 17 13 7 0 0 0 0 0 0 0 0 31 32 21 22 3 2 52 81 83 37 30 0 0 0 0 0 1 1 0 0 58 33 24 27 0 0 0 0 0 0 0
34 42 25 13 4 9 25 21 2 0 3 8 10 0 3 4 49 37 27 28 32 27 18 77 92 38 3 0 0 0 0 0 4 0 2 7 77 56 50 39 25 17 19 0 0 0 0
32 38 57 28 12 11 16 33 33 1 1 0 1 0 4 13 7 69 72 28 38 62 64 60 21 40 9 2 7 0 0 0 15 33 0 33 36 85 46 47 0 11 0 0 0 0 0
25 32 46 50 34 21 26 2 42 11 3 0 4 1 7 13 12 6 71 58 11 25 27 26 21 10 2 3 7 1 0 0 55 83 89 80 66 78 12 0 0 7 0 0 0 0 0
25 43 37 55 58 30 22 13 23 14 4 1 2 6 3 1 1 2 52 0 0 0 0 0 0 0 19 14 34 2 0 0 43 86 0 0 68 52 0 8 14 2 0 0 0 0 0
37 50 45 57 44 40 17 15 0 8 3 5 0 3 7 4 0 0 54 0 0 0 0 0 0 1 8 62 164 31 0 0 9 15 0 1 33 43 14 21 10 0 0 0 0 0 0
41 39 60 55 46 48 38 23 0 2 9 2 0 0 10 1 0 14 0 0 2 0 0 0 0 9 37 0 47 62 0 0 66 8 0 0 30 31 65 4 6 0 0 1 0 1 0
66 62 83 62 45 48 58 44 21 0 7 13 16 0 0 4 0 0 0 0 0 0 0 0 0 1 45 120 27 25 0 3 68 0 0 0 49 19 52 0 1 0 0 0 2 1 0
67 80 78 73 61 64 54 54 39 0 6 12 36 62 2 0 0 0 0 0 0 0 0 0 0 15 26 6 11 20 0 48 26 0 0 19 61 0 0 1 0 0 2 1 10 11 8
91 104 91 79 79 76 53 52 56 9 0 13 19 47 57 0 0 0 16 0 0 0 0 0 0 23 24 32 65 68 1 41 47 0 0 24 37 36 4 2 1 0 5 0 8 20 0
76 102 105 85 73 73 59 60 70 30 0 24 24 50 48 36 0 19 0 0 0 0 0 0 0 29 2 0 11 16 10 0 2 0 6 23 51 22 54 15 0 2 0 0 0 0 0
95 82 85 79 62 62 61 68 46 46 0 24 18 36 27 0 45 0 0 0 0 0 0 0 6 12 20 0 31 42 0 0 0 0 10 1 82 6 0 6 2 36 0 0 0 0 0
81 73 79 62 58 51 57 72 0 0 0 1 1 0 0 0 0 0 0 0 0 0 0 0 4 0 0 0 58 14 0 1 0 0 2 1 0 22 0 0 0 19 0 0 0 0 0
85 73 72 67 52 48 23 0 0 0 0 1 4 0 0 1 4 0 0 0 0 0 0 0 0 0 0 0 16 0 0 0 0 0 0 0 0 0 0 11 4 0 0 7 0 0 0
103 80 74 71 53 36 0 0 0 0 0 0 0 1 2 5 0 0 0 0 0 3 0 0 0 0 6 0 12 0 0 0 0 0 0 0 0 0 0 0 1 0 3 0 0 0 0
84 92 75 63 42 28 0 0 0 0 1 0 0 0 2 0 0 0 0 0 0 1 0 18 0 0 0 0 0 0 0 0 0 0 0 0 0 0 0 0 0 0 0 0 0 0 0
48 77 82 62 33 12 0 0 0 0 0 0 1 5 4 0 0 0 0 0 0 0 0 43 2 0 0 0 0 36 0 0 0 0 0 0 0 0 0 0 0 0 0 3 0 0 0
13 92 73 57 31 0 0 0 0 0 0 0 0 4 11 3 0 0 0 0 0 0 6 20 0 0 0 0 3 0 1 0 0 0 0 0 2 1 1 2 0 0 0 0 0 0 0
9 96 81 59 34 15 0 0 0 0 0 0 0 1 1 0 0 0 0 0 0 0 0 4 0 0 0 0 0 0 0 0 0 0 0 0 0 0 0 0 0 0 0 0 1 0 0
10 17 87 62 39 16 0 0 0 0 2 0 0 0 0 0 0 0 0 0 0 0 0 0 0 0 15 0 0 1 3 0 0 0 0 0 0 0 0 0 0 0 0 0 0 0 0
9 16 77 70 35 17 0 0 0 0 0 0 0 0 0 3 0 0 0 0 0 0 0 0 0 0 4 16 12 0 0 0 0 0 0 24 0 0 2 7 0 0 0 0 0 0 0
5 16 42 64 28 0 0 0 0 0 0 0 0 0 0 14 0 0 5 0 0 0 0 0 0 3 11 8 7 0 0 0 0 0 0 14 1 0 0 0 0 0 0 0 0 0 0
1 6 30 68 19 0 0 0 0 0 0 0 0 0 0 5 2 9 10 0 0 0 0 0 4 6 0 10 8 8 1 0 0 0 0 0 1 0 0 0 0 0 0 0 0 0 0
6 20 22 63 18 0 0 0 0 0 0 0 0 0 0 0 0 0 0 0 0 0 0 0 13 5 0 0 0 0 0 0 0 0 0 0 3 0 0 0 0 1 2 4 0 0 0
4 16 20 29 9 0 0 0 0 0 0 0 0 0 0 0 0 0 0 0 0 0 0 0 0 0 0 0 0 0 0 3 0 0 0 0 2 0 0 0 2 11 4 0 0 0 0
2 13 17 22 8 0 0 0 0 0 0 0 0 0 0 0 0 0 0 0 0 0 0 0 0 0 0 0 0 0 0 0 0 0 0 0 0 0 0 0 0 0 0 0 0 0 0
11 39 27 15 8 0 0 0 0 3 1 0 0 0 0 0 0 0 0 0 0 0 0 0 2 0 0 0 0 0 0 0 0 0 6 0 1 0 0 0 0 0 0 0 0 0 0

GFSGBSN_con_mucape_012.txt.gz
CAPE
43 69 34 27 42 30 36 10 0 3 7 5 0 0 0 0 0 0 0 0 0 22 33 38 53 63 56 23 5 22 11 1 0 5 12 0 66 52 87 84 34 0 0 0 0 0 0
37 68 37 27 27 25 28 42 9 0 4 4 0 0 0 0 0 0 0 0 5 0 38 56 59 75 20 0 1 0 0 0 0 1 17 5 50 38 98 141 67 2 1 0 0 0 0
27 37 44 31 23 6 11 32 17 0 1 1 18 0 0 0 0 1 0 7 24 28 32 55 65 52 33 0 0 0 0 0 0 0 3 9 28 113 41 114 77 39 15 7 0 0 0
44 47 44 43 26 16 8 19 29 7 1 2 13 0 0 0 0 8 2 5 41 74 27 52 51 46 0 0 0 0 0 0 0 0 0 3 22 58 55 80 70 64 61 57 0 1 0
41 59 44 46 55 33 21 26 46 39 21 1 12 0 0 0 1 2 1 59 59 79 71 57 32 34 0 0 0 0 0 0 0 0 0 0 33 47 150 40 67 100 46 34 11 1 0
26 41 80 67 52 52 39 28 22 9 43 3 17 0 0 0 0 2 7 39 71 29 14 40 44 4 0 0 0 0 0 0 0 175 47 104 10 125 217 41 35 16 37 15 22 0 0
44 25 76 68 69 53 42 33 25 0 36 29 27 49 0 0 3 1 0 0 0 0 0 0 0 0 0 0 0 3 4 6 21 171 89 105 39 1 53 69 0 0 0 18 7 0 0
79 51 46 77 80 72 54 39 21 1 8 19 21 55 0 0 11 8 0 0 0 2 0 0 0 0 19 2 56 35 42 1 14 1 5 50 9 0 27 46 9 26 0 3 10 0 0
81 70 54 92 109 92 67 61 33 10 1 14 18 48 52 22 4 2 0 0 7 0 0 0 0 0 0 5 31 115 81 2 0 0 8 11 0 3 19 40 24 0 0 1 5 0 3
89 89 95 73 85 81 74 89 62 33 21 1 35 56 65 58 0 0 0 0 0 0 0 0 0 0 7 65 28 19 76 2 78 2 0 1 8 2 19 24 32 4 10 1 5 31 28
115 104 102 71 68 68 67 68 61 54 46 0 0 70 69 50 33 6 0 0 0 0 0 0 0 1 0 21 68 39 131 2 32 1 0 1 2 48 18 57 2 11 22 13 25 9 0
104 111 89 102 68 63 67 67 60 60 52 35 0 49 62 56 62 10 1 0 0 0 0 0 0 0 0 35 8 135 154 20 76 64 0 0 17 3 60 1 12 23 1 0 3 0 0
110 106 109 99 90 75 61 61 60 56 51 38 1 17 38 23 2 50 6 0 0 0 0 0 0 0 0 13 28 54 59 15 0 31 0 5 2 33 78 16 0 31 12 32 0 0 1
72 94 122 124 97 68 61 68 69 70 58 37 4 0 4 22 44 78 0 0 0 0 0 0 0 0 18 29 3 81 37 0 0 0 0 1 39 64 56 5 1 0 32 13 0 0 0
2 142 98 95 90 71 70 65 63 54 0 0 4 6 8 1 50 0 0 0 0 0 0 0 0 20 0 17 0 55 0 5 0 0 0 27 39 63 12 1 1 7 0 0 0 0 0
1 20 104 87 88 74 66 62 58 49 2 0 0 1 0 0 1 0 0 0 0 0 0 0 0 0 0 0 0 12 0 3 0 0 0 31 75 6 45 3 4 4 1 0 0 0 0
0 0 115 98 77 62 60 52 56 2 0 5 0 0 0 8 0 0 0 0 0 0 0 0 0 0 0 0 0 0 1 0 0 0 0 0 6 2 5 3 8 1 0 0 0 0 0
0 6 107 106 76 62 57 46 58 0 0 1 0 0 12 13 0 0 0 0 0 0 0 0 9 0 0 0 0 0 0 0 0 0 0 0 3 28 0 2 0 0 0 0 0 0 0
11 6 15 108 74 54 47 36 0 0 0 0 0 10 13 5 0 0 0 0 0 0 0 0 14 5 0 1 0 0 1 0 0 0 0 0 0 0 7 0 0 3 1 0 0 0 0
42 0 2 78 71 50 39 21 0 0 4 0 0 0 6 1 0 0 0 0 0 0 0 9 23 30 0 0 4 0 28 0 0 0 0 0 0 0 0 0 0 0 1 1 0 0 0
74 0 3 31 79 63 41 6 3 0 5 0 0 0 15 0 0 0 0 0 0 0 0 30 17 0 0 0 4 22 13 0 0 0 0 0 0 0 0 0 0 0 0 0 0 0 0
1 0 12 20 32 80 49 4 1 0 3 0 0 0 0 0 0 0 0 0 0 0 0 0 0 0 0 0 0 4 4 0 0 0 0 0 1 1 0 0 0 0 0 0 0 0 0
65 0 10 19 22 77 49 0 1 1 0 0 0 0 0 0 0 0 0 0 0 0 0 0 0 0 0 9 0 2 1 0 0 0 0 0 0 1 1 1 0 0 0 0 0 0 0
62 0 5 10 17 46 41 3 0 2 0 0 0 0 0 0 0 0 0 0 0 0 1 1 0 0 0 35 3 0 0 0 2 0 0 0 0 0 0 0 0 0 0 0 0 0 0
64 0 4 17 19 22 35 0 0 0 0 0 0 0 0 0 0 0 1 0 0 0 0 0 0 0 9 8 2 0 0 0 0 0 0 0 0 0 0 0 0 0 0 0 0 0 0
72 0 0 33 28 12 7 2 0 0 0 0 0 0 0 0 0 0 10 0 0 0 0 0 6 3 4 25 0 0 0 0 0 0 0 0 66 6 0 0 0 0 0 0 0 0 0
67 45 0 7 21 5 3 0 0 0 0 3 1 0 0 0 0 0 0 0 0 0 0 0 0 0 12 0 0 0 0 0 0 0 0 0 0 0 0 0 0 0 12 4 0 0 0
57 0 0 0 5 21 18 0 0 0 0 0 0 0 0 0 0 0 0 0 0 0 0 0 0 0 0 0 0 0 0 0 0 0 0 0 0 0 0 0 0 0 0 4 0 0 0
56 0 0 10 11 10 5 0 0 0 0 1 0 0 0 0 0 0 0 0 0 0 0 0 0 0 0 0 0 0 0 0 0 0 1 0 0 0 0 0 0 1 0 0 0 0 0

GFSGBSN_con_mucape_015.txt.gz
CAPE
16 38 50 44 32 28 35 35 3 0 0 2 5 0 0 0 0 0 0 0 0 0 1 31 45 51 60 0 0 40 4 0 0 8 11 2 0 0 13 23 127 40 21 4 1 3 0
18 17 47 54 37 27 27 26 40 5 0 0 5 8 0 0 0 0 0 0 0 0 0 7 69 77 50 0 1 9 24 0 0 1 13 39 3 0 10 11 56 40 50 19 20 5 0
53 20 41 55 51 43 25 16 41 18 0 0 3 15 8 0 0 0 0 0 0 0 0 0 63 59 8 0 0 0 0 0 0 0 25 20 33 47 36 25 17 60 69 18 19 26 0
42 39 50 45 61 69 57 35 42 34 12 0 1 4 35 0 0 0 0 0 0 0 0 0 23 56 0 0 0 0 0 0 0 0 0 18 58 23 43 84 31 54 104 35 20 20 0
40 58 67 57 43 66 62 68 44 36 38 25 7 8 39 1 0 0 3 0 23 5 13 6 4 45 0 0 0 0 0 0 3 0 0 10 57 44 59 82 92 73 49 28 54 27 1
22 71 89 80 74 40 55 88 70 55 42 56 46 29 35 52 0 2 6 4 56 39 5 35 30 0 0 0 0 0 0 0 8 5 6 31 66 45 45 148 66 41 31 22 26 17 0
30 56 88 78 68 58 61 61 77 63 47 71 51 33 33 31 52 0 5 5 0 0 0 0 0 0 0 0 0 0 0 5 6 24 57 31 98 50 9 0 8 42 95 59 30 19 21
51 65 80 85 98 85 72 68 72 78 55 64 55 37 48 38 58 11 4 3 1 0 0 0 0 0 0 0 0 0 3 12 14 3 40 237 207 79 2 0 54 109 109 106 33 28 0
156 113 85 92 94 106 102 80 60 63 56 53 56 37 44 43 45 0 0 6 2 1 0 0 0 0 0 0 0 0 17 20 21 44 62 227 114 108 43 24 93 65 71 38 18 7 0
174 180 144 101 108 83 82 75 64 71 75 55 51 24 48 57 2 1 31 9 1 0 0 0 0 0 0 0 0 12 70 61 47 37 42 66 87 115 108 27 25 133 74 45 26 20 10
72 105 127 145 108 86 73 77 67 69 65 57 46 1 0 7 43 53 13 10 1 0 0 0 0 0 0 0 0 9 0 122 61 45 0 24 21 45 88 32 101 17 54 33 39 47 16
1 2 119 115 146 106 77 76 78 76 52 48 47 37 3 0 27 34 11 14 0 0 0 0 0 0 0 0 0 44 20 79 66 43 21 0 0 8 25 54 0 23 90 73 35 0 4
0 0 11 154 103 111 91 80 72 63 55 42 53 16 8 2 12 34 12 0 0 0 0 0 0 0 0 0 0 51 29 59 87 9 0 0 32 0 42 65 0 2 38 25 1 0 0
4 0 0 23 131 93 120 87 82 85 61 31 15 10 11 2 32 36 1 0 0 0 0 0 0 0 0 0 17 33 37 51 47 0 2 1 46 0 24 19 0 1 3 11 0 0 2
51 11 0 3 10 102 102 95 78 72 31 11 13 45 6 10 24 5 0 0 0 0 0 0 0 0 71 16 24 33 3 42 17 0 0 0 8 8 46 0 0 44 38 22 2 0 29
52 49 0 3 6 148 103 102 81 64 35 7 3 0 0 4 31 7 0 0 0 0 0 0 0 8 0 7 0 7 69 0 0 6 1 19 2 0 20 9 0 3 32 11 3 0 0
85 73 0 1 15 125 97 101 81 77 54 7 2 0 1 4 31 1 0 0 0 0 0 0 0 0 13 0 0 0 0 0 0 0 0 0 0 4 3 29 0 3 6 3 6 0 26
105 69 101 0 29 109 120 79 89 92 56 5 2 0 0 10 2 0 0 0 0 0 0 0 0 22 0 0 0 0 0 0 0 0 0 0 0 2 35 0 0 0 0 4 15 0 0
109 65 38 0 33 25 122 78 84 89 9 1 1 1 5 23 0 0 0 0 0 0 0 0 2 15 0 0 0 0 0 0 0 0 0 0 0 1 19 0 3 0 0 15 6 15 3
90 75 75 20 17 43 87 61 58 73 9 4 1 2 0 3 0 0 0 0 0 0 0 7 9 8 0 0 2 0 0 0 0 0 17 0 0 1 0 0 3 3 6 0 4 0 0
99 71 60 0 13 45 41 38 35 56 5 7 1 0 0 0 0 0 0 0 0 0 0 0 30 0 0 0 0 0 1 0 0 0 0 0 0 0 0 1 0 0 2 0 0 0 0
110 98 67 0 2 23 16 8 18 36 8 8 3 0 0 16 22 0 0 0 0 0 0 34 0 32 0 1 0 5 0 0 0 0 0 0 0 0 0 0 0 0 0 0 0 0 0
112 87 75 0 13 15 12 13 19 26 3 0 0 0 0 0 32 0 0 0 0 0 0 0 31 13 23 3 0 48 14 19 12 0 0 2 0 0 0 0 0 0 0 0 0 0 0
95 96 66 0 4 4 3 7 16 18 1 0 0 0 0 0 0 0 0 0 0 0 0 0 0 8 0 14 4 29 14 17 15 0 0 2 2 0 0 0 0 0 0 0 0 0 0
82 91 63 0 0 6 15 18 16 14 7 0 0 0 7 0 0 0 0 0 0 0 0 0 0 2 2 12 0 0 5 1 0 0 0 0 0 0 0 0 1 0 0 0 0 0 0
70 94 69 0 2 7 11 26 33 13 2 0 0 1 5 0 0 0 0 0 0 0 0 0 6 7 0 37 0 0 0 0 0 0 0 0 0 0 0 0 0 0 0 0 0 0 0
45 87 64 0 0 1 1 13 39 12 1 0 0 1 12 0 0 0 1 0 0 0 0 0 0 0 0 9 0 0 0 1 0 0 0 0 0 0 0 0 0 0 0 0 0 0 0
28 79 60 0 0 2 1 5 10 9 0 0 0 0 5 0 0 0 0 0 0 0 0 0 0 0 0 0 0 0 0 0 0 0 0 0 0 0 0 0 0 0 0 0 0 0 0
4 75 52 11 0 1 1 10 0 4 0 0 1 2 5 0 1 0 0 0 0 0 0 0 0 0 0 3 1 0 0 0 0 0 0 0 0 0 0 0 0 0 0 0 0 0 0

GFSGBSN_con_mucape_018.txt.gz
CAPE
46 62 50 33 56 58 42 61 48 18 9 1 2 4 3 0 0 0 0 0 0 0 9 33 25 19 0 0 0 11 0 0 0 0 5 3 6 0 1 11 23 36 34 13 1 0 1
20 56 62 49 67 84 37 29 41 55 25 10 1 5 7 0 0 0 0 0 0 0 0 28 50 52 1 0 0 4 18 2 0 9 37 48 24 3 1 7 4 27 35 37 20 2 2
15 15 54 57 54 78 74 42 40 37 42 19 1 6 25 1 1 0 0 0 0 0 0 22 57 21 0 0 0 0 6 0 0 0 0 24 13 49 22 9 11 10 50 68 5 5 11
20 16 33 60 65 83 91 85 51 31 29 21 9 19 27 50 12 0 0 0 0 0 42 40 54 48 0 0 0 0 0 0 0 0 0 0 15 26 27 19 47 49 29 7 0 10 6
34 20 27 61 61 85 91 97 84 52 20 29 23 48 44 67 52 38 0 0 4 0 18 41 12 0 0 0 0 0 0 0 0 0 0 0 2 35 34 41 13 41 0 0 0 3 12
84 75 52 59 86 90 86 95 102 80 59 53 60 54 58 72 72 62 0 0 5 6 13 0 0 0 0 0 0 0 0 4 2 6 9 3 16 36 42 5 0 0 21 0 0 0 11
56 101 105 115 96 92 81 89 104 104 83 66 51 51 50 76 74 60 15 0 0 0 0 0 0 0 0 0 0 0 0 0 4 0 0 0 0 0 0 0 0 0 3 47 0 24 15
1 33 123 158 106 90 96 94 101 94 82 79 61 39 54 75 89 71 38 0 0 15 0 6 0 0 0 0 0 0 0 0 0 0 0 0 0 0 0 2 3 14 17 17 24 29 19
40 48 58 162 182 121 147 101 99 89 87 76 64 42 65 73 53 49 20 0 8 4 0 0 0 0 0 0 0 0 0 0 0 0 0 0 0 0 2 1 26 5 36 4 19 35 23
70 73 15 29 100 140 108 127 84 86 75 79 66 60 67 1 0 0 0 4 7 9 0 0 0 0 0 0 0 0 0 0 0 0 0 0 0 0 25 22 27 25 3 5 136 104 20
88 97 20 0 1 78 117 109 86 83 79 72 67 67 21 4 0 0 3 5 21 12 0 0 0 0 0 0 0 0 0 0 0 0 0 0 0 2 93 66 52 5 97 5 33 7 56
115 116 66 6 1 8 78 135 103 98 84 71 67 37 15 7 12 0 3 8 10 0 0 0 0 0 0 0 0 0 0 26 11 9 28 2 32 47 21 54 0 0 62 33 79 9 23
143 135 110 55 15 1 32 146 124 108 91 72 68 13 14 14 0 0 5 4 0 0 0 0 0 0 0 0 0 0 0 0 0 0 0 10 2 0 8 73 20 46 38 16 98 72 1
161 175 140 89 12 0 14 108 138 144 103 70 53 16 15 15 4 0 1 0 0 0 0 0 0 0 0 0 0 0 0 0 22 9 0 0 0 0 0 0 44 6 0 5 0 0 1
197 187 146 106 18 31 11 21 140 121 76 67 56 16 14 9 5 0 0 0 0 0 0 0 0 0 0 0 1 9 30 7 0 3 0 0 0 7 2 34 54 0 0 0 15 0 0
184 183 166 73 30 3 7 126 159 123 70 63 64 19 9 9 6 0 0 0 0 0 0 0 0 0 0 0 0 13 7 0 0 10 0 0 0 1 21 0 0 17 0 9 36 10 7
182 174 124 110 82 0 22 43 177 156 102 71 36 21 15 1 0 0 0 0 0 0 0 0 0 0 0 0 0 0 0 0 3 0 0 0 5 68 65 0 0 0 13 4 14 9 34
123 146 76 93 63 0 41 34 177 161 123 77 35 25 10 0 0 0 0 0 0 0 0 0 0 0 0 0 0 0 0 6 9 0 8 0 8 49 25 1 0 0 2 2 23 9 6
106 101 86 80 69 53 30 42 108 163 57 48 19 12 10 4 0 0 0 0 0 0 0 0 0 0 10 0 0 0 0 20 2 0 0 0 0 0 1 0 22 0 0 14 15 0 18
70 82 99 75 87 0 6 36 12 109 48 31 13 17 15 4 0 0 0 0 0 0 0 0 0 13 0 0 0 0 0 6 2 0 75 0 4 5 25 0 0 0 0 0 0 0 6
30 80 74 86 68 61 5 29 39 82 39 38 21 13 6 4 0 0 0 0 0 0 0 0 2 0 0 0 0 0 0 0 0 0 0 0 3 8 0 5 0 0 0 1 0 0 0
24 45 69 80 60 0 32 24 4 73 40 41 9 4 7 0 0 6 0 0 0 0 0 0 0 17 16 0 0 0 0 0 0 0 0 0 0 0 0 0 0 7 0 0 0 0 0
18 23 73 103 56 3 17 10 0 18 35 18 6 2 4 0 0 0 0 0 0 0 0 0 0 0 31 1 13 21 8 10 2 0 0 0 0 0 0 0 0 0 3 8 0 0 0
23 18 72 95 65 0 17 1 0 19 40 12 8 0 0 0 0 0 0 0 0 0 0 12 7 0 26 15 38 24 21 31 0 15 0 0 0 0 0 0 0 0 0 0 0 0 0
37 16 58 71 14 0 1 9 0 46 19 2 10 0 0 0 3 0 0 0 0 0 0 0 0 0 13 21 30 4 0 0 0 0 21 0 0 0 0 0 0 0 0 0 0 0 0
31 19 45 61 6 2 0 3 1 4 54 17 12 5 1 0 3 0 0 0 0 0 0 0 0 0 0 0 9 0 0 0 0 2 9 0 0 0 0 0 0 0 0 0 0 0 0
32 26 45 71 57 0 1 4 4 12 42 16 4 5 2 0 0 0 0 0 0 0 0 0 0 0 4 0 0 0 0 4 0 0 0 0 0 0 0 0 0 0 0 0 0 0 0
32 27 40 69 58 0 0 3 6 22 27 10 0 2 6 0 0 0 0 0 0 0 0 0 0 0 27 0 1 0 0 0 0 0 0 0 0 0 0 0 0 0 0 0 0 0 0
30 25 40 63 47 0 0 2 0 25 9 9 0 0 0 0 5 0 0 0 0 0 0 0 0 0 0 0 0 0 0 0 0 0 0 0 0 0 0 0 0 0 0 0 0 0 0

GFSGBSN_con_mucape_021.txt.gz
CAPE
19 11 25 17 48 56 100 80 76 73 33 6 0 2 8 6 0 0 0 0 0 0 0 0 3 35 21 0 0 0 0 0 0 0 20 21 7 0 0 0 0 5 0 12 1 0 0
61 20 24 28 43 63 63 92 84 85 65 38 15 1 8 10 1 0 0 0 0 0 0 0 12 46 0 0 0 0 0 0 0 0 6 29 10 10 0 0 7 1 12 0 0 8 0
28 98 35 24 50 62 58 82 89 67 50 57 43 18 18 19 2 2 1 0 0 0 0 0 0 1 0 0 0 0 1 0 0 0 0 10 32 65 20 0 0 0 0 1 0 3 11
64 56 122 55 68 71 59 94 84 90 59 58 49 41 18 24 21 6 23 0 0 0 0 0 0 0 0 0 0 0 0 0 0 0 0 0 7 4 7 11 0 0 15 0 0 2 3
11 30 64 129 94 98 118 79 92 105 106 64 65 50 38 35 56 52 28 4 0 0 0 0 0 0 0 0 0 0 0 0 0 0 0 0 0 3 0 0 0 0 0 0 0 0 10
30 22 33 47 110 100 144 130 85 95 114 93 80 66 51 48 60 60 32 0 0 0 0 0 1 0 0 0 0 0 0 0 0 0 0 0 0 0 0 0 0 0 0 0 0 0 2
28 35 33 51 41 138 109 141 116 100 102 93 87 72 65 47 53 60 0 0 0 0 0 0 0 0 0 0 0 0 0 0 0 0 0 0 0 0 0 0 0 0 0 0 0 10 13
59 31 42 41 55 53 161 149 135 131 139 96 86 82 93 53 67 63 1 0 0 3 0 0 0 0 1 2 0 0 0 0 0 0 0 0 0 0 0 0 9 0 0 0 0 0 28
64 68 45 33 57 1 30 146 154 155 131 86 82 82 82 56 69 15 0 0 0 13 0 0 0 0 0 0 0 0 0 0 0 0 0 0 0 0 0 0 0 0 0 0 0 0 5
58 76 66 57 74 29 14 43 80 140 121 103 98 90 76 47 0 0 0 0 0 16 0 0 0 0 0 0 0 0 1 0 0 0 0 0 0 0 0 0 0 0 0 0 0 33 13
74 80 84 103 110 85 17 16 10 98 129 114 123 100 70 11 1 0 0 0 27 42 0 0 0 0 0 0 0 0 0 0 0 0 0 0 0 0 0 0 0 0 0 0 7 8 0
85 102 121 134 164 115 96 2 1 95 155 116 106 110 40 14 9 1 2 0 20 0 0 0 0 0 0 0 0 0 0 0 0 0 0 0 0 0 0 0 5 0 0 0 25 55 34
85 113 160 180 193 123 87 4 62 14 142 178 90 72 47 45 14 11 2 0 0 0 0 0 0 0 0 0 0 0 0 0 0 0 0 0 0 0 5 15 14 33 0 0 23 21 0
94 134 168 193 173 161 100 23 78 98 115 121 134 71 37 19 35 19 5 0 0 0 0 0 0 0 0 0 0 0 0 0 0 3 0 0 0 0 0 0 20 3 0 0 0 0 1
98 122 153 165 116 120 147 11 1 1 136 101 105 76 46 18 16 9 0 0 0 0 0 0 0 0 0 0 0 0 0 25 0 0 0 0 0 2 0 0 1 0 7 0 9 1 12
118 97 104 87 122 155 28 3 15 50 131 126 108 76 60 31 30 8 0 0 0 0 0 0 0 0 0 0 0 0 0 0 0 0 0 0 0 0 1 17 0 88 38 0 0 24 9
118 75 89 90 105 85 59 2 13 111 151 139 38 68 10 29 28 3 0 0 0 0 0 0 0 0 0 0 0 0 0 0 0 0 0 0 0 27 1 27 0 6 7 0 0 2 24
87 83 81 91 76 79 72 15 5 47 185 88 10 128 6 45 6 3 0 0 0 0 0 0 0 0 0 0 0 0 0 0 0 11 0 0 0 30 37 54 17 6 0 0 19 21 9
85 78 56 86 63 105 53 15 6 29 78 39 12 23 4 12 3 0 0 0 0 0 0 0 0 0 0 0 0 0 0 0 0 0 0 0 15 0 1 9 7 0 0 2 0 19 16
78 69 46 116 65 83 0 0 8 22 8 20 22 2 17 0 1 1 0 0 0 0 0 0 0 0 0 0 0 0 0 0 0 0 0 0 11 9 0 0 1 0 0 0 15 14 3
86 52 46 48 69 80 0 0 2 12 44 36 1 4 2 1 0 0 0 0 0 0 0 0 0 0 0 0 0 0 0 0 0 0 0 0 1 1 0 0 0 0 0 8 18 18 5
87 42 44 30 65 76 36 0 6 1 46 51 7 11 0 0 0 0 0 0 0 0 0 0 0 0 0 0 0 0 0 0 0 0 0 0 0 1 0 0 0 0 0 0 1 0 0
83 32 41 30 72 62 65 0 0 0 0 14 3 2 6 5 0 0 0 0 0 0 0 0 0 0 0 1 5 3 4 0 0 0 0 0 0 0 0 1 3 0 2 0 0 3 7
91 38 32 26 69 73 64 0 1 0 0 8 10 32 1 10 0 0 0 34 0 0 0 0 0 0 0 22 24 25 16 0 0 0 0 0 0 0 0 0 3 0 0 0 3 0 0
87 48 25 29 53 58 22 0 0 0 2 18 18 20 10 7 0 0 0 0 0 0 0 0 6 3 7 4 16 16 0 9 5 0 0 0 0 0 0 0 0 0 0 0 0 0 0
90 64 26 24 51 70 28 0 0 0 0 5 39 21 12 0 0 0 0 0 0 0 0 0 5 20 2 17 22 0 0 0 0 0 0 0 0 0 0 0 0 0 0 0 0 0 0
98 78 29 21 49 67 31 0 1 2 2 16 52 12 17 0 0 0 0 0 0 0 0 0 0 0 0 0 0 0 0 0 0 0 0 0 0 0 0 0 0 0 0 0 0 0 0
78 74 26 23 40 59 24 0 0 6 2 6 22 16 3 0 0 0 0 0 0 0 0 0 0 0 0 0 0 0 1 0 0 0 0 0 0 0 0 2 1 0 0 0 0 0 0
79 43 31 17 27 54 23 0 0 0 2 9 16 16 8 0 0 0 0 0 0 0 0 0 0 0 0 2 0 0 14 0 0 0 0 0 0 0 0 0 0 0 0 0 0 0 0

GFSGBSN_con_mucape_024.txt.gz
CAPE
19 62 126 81 15 45 75 148 181 109 85 57 21 1 6 8 3 0 0 0 0 0 0 0 0 24 0 0 0 0 0 0 0 30 32 19 0 0 0 0 0 0 0 0 1 9 1
5 29 47 44 108 45 28 78 125 154 126 83 51 20 9 7 10 0 0 0 0 0 0 0 0 7 0 0 0 0 0 0 0 4 36 18 0 0 0 0 0 0 0 0 0 0 2
1 0 1 0 15 89 85 102 113 151 106 104 82 60 33 22 16 2 0 0 0 0 0 0 0 0 0 0 0 0 0 0 0 4 1 11 15 26 0 0 0 0 0 0 0 0 0
35 31 19 0 1 11 100 116 138 132 118 134 106 98 60 44 17 15 27 8 0 0 0 0 0 0 0 0 0 0 0 0 0 0 0 0 3 0 0 8 0 0 0 0 0 0 0
29 32 36 32 9 4 64 101 126 140 135 133 118 102 75 54 60 65 56 13 0 0 0 0 0 0 0 0 0 0 0 0 0 0 0 9 11 0 0 0 0 0 0 0 0 0 0
31 30 24 23 28 24 48 25 171 154 139 151 115 102 98 63 66 70 58 13 0 0 0 0 0 0 0 0 0 0 0 0 0 0 0 0 0 0 0 0 0 0 0 0 0 0 0
52 47 41 57 43 37 10 34 50 175 146 95 102 85 83 81 74 73 9 0 0 0 0 0 0 0 0 0 0 0 0 0 0 0 0 0 0 0 0 0 0 0 0 0 0 0 0
72 84 84 63 69 49 42 39 8 30 167 111 105 120 94 99 95 67 0 0 0 0 0 0 0 0 0 2 0 0 0 0 0 0 0 0 0 0 0 0 0 0 0 0 0 0 14
37 78 79 69 86 52 59 62 26 9 168 147 123 111 90 121 88 27 0 0 0 0 0 0 0 0 0 0 0 0 0 0 0 0 0 0 0 0 0 0 0 0 0 0 0 0 0
79 41 91 78 92 95 98 70 41 5 85 87 104 124 111 101 11 0 0 0 0 0 0 0 0 0 0 0 0 0 0 0 0 0 0 0 0 0 0 0 0 0 0 0 0 0 0
101 81 93 74 98 109 108 108 54 24 70 62 121 155 135 44 23 0 0 0 1 0 0 0 0 0 0 0 0 0 0 0 0 0 0 0 0 0 0 0 0 0 0 0 0 0 0
89 76 108 80 151 148 151 154 106 48 1 52 111 164 49 28 5 5 2 1 0 0 0 0 0 0 0 0 0 0 0 0 0 0 0 0 0 0 0 0 0 0 0 0 0 0 0
113 89 106 120 169 155 111 148 119 93 59 29 22 187 53 7 21 21 17 6 0 0 0 0 0 0 0 0 0 0 0 0 0 0 0 0 0 0 0 0 0 0 0 0 0 0 0
131 81 111 82 89 143 86 141 146 90 63 14 11 125 48 27 9 3 6 2 0 0 0 0 0 0 0 0 0 0 0 0 15 0 0 0 0 0 0 0 0 0 0 0 0 0 0
120 108 89 66 86 126 59 189 109 72 6 5 18 97 81 19 11 17 4 0 0 0 0 0 0 0 0 0 0 0 0 0 0 0 0 0 0 0 0 0 3 0 0 0 0 0 0
134 117 86 58 57 96 0 156 82 65 18 2 29 83 29 3 14 2 1 0 0 0 0 0 0 0 0 0 0 0 0 0 0 0 0 0 0 0 0 1 1 29 6 0 0 0 0
123 116 79 41 55 67 0 38 60 4 27 82 0 25 5 30 23 3 2 0 0 0 0 0 0 0 0 0 0 0 0 0 0 0 0 0 0 0 0 0 0 0 0 22 2 0 0
102 113 77 37 80 59 72 14 1 1 19 4 8 0 1 24 6 0 0 0 0 0 0 0 0 0 0 0 0 0 0 0 0 0 0 0 0 0 0 0 0 0 0 0 0 0 0
127 104 74 39 124 96 68 76 0 18 23 36 3 5 2 8 0 0 0 1 0 0 0 0 0 0 0 0 0 0 0 0 0 0 0 0 0 1 38 3 13 0 2 1 44 41 3
126 94 66 39 82 131 76 79 0 13 8 2 20 3 5 39 1 0 0 0 0 0 0 0 0 0 0 0 0 0 0 0 0 0 0 0 8 17 0 8 0 0 0 0 0 0 4
109 99 60 42 46 111 111 66 0 2 19 9 6 0 0 9 0 0 0 0 0 0 0 0 0 0 0 0 0 0 0 0 0 0 0 0 10 14 7 2 0 0 0 0 0 0 16
103 110 65 47 48 59 76 65 0 5 2 0 2 0 0 0 0 0 0 0 0 0 0 0 0 0 0 0 0 0 0 0 0 0 0 0 0 0 12 0 0 0 0 0 0 0 0
96 77 75 47 33 35 95 74 0 0 0 25 0 1 0 0 0 0 0 0 0 0 0 0 0 8 0 0 0 0 0 0 0 0 0 0 0 1 0 0 0 1 0 0 0 0 0
94 78 82 57 23 20 62 69 0 0 0 0 0 4 10 3 1 0 0 0 0 0 0 0 0 0 0 4 11 34 12 0 0 0 0 0 0 0 4 2 0 0 0 0 0 0 0
90 78 67 66 18 17 48 70 0 0 0 0 1 4 0 7 2 4 0 0 0 0 0 0 0 2 4 44 0 0 0 0 0 0 0 0 0 0 0 1 0 3 0 0 0 0 0
99 83 63 59 16 16 41 13 0 0 0 0 0 10 13 2 0 8 0 0 0 0 0 0 0 5 0 40 46 0 0 0 0 0 0 0 0 0 0 0 0 0 0 0 0 0 0
93 88 54 30 22 24 36 52 0 0 0 0 0 27 22 24 2 0 0 0 0 0 0 0 0 17 1 0 2 0 0 0 0 0 0 3 0 0 0 0 0 0 0 0 0 0 0
91 77 61 17 32 24 22 45 0 0 0 0 0 11 15 7 2 0 0 0 0 0 0 0 0 0 1 0 0 10 1 0 0 0 0 1 0 0 0 0 0 0 0 0 0 0 0
86 68 56 14 27 16 19 9 0 0 0 0 28 17 27 4 1 0 0 0 10 0 0 0 0 0 0 0 0 0 15 1 0 0 0 0 0 0 0 0 0 0 0 0 0 0 0

GFSGBSN_con_mucape_027.txt.gz
CAPE
10 1 11 22 30 36 144 123 150 114 56 118 96 50 20 2 11 10 7 0 0 0 0 0 0 0 0 0 0 0 0 0 3 40 37 27 0 0 0 0 0 0 0 0 0 0 0
33 29 9 0 7 4 37 32 149 136 100 140 205 87 53 29 7 17 8 2 0 0 0 0 0 0 0 0 0 0 0 0 0 17 42 44 5 0 0 0 0 0 0 0 0 0 0
32 41 28 23 18 0 0 7 25 113 109 87 141 109 82 60 14 23 18 16 7 0 0 0 0 0 0 0 0 0 0 0 0 3 2 52 59 0 0 0 0 0 0 0 0 0 0
28 39 41 47 53 28 10 29 4 21 95 96 109 98 106 70 40 33 26 34 26 7 0 0 0 0 0 0 0 0 0 0 0 0 0 0 45 0 0 0 0 0 0 0 0 0 0
28 32 45 49 46 48 42 28 44 35 43 121 133 90 103 81 61 74 58 56 28 11 28 0 0 0 0 0 0 0 0 0 0 0 0 6 4 0 0 0 0 0 0 0 0 0 0
22 18 26 29 47 53 57 55 37 0 42 60 124 117 102 95 86 80 66 48 7 6 16 51 0 0 0 0 0 0 0 0 0 0 0 0 0 0 0 0 0 0 0 0 0 0 0
45 29 33 40 64 50 47 64 69 35 7 45 94 98 110 102 91 110 46 0 0 0 0 0 0 0 0 0 0 0 0 0 0 0 0 0 0 0 0 0 0 0 0 0 0 0 0
68 87 83 45 50 76 68 53 63 60 26 28 62 102 113 121 136 109 4 0 0 0 0 0 0 0 0 0 0 0 0 0 0 0 0 0 0 0 0 0 0 0 0 0 0 0 0
61 85 75 85 104 92 69 81 81 81 65 24 28 105 86 136 129 35 7 2 0 0 0 0 0 0 0 0 0 0 0 0 0 0 0 0 0 0 0 0 0 0 0 0 0 0 0
85 77 100 80 109 101 95 89 110 99 91 99 5 123 85 132 74 34 17 2 0 0 0 0 0 0 0 0 0 0 0 0 0 0 0 0 0 0 0 0 0 0 0 0 0 0 0
89 106 97 101 99 124 116 159 117 126 101 77 34 10 76 91 24 17 0 4 4 0 0 0 0 0 0 0 0 0 0 0 0 0 0 0 0 0 0 0 0 0 0 0 0 0 0
101 105 131 103 148 108 146 214 170 93 76 80 6 18 88 58 46 14 9 0 0 0 0 0 0 0 0 0 0 0 0 0 0 0 0 0 0 0 0 0 0 0 0 0 0 0 0
106 108 152 145 162 179 173 183 96 53 118 50 2 70 76 15 2 3 6 0 0 0 0 0 0 0 0 0 0 0 0 0 0 0 0 0 0 0 0 0 0 0 0 0 0 0 0
112 112 152 148 117 101 93 46 15 212 117 59 62 10 0 1 9 0 6 0 0 0 0 0 0 0 0 0 0 0 0 0 0 0 0 0 0 0 0 0 0 0 0 0 0 0 0
122 132 138 117 96 65 70 81 101 141 83 53 59 0 52 46 11 2 0 0 0 0 0 0 0 0 0 0 0 0 0 0 0 0 0 0 0 0 0 0 0 0 0 0 0 0 0
108 132 141 116 74 61 52 105 139 101 91 59 48 35 0 1 0 0 1 0 0 0 0 0 0 0 0 0 0 0 0 0 0 0 0 0 0 0 0 0 0 0 0 0 0 0 0
99 127 134 105 53 53 61 117 102 0 59 69 67 0 31 0 14 0 0 0 0 0 0 0 0 0 0 0 0 0 0 0 0 0 0 0 0 0 0 0 0 0 0 0 0 0 0
98 113 129 90 38 46 51 93 113 73 32 52 19 0 2 0 0 1 0 0 0 0 0 0 0 0 0 0 0 0 0 0 0 0 0 0 0 0 0 0 0 0 0 0 0 0 0
103 115 110 96 42 78 63 82 87 60 1 37 1 0 0 0 0 0 0 0 0 0 0 0 0 0 0 0 0 0 0 0 0 0 0 0 0 0 0 0 0 0 0 0 0 0 0
105 101 118 92 55 61 78 63 62 0 8 0 0 0 0 0 0 0 0 0 0 0 0 0 0 0 0 0 0 0 0 0 0 0 0 0 0 0 0 0 0 0 0 0 0 0 0
98 97 105 83 62 35 59 83 58 0 1 7 0 0 0 0 0 0 0 0 0 0 0 0 0 0 0 0 0 0 0 0 0 0 0 0 0 0 0 0 0 0 0 0 0 0 1
97 93 100 85 68 31 36 70 53 0 13 3 0 0 0 0 0 1 0 0 0 0 0 0 0 0 0 0 0 0 0 0 0 0 0 0 0 0 0 0 0 0 0 0 0 0 0
88 105 106 73 67 26 24 72 68 0 9 4 0 0 0 0 0 0 0 0 0 0 0 0 0 0 0 0 0 0 0 0 0 0 0 0 0 0 0 0 0 4 0 0 0 0 0
88 97 105 68 61 15 14 40 67 0 1 0 0 0 7 0 5 0 0 0 0 0 0 0 0 0 1 9 2 0 0 0 0 0 0 0 0 0 0 0 0 0 0 0 0 0 0
88 99 92 71 26 11 18 18 0 0 3 0 0 0 0 1 2 0 2 0 0 0 0 0 0 0 4 6 0 0 0 0 0 0 0 0 0 0 0 0 1 0 0 0 0 0 4
93 96 90 77 17 12 16 13 0 0 0 0 0 28 14 1 0 17 1 0 0 0 0 0 0 0 0 9 0 0 0 0 0 0 0 0 0 0 0 0 0 0 0 0 0 0 3
88 89 81 66 20 12 11 11 0 0 2 0 0 3 18 0 10 2 0 0 0 0 0 0 0 0 0 0 0 0 0 0 0 0 0 0 0 0 0 0 0 0 0 0 0 0 0
94 95 75 66 46 12 14 8 0 0 3 0 0 0 21 9 8 6 1 0 0 0 0 0 0 0 0 0 0 0 0 0 0 0 0 0 0 0 0 0 0 0 0 0 0 0 0
88 103 77 59 54 13 13 10 0 1 3 0 0 0 26 2 0 12 1 0 0 0 0 0 0 0 12 0 0 0 2 0 0 0 0 0 0 0 0 0 0 0 0 0 0 0 0

GFSGBSN_con_mucape_030.txt.gz
CAPE
34 24 28 28 26 0 0 0 32 10 132 110 117 103 90 43 21 12 7 8 3 0 0 0 0 0 0 0 0 0 0 0 1 38 19 9 0 0 0 0 0 0 0 0 0 0 0
17 38 35 29 18 18 16 0 0 2 10 89 91 128 123 101 45 21 14 10 2 1 0 0 0 0 0 0 0 0 0 0 0 36 45 41 0 0 0 0 0 0 0 0 0 0 0
24 19 23 21 34 38 20 25 31 0 0 5 109 119 130 116 72 27 31 20 19 4 0 0 0 0 0 0 0 0 0 0 0 24 54 45 37 0 0 0 0 0 0 0 0 0 0
29 20 28 26 29 45 58 53 45 54 2 0 7 116 128 121 101 55 44 31 42 22 0 2 0 0 0 0 0 0 0 0 0 0 0 0 40 0 0 0 0 0 0 0 0 0 0
39 25 36 27 47 26 59 79 65 55 49 3 21 1 114 135 121 81 96 71 61 39 26 24 0 0 0 0 0 0 0 0 0 0 0 0 0 0 0 0 0 0 0 0 0 0 0
34 33 27 34 56 48 57 84 77 72 46 57 0 8 20 107 137 102 143 74 49 8 17 42 2 0 0 0 0 0 0 0 0 0 0 0 0 0 0 0 0 0 0 0 0 0 0
42 34 62 48 48 60 66 69 78 76 55 54 53 25 0 99 118 124 32 13 0 0 0 0 0 0 0 0 0 0 0 0 0 0 0 0 0 0 0 0 0 0 0 0 0 0 0
69 88 100 90 93 57 63 83 100 96 84 67 61 69 59 23 131 142 11 0 1 0 0 0 0 0 0 0 0 0 0 0 0 0 0 0 0 0 0 0 0 0 0 0 0 0 0
78 70 79 84 91 97 84 97 106 111 101 104 67 38 57 0 117 18 22 0 1 0 0 0 0 0 0 0 0 0 0 0 0 0 0 0 0 0 0 0 0 0 0 0 0 0 0
51 51 90 92 104 108 112 142 140 136 128 119 62 12 37 2 154 27 6 3 8 12 0 0 0 0 0 0 0 0 0 0 0 0 0 0 0 0 0 0 0 0 0 0 0 0 0
40 69 93 127 121 132 120 186 169 146 129 87 65 30 16 3 47 21 0 0 20 5 0 0 0 0 0 0 0 0 0 0 0 0 0 0 0 0 0 0 0 0 0 0 0 0 0
72 83 93 145 150 166 189 146 134 117 82 146 132 44 38 10 26 4 2 15 3 0 0 0 0 0 0 0 0 0 0 0 0 0 0 0 0 0 0 0 0 0 0 0 0 0 0
78 91 101 147 139 135 134 106 60 129 102 188 149 74 87 11 6 0 11 0 0 0 0 0 0 0 0 0 0 0 0 0 0 0 0 0 0 0 0 0 0 0 0 0 0 0 0
75 97 105 136 126 116 59 86 130 114 208 173 107 122 89 73 23 5 3 0 0 0 0 0 0 0 0 0 0 0 0 0 0 0 0 0 0 0 0 0 0 0 0 0 0 0 0
80 108 109 124 131 91 41 56 165 215 74 102 103 66 83 48 0 0 13 0 0 0 0 0 0 0 0 0 0 0 0 0 0 0 0 0 0 0 0 0 0 4 0 0 0 0 0
101 106 108 123 116 89 37 47 101 120 71 72 45 20 26 67 0 0 0 0 0 0 0 0 0 0 0 0 0 0 0 0 0 0 0 0 0 0 0 0 0 5 0 0 0 0 0
82 106 116 136 117 74 34 53 54 106 9 50 48 1 9 62 0 0 0 0 0 0 0 0 0 0 0 0 0 0 0 0 0 0 0 0 0 0 0 0 0 0 0 0 0 0 0
87 108 126 126 108 75 32 56 55 82 0 4 25 0 70 69 0 1 0 0 0 0 0 0 0 0 0 0 0 0 0 0 0 0 0 0 0 0 0 0 0 0 0 0 0 3 0
82 110 129 128 99 77 44 45 56 76 0 10 46 26 57 0 0 0 0 0 0 0 0 0 0 0 0 0 0 0 0 0 0 0 0 0 0 0 0 0 0 0 0 0 0 0 0
91 108 123 124 104 77 53 36 63 66 0 16 7 0 0 0 0 0 0 0 0 0 1 0 0 0 0 0 0 0 0 0 0 0 0 0 0 0 0 0 0 0 0 0 0 0 3
100 114 122 115 109 67 30 48 61 43 5 7 0 0 0 0 0 0 0 0 0 0 0 0 0 0 0 0 0 0 0 0 0 0 0 0 0 0 0 0 0 0 0 0 0 0 5
84 109 130 124 81 70 22 47 64 0 18 4 0 0 0 0 0 0 0 0 0 1 0 0 0 0 0 0 0 0 0 0 0 0 0 0 0 0 0 0 0 0 0 0 0 0 0
78 108 114 112 80 37 19 34 51 0 1 0 1 0 0 0 0 0 0 0 0 0 0 0 0 0 0 0 0 0 0 0 0 0 0 0 0 0 0 0 0 0 0 0 0 0 0
80 101 115 108 68 24 13 18 37 0 0 0 0 0 0 0 0 0 0 0 0 0 0 0 0 0 0 0 8 0 0 0 0 0 0 0 0 0 0 0 1 0 0 0 0 0 0
83 102 104 88 67 23 11 11 0 0 0 0 0 1 3 0 0 0 0 0 0 0 0 0 0 0 0 0 0 0 0 0 0 0 0 0 0 0 0 1 0 0 0 0 0 0 0
97 100 93 76 61 45 10 11 0 0 1 1 2 0 22 0 0 1 0 0 0 0 0 0 0 0 0 0 0 0 0 0 0 0 0 0 0 0 0 0 0 0 0 0 0 0 0
84 77 82 72 68 53 19 12 0 2 10 0 3 9 11 6 1 9 0 1 5 2 0 0 0 0 0 0 0 0 0 0 0 0 0 0 0 0 0 0 0 0 0 0 0 0 0
66 82 81 71 59 53 23 9 0 1 4 2 11 19 10 0 2 0 7 6 0 0 0 0 0 0 0 0 0 0 0 0 0 0 0 0 0 0 0 0 0 0 0 0 0 0 0
67 73 75 63 53 42 13 11 14 1 8 1 0 0 19 0 2 3 2 9 11 0 0 0 0 0 0 0 0 6 0 0 0 0 0 0 0 0 0 0 0 1 0 0 0 0 0

GFSGBSN_con_mucape_033.txt.gz
CAPE
28 25 24 24 18 15 23 26 24 16 7 27 12 88 104 121 99 25 6 0 1 1 0 0 19 2 0 0 0 0 0 0 0 60 13 1 0 0 0 0 0 0 0 0 0 0 0
27 31 25 31 32 37 21 17 28 35 32 0 2 4 38 112 146 89 20 0 1 1 0 0 3 2 0 0 0 0 0 0 0 15 27 25 3 2 0 0 0 0 0 0 0 0 0
21 28 24 24 43 24 31 26 26 24 30 46 21 0 4 76 132 105 48 12 0 0 0 0 11 0 0 0 0 0 0 0 4 34 39 31 12 2 0 0 0 0 0 0 0 0 0
17 17 20 22 22 35 46 29 47 72 39 34 35 1 1 2 76 139 90 43 18 33 22 11 22 0 0 0 0 0 0 0 2 3 0 20 34 0 0 0 0 0 0 0 0 0 0
22 29 33 25 42 45 43 53 85 74 64 66 56 42 1 0 6 123 133 130 80 64 52 37 0 0 0 0 0 0 0 0 0 0 0 3 14 0 0 0 0 0 0 0 0 0 0
53 58 87 89 77 42 46 56 76 77 75 83 60 63 32 31 0 96 123 96 63 23 41 41 8 0 0 0 0 0 0 0 0 0 0 0 0 0 0 0 0 0 0 0 0 0 0
98 84 62 75 90 87 80 44 56 73 86 101 80 65 58 6 20 67 44 0 0 0 0 0 0 0 0 0 0 0 0 0 0 0 0 0 0 0 0 0 0 0 0 0 0 0 0
78 36 64 52 82 90 93 102 106 107 110 109 116 83 63 39 78 23 97 5 0 0 0 0 0 0 0 0 0 0 0 0 0 0 0 0 0 0 0 0 0 0 0 0 0 0 0
52 67 71 81 78 79 93 110 101 128 147 122 102 83 79 32 25 0 37 15 0 0 0 0 0 0 0 0 0 0 0 0 0 0 0 0 0 0 0 0 0 0 0 0 0 0 0
63 85 86 81 86 97 115 122 143 168 171 109 114 60 27 41 30 71 0 6 5 2 0 0 0 0 0 0 0 0 0 0 0 0 0 0 0 0 0 0 0 0 0 0 0 0 0
63 73 76 85 86 104 112 104 118 91 81 104 74 55 34 60 32 33 0 3 0 2 0 0 0 11 0 0 0 0 0 0 0 0 0 0 0 0 0 0 0 0 0 0 0 0 0
73 74 82 87 93 104 96 86 50 78 72 130 227 186 119 55 0 9 3 0 0 0 0 0 0 0 0 0 0 0 0 0 0 0 0 0 0 0 0 0 0 0 0 0 0 0 0
53 71 95 83 82 99 83 65 36 91 169 81 144 165 94 29 5 0 0 0 1 0 0 0 0 0 0 0 0 0 0 0 0 0 0 0 0 0 0 0 0 0 0 0 0 0 0
66 86 79 89 96 101 71 47 29 92 132 67 107 123 102 72 33 28 0 0 0 0 0 0 0 0 0 0 0 0 0 0 0 0 0 0 0 0 0 0 0 0 0 0 0 0 0
71 68 81 93 108 111 73 58 29 94 96 1 8 18 54 77 58 8 0 18 0 0 0 0 0 0 0 0 0 0 0 0 0 0 0 0 0 0 0 0 0 0 0 0 0 0 0
76 77 86 105 112 105 82 71 26 104 112 76 30 42 48 89 59 0 2 0 0 0 0 0 0 0 0 0 0 0 0 0 0 0 0 0 0 0 0 0 0 0 0 0 0 0 0
56 75 93 111 118 113 86 72 34 83 91 63 29 42 25 59 46 0 0 0 0 0 0 0 0 0 0 0 0 0 0 0 0 0 0 0 0 0 0 0 0 0 0 0 0 0 0
86 83 91 111 128 110 84 53 48 76 89 0 18 2 9 67 1 0 0 0 0 0 0 0 0 0 0 0 0 0 0 0 0 0 0 0 0 0 0 0 0 0 0 0 0 0 0
79 86 101 116 127 114 67 30 32 69 81 3 43 27 12 0 0 0 0 0 0 0 0 0 0 0 0 0 0 0 0 0 0 0 0 0 0 0 0 0 0 0 0 0 0 0 2
80 80 103 111 117 105 57 18 42 58 0 21 3 3 0 0 0 0 0 0 0 0 0 0 0 0 0 0 0 0 0 0 0 0 0 0 0 0 0 0 0 0 0 0 0 15 7
73 69 96 109 101 77 37 16 28 0 2 14 7 0 0 1 0 0 0 0 0 0 0 0 0 0 0 0 0 0 0 0 0 0 0 0 0 0 0 0 0 0 0 0 0 0 0
72 75 94 90 86 75 29 14 28 0 0 2 9 9 0 0 0 0 0 0 0 0 0 0 0 0 0 0 0 0 0 0 0 0 0 0 0 0 0 0 0 0 0 0 0 0 0
67 76 80 81 53 66 31 12 21 0 0 0 0 1 0 0 0 0 0 0 0 0 0 0 0 0 0 0 0 0 0 0 0 0 0 0 0 0 0 0 0 4 0 0 0 0 0
58 78 80 69 46 51 36 12 5 0 0 0 0 0 0 0 0 0 0 0 0 0 0 0 0 0 0 0 0 0 0 0 0 0 0 0 0 0 0 3 4 0 2 0 0 0 0
52 65 50 73 46 44 33 11 0 0 0 0 0 5 0 0 0 0 0 0 0 0 0 0 0 0 0 0 0 0 0 0 0 0 0 0 0 0 3 0 1 0 0 0 0 0 0
25 49 68 66 53 41 29 9 0 0 0 10 0 0 0 0 0 0 0 0 0 0 0 0 0 0 0 0 0 0 0 0 0 0 0 0 0 0 0 0 0 0 0 0 0 0 0
48 49 53 62 64 49 32 7 2 0 0 11 0 2 4 2 0 3 0 0 0 0 0 0 0 0 0 0 0 0 0 0 0 0 0 0 0 0 0 0 0 0 0 0 0 0 0
51 57 51 61 46 45 36 4 6 1 7 1 2 7 8 2 1 2 6 1 3 1 0 0 0 0 0 0 0 0 0 0 0 0 0 0 0 0 0 0 0 0 0 0 0 0 0
33 53 55 42 38 44 18 3 7 7 6 0 3 17 15 4 0 1 6 8 11 9 3 0 0 0 0 0 0 11 0 0 0 0 0 0 0 0 0 0 0 0 0 0 0 0 0

GFSGBSN_con_mucape_036.txt.gz
CAPE
21 23 24 24 20 18 30 15 17 21 28 22 20 2 4 14 91 117 54 20 1 0 0 0 2 2 3 0 3 0 0 0 0 59 40 0 0 0 0 0 0 0 0 0 0 0 0
19 19 16 23 26 26 27 26 34 34 31 43 32 12 3 9 15 98 100 39 4 0 0 0 0 2 0 0 0 0 0 0 4 31 50 25 5 1 1 0 0 0 0 0 0 0 0
15 22 20 19 23 38 43 37 31 41 40 54 56 51 26 0 0 60 120 64 12 0 0 0 0 0 0 0 0 0 0 0 0 34 59 18 9 16 6 0 0 0 0 0 0 0 0
32 39 50 53 50 42 25 17 28 40 48 55 59 52 39 27 2 1 79 116 71 40 0 0 0 0 0 0 0 0 0 0 12 30 44 20 14 7 0 0 0 0 0 0 0 0 0
53 58 51 65 85 89 66 45 39 20 46 64 73 63 63 48 46 0 53 150 98 62 28 20 0 0 0 0 0 0 0 0 4 0 0 41 24 0 0 0 0 0 0 0 0 0 0
55 32 39 63 78 96 68 84 90 92 47 68 95 110 77 72 36 7 0 116 74 59 56 51 5 0 0 0 0 0 0 0 0 0 0 0 0 0 0 0 0 0 0 0 0 0 0
36 28 48 49 71 89 81 84 88 92 110 112 128 126 111 72 51 29 0 0 0 0 0 0 1 0 0 0 0 0 0 0 0 0 0 0 0 0 0 0 0 0 0 0 0 0 0
38 62 76 72 56 84 78 102 118 108 126 158 169 124 153 83 75 11 32 0 0 0 0 0 0 0 0 0 0 0 0 0 0 0 0 0 0 0 0 0 0 0 0 0 0 0 0
59 67 73 67 74 89 93 119 120 102 96 138 144 120 114 84 61 28 5 0 0 0 0 0 0 0 0 0 0 0 0 0 0 0 0 0 0 0 0 0 0 0 0 0 0 0 0
60 54 59 68 93 83 94 118 93 82 46 101 120 137 139 97 57 25 18 38 0 0 0 0 0 0 1 4 0 0 0 0 0 0 0 0 0 0 0 0 0 0 0 0 0 0 0
63 58 73 83 87 88 110 125 88 57 68 110 174 240 166 125 45 36 48 35 0 0 0 0 0 10 1 0 0 0 0 0 0 0 0 0 0 0 0 0 0 0 0 0 0 0 0
55 69 65 72 86 97 118 104 81 44 86 99 150 74 144 116 89 4 24 0 0 0 0 0 0 0 0 0 0 0 0 0 0 0 0 0 0 0 0 0 0 0 0 0 0 0 0
49 71 76 72 92 115 112 107 86 33 107 97 65 39 111 73 8 38 11 0 0 0 0 0 0 0 0 0 0 0 0 0 0 0 0 0 0 0 0 0 0 0 0 0 0 0 0
62 59 77 93 111 118 109 110 88 42 42 66 58 74 100 40 98 79 17 0 0 0 0 0 0 0 0 0 0 0 0 0 0 0 0 0 0 0 0 0 0 0 0 0 0 0 0
59 75 80 98 121 120 124 100 80 25 116 78 88 95 139 151 143 80 14 2 0 0 0 0 0 0 0 0 0 0 0 0 0 0 0 0 0 0 0 0 0 0 0 0 0 0 0
70 81 93 101 123 123 122 87 57 18 100 97 3 126 92 126 87 4 0 0 0 0 0 0 0 0 0 0 0 0 0 0 0 0 0 0 0 0 0 0 0 0 0 0 0 0 0
61 78 86 104 129 129 107 73 19 24 66 68 8 73 77 132 41 0 0 0 0 0 0 0 0 0 0 0 0 0 0 0 0 0 0 0 0 0 0 0 0 0 0 0 0 0 0
61 76 82 102 118 112 86 26 16 36 56 1 11 26 40 68 12 0 0 0 0 0 0 0 0 0 0 0 0 0 0 0 0 0 0 0 0 0 0 0 0 0 0 0 0 0 0
56 77 73 91 107 87 63 7 14 0 0 3 5 27 27 65 0 0 0 0 0 0 0 0 0 0 0 0 0 0 0 0 0 0 0 0 0 0 0 0 0 0 0 0 0 0 9
50 68 77 79 89 66 49 9 6 0 1 76 0 23 11 7 0 0 0 0 0 0 0 0 0 0 0 0 0 0 0 0 0 0 0 0 0 0 0 0 0 0 0 0 0 0 0
50 61 81 72 76 63 42 8 0 0 0 4 1 0 0 4 0 0 0 0 0 0 0 0 0 0 0 0 0 0 0 0 0 0 0 0 0 0 0 0 0 0 0 0 0 0 0
50 55 61 71 60 49 39 11 0 2 0 4 0 0 0 0 0 0 0 0 0 0 0 0 0 0 0 0 0 0 0 0 0 0 0 0 0 0 0 0 0 0 0 0 0 0 0
53 51 54 38 67 36 23 23 0 0 0 1 0 6 0 0 0 0 0 0 0 0 0 0 0 0 0 0 0 0 0 0 0 0 0 0 0 0 0 0 0 0 0 0 0 0 0
37 27 44 44 64 30 24 21 0 0 0 0 0 1 0 0 0 0 0 0 0 0 1 0 0 0 0 0 0 0 0 0 0 0 0 0 0 0 0 0 0 0 0 0 0 0 0
50 49 48 32 56 37 21 16 0 0 0 0 0 1 0 0 0 0 0 0 0 0 0 0 0 0 0 0 0 0 0 0 0 0 0 0 0 0 0 0 0 0 0 0 1 0 0
28 41 44 39 59 34 15 8 0 0 0 1 0 3 3 0 0 0 0 0 0 0 0 0 0 0 0 0 0 0 0 0 0 0 0 0 0 0 0 0 0 0 0 0 0 3 0
12 23 36 43 41 19 28 4 0 0 0 7 0 2 9 41 1 0 0 0 0 0 0 0 0 0 0 0 0 0 0 0 0 0 0 0 0 0 0 0 0 0 0 0 0 0 0
9 12 22 32 37 39 20 5 1 0 0 0 1 12 11 4 1 0 6 0 0 0 3 0 0 0 0 0 0 0 0 0 0 0 0 0 0 0 0 0 0 0 0 0 0 0 0
7 5 9 12 10 6 7 5 2 0 0 3 1 11 2 0 26 4 10 9 0 2 1 0 0 0 0 0 0 0 0 0 0 0 0 0 0 0 0 0 0 0 0 0 1 0 0

GFSGBSN_con_mucape_039.txt.gz
CAPE
14 17 15 24 23 27 33 41 35 24 28 26 25 36 32 14 0 2 98 126 28 6 4 0 0 0 2 1 19 1 0 0 7 94 63 23 14 21 16 2 0 0 0 0 0 0 0
13 22 23 16 20 22 27 24 23 23 34 30 37 45 53 46 0 4 8 125 70 15 4 0 0 0 0 0 0 0 0 0 6 52 76 31 23 14 19 15 0 2 0 0 0 0 0
25 36 54 38 42 12 20 34 35 24 23 39 46 38 44 53 33 2 4 114 109 46 8 0 0 1 1 0 0 0 0 0 29 16 52 40 13 1 13 8 11 1 0 0 0 0 0
34 66 47 45 49 60 76 55 49 46 49 39 41 60 57 57 56 40 53 80 149 87 6 3 0 0 2 0 0 0 0 0 18 74 64 7 2 13 16 3 0 0 0 0 0 0 0
63 35 32 54 55 55 61 70 73 82 94 74 55 60 91 99 85 65 21 58 55 54 16 24 1 0 2 0 0 0 0 2 25 36 49 50 15 10 0 0 0 0 0 0 0 0 0
47 45 54 59 64 58 69 77 74 89 83 91 91 104 125 105 81 76 45 53 78 34 15 39 11 0 0 0 0 0 0 15 0 0 28 22 11 4 1 17 0 0 0 0 0 0 0
36 58 60 46 65 68 78 80 108 95 107 97 131 126 129 121 140 81 63 44 0 0 0 0 0 0 0 0 0 0 0 0 0 0 0 0 0 0 0 0 0 0 0 0 0 0 0
53 64 82 68 68 73 94 104 131 126 112 103 72 162 152 136 139 86 53 35 0 0 0 0 0 0 0 0 0 0 0 0 0 0 0 0 0 0 0 0 0 0 0 0 0 0 0
67 79 58 72 75 84 104 125 149 122 97 75 46 121 141 101 123 84 50 0 0 0 0 0 1 3 0 0 4 0 0 0 0 0 0 0 0 0 0 0 0 0 0 0 0 0 0
43 53 70 75 68 85 109 140 149 125 94 52 54 134 141 106 49 59 57 2 29 0 0 0 0 3 7 3 5 4 0 0 0 0 0 0 0 0 0 0 0 0 0 0 0 0 0
35 64 79 72 85 110 134 151 148 109 90 56 49 86 90 96 54 68 55 46 0 0 12 0 0 8 15 0 2 10 6 0 0 0 0 0 0 0 0 0 0 0 0 0 0 0 0
45 62 65 82 97 105 132 143 141 102 78 91 48 61 108 123 211 103 83 122 21 1 2 0 0 0 0 0 4 0 0 0 0 0 0 0 0 0 0 0 0 0 0 0 0 0 0
38 73 85 91 107 105 121 126 103 80 61 78 58 93 73 131 128 165 103 47 0 0 0 0 0 0 0 0 0 0 0 0 0 0 0 0 0 0 0 0 0 0 0 0 0 0 0
61 65 77 92 97 108 121 107 83 61 46 95 67 80 145 143 126 88 3 0 0 0 0 0 0 0 0 0 0 0 0 0 0 0 0 0 0 0 0 0 0 0 0 0 0 0 0
59 64 73 75 95 105 112 85 72 20 67 109 54 36 179 142 145 7 2 0 0 0 0 0 0 0 0 0 0 0 0 0 0 0 0 0 0 0 0 0 0 0 0 0 0 0 0
55 63 63 73 93 99 83 72 35 28 77 40 1 43 124 146 112 0 0 0 0 0 0 0 0 0 0 0 0 0 0 0 0 0 0 0 0 0 0 0 0 0 0 0 0 0 0
56 58 71 71 73 73 56 59 22 27 10 3 15 11 148 191 157 0 0 0 0 0 0 0 0 0 0 0 0 0 0 0 0 0 0 0 0 0 0 0 0 0 0 0 0 0 0
50 56 70 71 56 55 47 41 15 0 6 1 0 15 75 4 1 0 0 0 0 0 0 0 0 0 0 0 0 0 0 0 0 0 0 0 0 0 0 0 0 0 0 0 0 0 0
51 61 64 64 52 42 37 27 0 4 3 43 0 20 35 56 0 0 0 0 5 0 0 0 0 0 0 0 0 0 0 0 0 0 0 0 0 0 0 0 0 0 0 0 0 0 0
52 57 55 59 54 27 29 21 0 0 0 52 1 16 31 40 33 0 0 1 0 0 0 1 0 0 1 0 0 0 0 0 0 0 0 0 0 0 0 0 0 0 0 0 0 0 0
43 53 52 47 53 17 29 22 0 0 0 0 51 34 8 0 0 24 37 0 0 0 4 2 0 1 0 0 0 0 0 0 0 0 0 0 0 0 0 0 0 0 0 0 0 0 0
24 28 24 35 56 14 21 3 0 0 1 0 1 2 17 0 0 0 0 0 0 0 1 8 11 0 0 0 0 0 0 0 0 0 0 0 0 0 0 0 0 0 0 0 0 0 0
42 42 49 42 49 17 11 3 0 0 0 0 6 0 0 0 0 0 0 0 0 6 0 1 3 3 0 0 0 0 0 0 0 0 0 0 0 0 0 0 0 0 0 0 0 0 0
32 27 44 47 31 26 8 3 0 0 0 0 2 0 0 0 0 0 0 0 5 13 18 3 0 0 0 0 0 0 0 0 0 0 0 0 0 0 0 0 0 0 0 0 0 0 0
19 15 32 53 23 16 12 3 0 0 0 0 0 1 0 0 0 0 0 0 2 2 12 12 0 0 0 0 0 0 0 0 0 0 0 0 0 0 0 0 0 0 0 0 0 0 0
9 14 19 31 26 19 18 2 0 0 0 0 0 1 0 0 0 0 0 0 0 0 0 15 0 0 0 0 0 0 0 0 0 0 0 0 0 0 0 0 0 0 0 0 0 0 0
9 8 9 19 24 25 13 1 0 0 0 0 0 0 0 0 0 0 0 0 12 2 2 0 0 0 0 0 0 0 0 1 0 0 0 0 0 0 0 0 0 0 0 0 0 0 0
0 9 6 2 5 4 2 0 0 0 0 1 1 6 0 0 3 0 12 26 0 29 0 0 0 0 0 0 0 0 0 0 0 0 0 0 0 0 0 0 0 0 0 0 0 0 0
5 10 7 4 5 9 6 5 9 0 0 0 0 9 7 0 11 4 10 7 1 10 2 0 0 0 0 0 0 0 0 0 0 0 0 0 0 0 0 0 0 0 0 0 0 0 0

GFSGBSN_con_mucape_042.txt.gz
CAPE
26 26 29 31 28 21 23 28 23 26 30 45 38 33 36 32 51 43 6 0 38 160 24 4 0 0 0 20 6 12 13 33 59 90 50 18 1 0 0 0 0 0 0 0 0 0 0
33 23 67 27 45 55 51 39 39 36 28 37 42 48 26 43 46 49 30 4 0 161 55 0 0 0 0 0 1 0 0 0 0 75 68 61 7 7 12 4 1 1 0 0 0 0 0
45 54 34 40 37 57 64 68 59 64 78 64 59 61 45 38 40 59 52 2 5 118 77 0 0 0 0 0 0 0 0 0 6 34 81 67 9 14 8 15 3 9 0 0 0 0 0
44 49 43 48 65 73 86 66 68 59 82 90 88 88 55 45 77 84 63 42 14 57 87 5 0 3 2 0 0 0 0 0 19 32 54 34 8 19 7 6 0 0 0 0 0 0 0
42 41 48 72 69 52 80 71 85 84 93 119 86 100 109 87 94 81 82 63 9 0 124 68 0 12 0 0 0 0 0 0 7 5 63 31 10 7 4 0 0 1 0 0 0 0 0
24 55 45 68 57 71 87 101 108 124 128 130 137 153 138 98 148 127 84 48 21 10 94 0 0 4 0 0 0 0 0 7 14 28 60 48 20 5 16 2 0 0 0 0 0 0 0
47 70 78 51 61 81 89 106 119 132 162 149 158 96 96 159 189 144 118 55 73 0 0 0 0 0 0 0 0 0 0 8 4 31 0 8 4 0 0 5 0 2 0 0 0 0 0
74 41 44 59 75 75 90 111 134 165 178 155 116 67 91 94 167 165 96 26 15 0 0 0 0 0 0 0 0 0 0 0 0 5 0 0 0 0 0 0 0 0 0 0 0 0 0
32 44 49 67 79 93 113 128 160 170 161 102 76 44 74 182 71 45 38 18 76 9 0 0 0 0 0 0 0 0 0 0 0 0 0 0 0 0 0 0 0 0 0 0 0 0 0
60 65 48 82 98 100 113 122 150 159 126 96 65 51 69 87 30 5 7 39 70 0 0 0 0 0 1 3 1 0 0 0 2 0 0 0 0 0 0 0 0 0 0 0 0 0 0
54 48 68 73 85 102 102 123 131 141 104 69 47 35 47 77 62 10 61 93 57 1 0 0 0 16 3 0 0 0 0 4 0 0 0 0 0 0 0 0 0 0 0 0 0 0 0
68 46 66 79 85 85 102 109 104 81 62 60 44 28 63 30 152 26 98 68 16 0 0 0 0 0 0 29 8 0 7 0 0 0 0 0 0 0 0 0 0 0 0 0 0 0 0
63 56 62 73 71 82 97 93 74 63 34 26 36 30 42 58 56 151 70 38 0 0 0 0 0 0 0 0 3 0 0 0 0 0 0 0 0 0 0 0 0 0 0 0 0 0 0
32 51 59 80 74 78 80 73 69 31 34 56 60 76 31 118 153 31 12 0 0 0 0 0 0 0 0 0 0 0 0 0 0 0 0 0 0 0 0 0 0 0 0 0 0 0 0
27 56 66 72 69 70 71 71 51 18 34 56 43 26 137 194 95 15 4 0 0 0 0 0 0 0 0 0 0 0 0 0 0 0 0 0 0 0 0 0 0 0 0 0 0 0 0
25 55 65 72 75 67 64 62 41 0 0 46 24 29 149 125 33 12 0 0 0 0 0 0 0 0 0 0 0 0 0 0 0 0 0 0 0 0 0 0 0 0 0 0 0 0 0
35 51 67 67 72 63 49 33 30 0 4 62 16 0 126 103 41 1 0 0 0 0 0 0 0 0 0 0 0 0 0 0 0 0 0 0 0 0 0 0 0 0 0 0 0 0 0
24 59 65 58 67 60 35 34 0 0 69 7 25 2 73 58 1 0 0 0 2 2 11 0 0 0 0 0 0 0 0 0 0 0 0 0 0 0 0 0 0 0 0 0 0 0 0
0 57 39 48 45 59 19 34 0 0 0 41 0 18 56 18 0 0 0 0 0 0 0 0 0 0 0 0 0 0 0 0 0 0 0 0 0 0 0 0 0 0 0 0 0 0 0
35 36 40 37 43 49 23 0 0 0 1 7 0 6 3 1 0 0 0 0 0 0 12 1 0 0 0 0 0 0 0 0 0 0 0 0 0 0 0 0 0 0 0 0 0 0 0
0 54 56 46 34 50 28 0 0 0 0 18 33 8 0 0 0 0 0 0 0 0 5 8 4 11 1 0 0 0 0 0 0 0 0 0 0 0 0 0 0 0 0 0 0 0 0
0 44 47 48 36 50 18 0 0 0 0 0 0 0 0 0 0 0 0 0 0 0 16 0 8 0 0 0 0 0 0 0 0 0 0 0 0 0 0 0 0 0 0 0 0 0 0
21 25 27 35 39 39 19 3 0 0 0 0 0 0 1 0 0 0 0 0 2 9 0 1 0 0 0 0 0 0 0 0 0 0 0 0 0 0 0 0 0 0 0 0 0 0 0
0 0 20 24 34 29 30 4 0 0 0 0 0 0 0 0 0 0 0 0 0 29 2 0 0 3 1 0 0 0 0 0 0 0 0 0 0 0 0 0 0 0 0 0 0 0 0
0 0 14 14 27 32 34 15 0 0 0 0 4 0 0 0 0 0 0 0 20 3 10 2 1 0 0 0 0 3 0 0 0 0 0 0 0 0 0 0 0 0 0 0 0 0 0
0 0 0 10 11 12 17 11 0 0 0 0 0 0 0 0 0 0 0 0 4 0 1 9 7 0 0 0 0 0 0 0 0 0 0 0 0 0 0 0 0 0 0 0 0 0 0
0 0 0 10 3 8 10 4 7 0 0 0 0 1 2 0 0 0 0 0 0 1 4 23 1 0 0 0 0 0 0 0 0 0 0 0 0 0 0 0 0 0 0 0 0 0 0
0 0 0 11 12 10 14 13 9 0 0 0 0 9 0 0 0 23 14 30 19 24 5 0 0 0 0 0 0 0 0 0 0 2 0 0 0 0 0 0 0 0 0 0 0 0 0
0 0 12 15 17 21 22 21 19 16 0 0 0 9 7 0 0 22 15 2 17 9 18 0 0 0 0 0 0 0 0 0 0 0 0 0 0 0 0 0 0 0 0 0 1 0 0

GFSGBSN_con_mucape_045.txt.gz
CAPE
36 38 54 42 31 38 36 52 55 53 74 73 57 58 65 74 47 38 54 63 40 7 37 110 15 10 22 19 2 6 368 75 100 72 47 11 14 7 2 0 0 0 0 0 0 0 0
35 44 44 32 56 59 66 63 67 66 67 70 96 110 76 53 51 31 49 59 53 31 43 131 24 59 11 3 0 0 15 53 60 65 48 59 5 0 0 0 0 0 0 0 0 0 0
62 25 43 50 48 80 63 60 70 72 89 92 94 92 100 84 62 64 72 78 63 19 12 145 44 2 9 0 0 0 0 0 0 31 51 57 52 13 8 0 4 0 0 0 0 0 0
45 42 60 43 55 68 49 74 87 103 107 112 123 150 160 145 120 96 85 66 65 19 48 22 16 0 0 0 0 0 0 0 2 17 64 43 43 15 12 0 0 0 0 0 0 0 0
32 47 68 67 38 41 63 75 95 110 136 135 172 177 181 165 133 130 139 87 60 10 42 117 2 0 0 0 0 0 0 0 44 56 62 42 31 0 4 6 0 0 0 0 0 0 0
37 63 38 37 50 72 89 93 114 141 154 158 164 172 159 126 130 137 165 132 64 19 13 68 0 3 0 0 0 0 0 1 22 67 47 28 12 30 7 6 0 0 0 0 0 0 0
40 30 38 37 67 79 95 111 123 128 146 149 139 107 122 92 104 92 55 10 28 61 0 0 0 0 0 0 0 0 0 0 42 47 0 15 2 0 0 0 0 0 0 0 0 0 0
22 68 67 28 74 83 100 112 116 116 131 122 102 75 69 76 156 107 41 6 16 25 21 0 0 0 0 0 0 0 0 5 21 13 1 12 0 0 0 5 0 1 0 0 0 0 0
29 51 40 54 68 89 89 94 99 97 105 99 65 62 45 69 91 36 0 8 69 13 0 0 0 0 0 0 0 0 0 2 4 10 0 0 0 3 0 0 0 0 0 0 0 0 0
33 41 50 61 69 70 80 75 78 73 67 60 57 52 47 64 75 9 8 0 22 27 0 1 0 0 0 9 0 0 1 0 0 1 7 0 0 0 0 0 0 0 0 0 0 0 0
45 36 48 56 69 68 72 73 62 60 60 32 34 47 53 65 19 42 29 7 21 0 0 0 0 2 0 1 0 15 14 5 2 0 0 0 0 0 0 0 0 0 0 0 0 0 0
49 29 59 62 75 66 67 63 50 56 25 23 15 30 74 10 26 5 38 8 12 0 0 0 0 0 0 0 0 2 5 0 3 0 0 0 0 0 0 0 0 0 0 0 0 0 0
2 32 56 71 69 66 58 51 46 34 28 26 35 86 77 52 29 9 12 8 0 0 0 0 0 0 0 0 0 1 0 0 0 0 0 0 0 0 0 0 0 0 0 0 0 0 0
0 23 60 68 72 71 62 56 41 28 40 60 51 155 27 87 103 8 12 0 0 0 0 0 0 0 0 0 0 0 0 0 0 0 0 0 0 0 0 0 0 0 0 0 0 0 0
2 33 52 72 72 65 57 35 31 39 73 90 98 2 45 23 29 17 0 0 1 0 0 0 0 0 0 0 0 0 0 0 0 0 0 0 0 0 0 0 0 0 0 0 0 0 0
8 43 53 60 62 58 46 21 29 0 84 114 4 2 6 19 14 1 0 0 0 0 0 0 0 0 0 0 0 0 0 0 0 0 0 0 0 0 0 0 0 0 0 0 0 0 0
0 39 34 42 51 49 27 1 0 0 26 73 0 10 44 33 3 0 0 0 0 0 0 0 0 0 0 0 0 0 0 0 0 0 0 0 0 0 0 0 0 0 0 0 0 0 0
0 43 58 39 43 46 1 0 0 1 39 6 0 0 19 2 0 0 0 0 0 0 3 0 0 0 0 0 0 0 0 0 0 0 0 0 0 0 0 0 0 0 0 0 0 0 0
0 36 65 55 57 31 0 0 1 9 48 0 0 0 0 6 0 0 0 0 10 23 27 0 0 0 0 0 0 0 0 0 0 0 0 0 0 0 0 0 0 0 0 0 0 0 0
0 30 34 55 52 33 0 0 0 0 0 0 0 0 0 0 0 0 0 1 2 9 0 0 0 0 0 0 0 0 0 0 0 0 0 0 0 0 0 0 0 0 0 0 0 0 0
0 12 24 33 48 24 0 0 0 1 0 1 0 0 0 0 0 0 0 0 0 0 0 11 0 0 0 0 0 0 0 0 0 0 0 0 0 0 0 0 0 0 0 0 0 0 0
0 0 0 21 35 28 9 0 0 0 0 0 0 0 0 0 0 0 0 0 0 0 0 0 0 0 0 0 0 0 0 0 0 0 0 0 0 0 0 0 0 0 0 0 0 0 0
0 0 0 0 24 38 15 0 0 0 0 0 0 1 0 0 0 0 0 0 0 0 2 2 0 0 0 0 0 0 0 0 0 0 0 0 0 0 0 0 0 0 0 0 0 0 0
9 0 0 0 0 23 19 0 0 0 0 0 0 0 0 0 0 0 0 0 0 0 0 0 0 0 0 0 0 0 0 0 0 0 0 0 0 0 0 0 0 0 0 0 0 0 0
17 0 0 0 0 0 0 0 0 0 0 0 0 0 0 0 0 0 0 0 0 0 0 0 0 0 0 0 0 0 0 0 0 0 0 0 0 0 0 0 0 0 0 0 0 0 0
23 18 0 0 0 0 0 0 0 0 0 0 0 0 0 0 0 0 0 0 0 0 4 3 2 0 0 0 0 0 0 0 0 0 0 0 0 0 0 0 0 0 0 0 0 0 0
16 27 0 0 0 0 13 1 0 0 0 0 0 9 0 0 0 0 0 0 1 2 7 13 2 0 0 0 0 0 0 0 0 0 0 0 0 0 0 0 0 0 0 0 0 0 0
12 31 22 15 15 22 20 19 5 12 2 0 0 9 0 0 0 0 29 32 8 14 0 0 0 3 0 0 0 0 0 0 0 0 0 0 0 0 0 0 0 0 0 0 0 0 0
20 27 27 17 18 11 27 11 22 2 11 0 0 13 5 0 0 11 28 30 33 25 16 0 0 0 0 0 0 0 0 0 0 0 6 0 0 0 0 0 0 0 0 0 0 0 0

GFSGBSN_con_mucape_048.txt.gz
CAPE
37 61 18 28 43 28 64 60 65 62 82 88 97 97 95 112 63 59 38 37 44 52 37 7 35 70 11 11 0 0 250 82 55 61 24 8 8 0 0 0 0 0 0 0 0 0 0
45 35 24 45 56 60 63 38 63 70 93 91 94 112 131 162 133 87 75 51 61 52 41 13 8 86 5 0 0 0 93 58 134 85 53 38 26 4 0 0 0 0 0 0 0 0 0
21 27 27 60 36 28 38 54 61 73 90 117 124 138 165 160 181 157 111 86 72 68 30 4 6 11 0 0 0 0 132 134 153 75 23 41 49 18 0 0 0 0 0 0 0 0 0
22 38 73 35 25 37 63 68 84 92 108 118 127 154 177 166 187 173 136 165 100 74 34 0 1 35 2 0 0 4 0 0 2 75 83 84 56 5 3 0 0 4 0 0 0 0 0
33 40 31 35 32 47 73 80 89 102 93 94 109 150 147 156 158 143 148 134 134 101 48 0 0 5 0 0 0 0 0 3 64 42 65 102 45 15 8 7 0 0 0 0 0 0 0
49 31 56 54 47 65 75 75 85 91 86 86 94 100 100 115 80 118 116 64 84 69 25 30 19 0 2 0 0 0 0 8 116 103 82 83 41 0 15 11 0 0 0 0 0 0 0
35 39 70 38 61 66 72 83 66 85 81 86 83 65 58 79 103 153 27 0 1 49 83 5 0 3 0 0 0 0 0 56 84 74 16 25 26 3 0 0 0 0 0 0 0 0 0
45 48 53 65 60 67 66 75 72 68 65 65 60 52 61 50 58 105 0 0 1 16 0 4 0 0 0 0 0 0 2 22 44 1 6 8 21 0 0 2 0 0 0 0 0 0 0
42 53 40 60 58 68 75 73 75 60 61 52 30 29 42 42 33 12 0 3 10 9 1 0 0 0 0 0 0 0 20 11 26 0 4 0 0 0 0 0 0 0 0 0 0 0 0
39 17 37 65 61 65 67 65 65 67 58 28 36 29 25 49 3 0 2 32 12 10 6 6 0 0 0 0 0 8 20 1 6 12 3 0 0 0 0 0 0 0 0 0 0 0 0
48 27 42 64 66 85 83 68 75 66 58 42 43 44 52 70 14 3 57 35 10 1 1 0 0 2 0 0 1 59 12 10 0 0 0 0 0 0 0 0 0 0 0 0 0 0 0
34 23 29 58 65 71 65 68 67 44 39 64 55 87 162 70 33 1 47 28 1 1 2 0 1 0 0 0 3 31 21 4 3 5 4 0 0 0 0 0 0 0 0 0 0 0 0
24 30 21 63 54 61 72 62 43 45 62 50 65 144 140 77 28 10 5 10 0 13 0 1 10 0 0 0 1 16 1 2 0 0 0 0 0 0 0 0 0 0 0 0 0 0 0
25 20 44 41 57 51 68 49 43 32 59 79 122 32 25 73 52 9 5 0 6 2 1 3 0 0 0 0 0 0 0 0 0 0 0 0 0 0 0 0 0 0 0 0 0 0 0
11 31 23 46 45 49 0 0 0 0 49 88 19 2 7 14 9 0 0 0 0 0 0 0 0 0 0 0 0 0 0 0 0 0 0 0 0 0 0 0 0 0 0 0 0 0 0
18 29 29 33 50 18 0 0 1 0 75 58 0 0 31 31 14 0 0 0 0 2 0 0 0 0 0 0 0 0 0 0 0 0 0 0 0 0 0 0 0 0 0 0 0 0 0
8 27 29 52 56 0 0 0 6 42 94 1 0 0 17 7 0 0 0 0 0 0 0 0 0 0 0 0 0 0 0 0 0 0 0 0 0 0 0 0 0 0 0 0 0 0 0
17 20 20 26 44 0 0 0 0 28 34 0 0 0 3 0 0 0 0 0 0 0 0 0 0 0 0 0 0 0 0 0 0 0 0 0 0 0 0 0 0 0 0 0 0 0 0
13 25 0 19 31 0 0 0 0 0 8 0 0 0 1 0 0 0 1 0 4 0 0 0 0 0 0 0 0 0 0 0 0 0 0 0 0 0 0 0 0 0 0 0 0 0 0
0 20 0 0 19 0 0 0 0 0 0 0 0 0 0 0 0 0 0 0 0 7 0 0 0 0 0 0 0 0 0 0 0 0 0 0 0 0 0 0 0 0 0 0 0 0 0
0 15 0 0 0 21 0 0 0 0 0 0 0 0 0 0 0 0 0 0 0 0 0 0 0 0 0 0 0 0 0 0 0 0 0 0 0 0 0 0 0 0 0 0 0 0 0
0 11 0 0 0 0 0 0 0 0 0 0 0 0 0 0 0 0 0 0 0 0 0 0 0 0 0 0 0 0 0 0 0 0 0 0 0 0 0 0 0 0 0 0 0 0 0
0 16 0 0 0 0 0 0 0 0 0 0 0 0 0 0 0 0 0 0 0 0 5 1 1 0 0 0 0 0 0 0 0 0 0 0 0 0 0 0 0 0 0 0 0 0 0
0 14 0 0 0 0 0 0 0 0 0 0 0 0 0 0 0 0 0 0 0 0 0 0 0 0 0 0 0 0 0 0 0 0 0 0 0 0 0 0 0 0 0 0 0 0 0
0 13 6 0 0 0 0 0 0 0 0 0 0 0 0 0 0 0 0 0 0 0 0 0 0 0 0 0 0 0 0 0 0 0 0 0 0 0 0 0 0 0 0 0 0 0 0
0 6 15 0 0 0 0 0 0 0 0 0 0 0 0 0 0 0 0 0 0 0 0 10 0 0 0 0 0 0 0 0 0 0 0 0 0 0 0 0 0 0 0 0 0 0 0
0 5 25 17 0 0 0 0 0 0 0 0 0 1 0 0 0 0 0 0 0 0 2 14 4 0 0 0 0 0 0 0 0 0 0 0 0 0 0 0 0 0 0 0 0 0 0
0 10 23 17 23 0 0 0 0 5 0 0 0 12 1 0 0 0 34 0 4 2 0 2 0 0 0 0 0 0 0 0 0 0 0 0 0 0 0 0 0 0 0 0 0 0 0
0 3 24 17 27 23 18 26 19 16 0 1 0 2 5 0 0 0 28 35 20 32 5 0 0 0 0 0 0 0 0 0 0 0 0 0 0 0 0 0 0 0 0 0 0 0 0

GFSGBSN_con_mucape_051.txt.gz
CAPE
35 41 21 25 72 35 29 31 49 52 77 85 94 97 106 148 167 180 124 111 76 65 41 45 12 15 20 0 0 115 70 402 0 13 29 37 20 7 0 0 0 0 0 0 0 0 0
38 30 54 68 26 25 35 60 73 79 82 85 91 77 108 120 153 171 151 148 143 79 71 63 1 8 3 0 5 3 39 280 1 120 29 33 25 0 0 0 0 0 0 0 0 0 0
21 26 41 28 44 49 51 68 73 80 93 83 83 79 106 142 164 185 184 183 178 133 111 72 32 6 0 3 0 0 192 163 186 154 77 36 7 17 4 0 0 0 0 0 0 0 0
26 37 25 56 53 50 60 69 65 76 72 82 79 80 96 134 128 187 200 190 209 175 106 67 5 9 0 1 0 37 130 183 188 168 107 101 67 24 1 1 0 0 0 0 0 0 0
52 33 49 67 42 61 75 65 71 62 73 74 71 74 83 81 120 157 163 202 200 144 126 79 22 14 0 0 0 23 18 47 47 91 95 99 71 31 15 13 4 10 0 0 0 0 0
36 47 39 42 56 65 67 80 74 88 82 77 61 63 62 51 88 113 181 146 32 77 65 69 75 24 0 0 1 21 0 27 134 127 114 132 93 32 13 19 0 0 0 0 0 0 0
37 45 49 38 53 59 64 78 100 85 77 88 72 66 61 65 63 94 14 0 0 17 65 26 38 2 0 0 0 10 0 15 145 104 102 64 31 1 0 0 0 0 0 0 0 0 0
32 42 29 31 61 71 69 82 93 94 81 75 45 12 33 29 77 99 7 0 0 19 0 25 15 7 0 0 4 6 0 18 92 61 61 39 40 6 5 2 4 0 0 0 0 0 0
0 37 23 41 62 72 75 74 87 73 71 29 28 45 28 29 71 1 0 4 2 5 7 23 5 0 0 0 0 2 0 29 70 55 47 14 0 10 5 0 0 0 0 0 0 0 0
0 16 25 47 80 69 74 71 80 59 22 37 58 67 89 139 12 4 0 21 0 2 0 7 3 0 0 4 0 0 8 21 35 1 1 7 0 0 2 1 0 0 0 0 0 0 0
0 6 25 56 70 68 69 84 60 27 63 59 69 123 201 142 51 3 17 12 2 8 0 0 0 0 1 0 0 17 28 21 22 11 0 0 0 0 0 0 0 0 0 0 0 0 0
0 0 30 46 38 53 62 71 0 0 65 77 129 150 62 97 65 11 18 10 0 5 0 1 12 0 0 0 7 22 43 15 16 19 6 0 0 0 0 0 2 0 0 0 0 0 0
0 4 37 36 48 50 32 7 0 0 56 90 209 98 48 108 39 6 2 3 0 0 0 0 0 0 0 0 6 26 5 27 15 0 0 0 0 0 0 0 0 0 0 0 0 0 0
0 4 25 60 36 42 0 0 5 0 54 162 80 4 16 2 0 0 0 17 0 0 1 2 0 0 0 0 14 7 2 3 4 0 0 0 0 0 0 0 0 0 0 0 0 0 0
0 0 26 33 57 19 0 0 0 16 89 88 0 0 1 17 1 4 1 29 0 0 0 0 0 0 0 0 0 0 0 0 0 0 0 0 0 0 0 0 0 0 0 0 0 0 0
0 0 24 9 33 20 0 0 0 25 65 0 0 0 0 5 0 0 0 2 0 3 0 0 0 0 0 0 0 0 0 0 0 0 0 0 0 0 0 0 0 0 0 0 0 0 0
0 0 10 0 20 11 0 0 0 0 21 0 0 0 0 0 0 0 1 0 0 0 0 0 0 0 0 0 0 0 0 0 0 0 0 0 0 0 0 0 0 0 0 0 0 0 0
0 0 0 0 0 9 0 0 0 0 6 0 0 0 0 0 0 0 0 0 0 0 0 0 0 0 0 0 0 0 0 0 0 0 0 0 0 0 0 0 0 0 0 0 0 0 0
0 0 0 0 0 12 0 0 0 0 0 0 0 0 0 0 0 0 0 0 0 0 0 0 0 0 0 0 0 0 0 0 0 0 0 0 0 0 0 0 0 0 0 0 0 0 0
0 0 0 0 0 1 0 0 0 0 0 0 0 0 0 0 0 0 0 0 0 0 0 0 0 0 0 0 0 0 0 0 0 0 0 0 0 0 0 0 0 0 0 0 0 0 0
0 0 0 0 0 0 0 0 0 0 0 0 0 0 0 0 0 0 0 0 0 0 0 0 0 0 0 0 0 0 0 0 0 5 0 0 0 0 0 0 0 0 0 0 0 0 0
0 0 0 1 0 0 0 0 0 0 0 0 0 0 0 0 0 0 0 0 0 0 0 0 0 0 0 0 0 0 0 0 0 0 0 0 0 0 0 0 0 0 0 0 0 0 0
0 0 0 1 0 0 0 0 0 0 0 0 0 0 0 0 0 0 0 0 0 0 0 0 0 0 0 0 0 0 0 0 0 0 0 0 0 0 0 0 0 0 0 0 0 0 0
0 0 0 0 0 0 0 0 0 0 0 0 0 0 0 0 0 0 0 0 0 0 0 0 2 0 0 0 0 0 0 0 0 0 0 0 0 0 0 0 0 0 0 0 0 0 0
0 0 0 0 0 0 0 0 0 0 0 0 0 0 0 0 0 0 0 0 0 0 0 0 0 0 0 0 0 0 0 0 0 0 0 0 0 0 0 0 0 0 0 0 0 0 0
0 0 0 0 0 0 0 0 0 0 0 0 0 0 0 0 0 0 0 0 0 0 0 0 0 0 0 0 0 0 0 0 0 0 0 0 0 0 0 0 0 0 0 0 0 0 0
0 0 0 0 1 11 0 0 0 0 0 0 1 3 0 0 0 0 0 0 0 0 0 4 2 0 0 0 0 0 0 0 0 0 0 0 0 0 0 0 0 0 0 0 0 0 0
0 0 0 0 1 16 17 0 0 0 0 0 0 12 0 0 0 0 0 13 0 0 0 1 1 0 0 0 0 0 0 0 0 0 0 0 0 0 0 0 0 0 0 0 0 0 1
0 0 0 0 0 10 15 21 0 26 0 0 0 0 8 0 0 0 6 27 8 25 4 0 0 0 0 0 0 0 0 0 0 0 0 0 0 0 0 0 0 0 0 0 0 0 0

GFSGBSN_con_mucape_054.txt.gz
CAPE
41 19 23 38 24 60 45 60 61 68 75 87 92 83 71 72 71 89 110 141 174 183 137 67 54 51 22 33 0 136 93 185 17 3 2 37 15 20 10 0 0 0 0 0 0 0 0
0 29 42 24 64 53 57 61 64 65 73 98 94 65 62 74 70 100 145 182 219 197 164 128 75 59 35 17 2 8 42 172 17 42 42 43 22 12 3 0 0 0 0 0 0 0 0
0 27 29 36 49 50 57 61 60 63 85 77 90 78 73 66 72 106 153 235 229 221 209 174 93 32 28 7 0 4 0 204 78 109 52 115 29 1 0 0 0 0 0 0 0 0 0
0 7 28 42 44 58 63 67 78 107 83 93 75 66 65 56 57 76 155 256 243 253 235 156 83 31 11 5 19 9 110 167 127 307 181 174 98 41 14 0 0 0 0 0 0 0 0
0 5 37 41 39 56 68 81 79 92 105 103 80 98 78 76 60 81 166 209 283 290 229 189 41 29 24 6 0 25 70 226 235 195 134 146 81 50 40 5 0 0 0 0 0 0 0
0 0 32 37 29 69 73 75 81 95 104 93 84 90 52 17 32 95 154 170 128 102 128 113 68 47 19 1 0 51 45 99 141 103 124 136 43 36 46 1 0 0 0 0 0 0 0
0 0 0 23 30 62 75 78 67 73 88 86 65 40 27 17 32 118 8 0 0 4 39 19 0 27 1 1 3 34 23 117 125 116 157 70 0 6 8 11 1 0 0 0 0 0 0
0 0 4 40 30 69 64 68 69 78 77 27 11 14 58 95 33 99 4 0 0 3 3 20 5 39 12 0 5 22 18 39 72 62 11 30 0 6 7 0 0 0 0 0 0 0 0
0 0 6 44 44 39 59 69 70 54 25 63 82 100 149 152 155 14 0 1 3 4 1 1 1 2 5 5 0 27 14 22 39 33 2 0 0 0 1 0 19 0 0 0 0 0 0
0 0 0 42 42 54 58 73 58 0 67 73 119 244 267 233 0 0 0 1 0 0 0 1 7 19 8 2 0 5 13 32 52 32 20 2 10 0 0 0 0 0 0 0 0 0 0
0 0 0 35 56 39 0 3 0 45 76 89 188 239 127 74 10 0 0 0 0 3 0 0 0 1 2 0 0 3 28 27 25 0 9 0 0 0 0 0 0 0 0 0 0 0 0
0 0 0 44 56 62 0 40 0 60 93 104 85 113 112 4 30 14 1 0 0 15 0 0 4 16 0 0 0 9 35 20 11 0 0 0 0 1 1 1 0 0 0 0 0 0 0
0 0 0 39 28 31 0 0 0 42 111 77 19 3 7 14 1 0 0 0 2 0 0 0 2 2 0 0 0 26 12 4 8 0 0 0 0 0 0 0 0 0 0 0 0 0 0
0 0 0 1 24 21 0 0 0 32 48 80 16 1 6 0 0 0 0 0 0 0 0 1 0 0 0 0 0 0 10 4 19 2 0 0 0 0 0 0 0 0 0 0 0 0 0
0 0 0 11 0 18 0 0 0 17 27 57 0 0 0 0 0 0 0 0 0 4 0 0 0 0 0 0 0 3 0 0 1 0 0 0 0 0 0 0 0 0 0 0 0 0 0
0 0 0 0 0 19 0 0 0 1 10 1 0 0 0 0 0 0 0 0 0 0 0 0 0 0 0 0 0 0 0 0 0 0 0 0 0 0 0 0 0 0 0 0 0 0 0
0 0 0 0 0 7 6 0 0 0 1 0 0 0 0 0 0 0 0 0 0 0 0 0 0 0 0 0 0 0 0 0 0 0 0 0 0 0 0 0 0 0 0 0 0 0 0
0 0 0 0 0 0 0 0 0 0 0 0 0 0 0 0 0 0 0 0 0 0 0 0 0 0 0 0 0 0 0 0 0 0 0 0 0 0 0 0 0 0 0 0 0 0 0
0 0 0 0 0 0 0 0 0 0 0 0 0 0 0 0 0 0 0 0 0 0 0 0 0 0 0 0 0 0 0 0 0 0 0 0 0 0 0 0 0 0 0 0 0 0 0
0 0 0 0 0 0 0 0 0 0 0 0 0 0 0 0 0 0 0 0 0 0 0 0 0 0 0 0 0 0 0 0 0 0 0 0 0 0 0 0 0 0 0 0 0 0 0
0 0 0 0 0 0 0 0 0 0 0 0 0 0 0 0 0 0 0 0 0 0 0 0 0 0 0 0 0 0 0 0 0 1 0 0 0 0 0 0 0 0 0 0 0 0 0
0 0 0 0 0 0 0 0 0 0 0 0 0 0 0 0 0 0 0 0 0 0 0 0 0 0 0 0 0 0 0 0 0 0 0 0 0 0 0 0 0 0 0 0 0 0 0
0 0 0 0 0 0 0 0 0 0 0 0 0 0 0 0 0 0 0 0 0 0 0 0 0 0 0 0 0 0 0 0 0 0 0 0 0 0 0 0 0 0 0 0 0 0 0
0 0 0 0 0 0 0 0 0 0 0 0 0 0 0 0 0 0 0 0 0 0 0 0 0 0 0 0 0 0 0 0 0 0 0 0 0 0 0 0 0 0 0 0 0 0 0
0 0 0 0 0 0 0 0 0 0 0 0 0 0 0 0 0 0 0 0 0 0 0 0 0 0 0 0 0 0 0 0 0 0 0 0 0 0 0 0 0 0 0 0 0 0 0
0 0 0 0 0 0 0 0 0 0 0 0 0 0 0 0 0 0 0 0 0 0 0 0 0 0 0 0 0 0 0 0 0 0 0 0 0 0 0 0 0 0 0 0 0 0 0
0 0 0 0 0 0 5 0 0 0 0 0 0 1 0 0 0 0 0 0 0 0 0 0 0 0 0 0 0 0 0 0 0 0 0 0 0 0 0 0 0 0 0 0 0 0 0
0 0 0 0 0 0 13 0 0 0 0 0 0 3 0 0 0 0 0 8 1 0 0 0 0 0 0 0 0 0 0 0 0 0 0 0 0 0 0 0 0 0 0 0 0 0 0
0 0 0 0 0 0 0 0 31 7 0 0 0 0 5 0 0 0 1 0 1 4 0 0 0 0 0 0 0 0 0 0 0 0 0 0 0 0 0 0 0 0 0 5 0 3 0

GFSGBSN_con_mucape_057.txt.gz
CAPE
23 27 52 48 25 50 39 52 53 55 61 74 82 92 98 76 84 67 59 53 82 138 175 192 132 90 67 34 6 11 109 71 75 8 1 34 28 34 16 1 0 0 0 0 0 0 0
34 33 21 45 38 50 55 60 70 65 75 94 100 100 104 87 84 82 70 62 148 227 225 259 190 126 55 67 12 27 137 44 13 30 16 87 8 13 18 4 0 0 0 0 0 0 0
32 31 30 29 64 28 57 79 82 88 83 105 116 107 117 97 89 60 64 136 251 271 258 292 219 114 53 7 7 3 3 21 74 33 47 147 45 14 4 6 0 0 0 0 0 0 0
19 22 32 55 43 33 57 84 93 87 90 97 101 115 143 115 117 87 85 170 268 292 276 224 203 63 3 52 20 11 9 81 46 93 151 246 110 24 14 0 0 0 0 0 0 0 0
23 28 41 39 25 41 70 83 87 84 77 88 123 107 140 88 39 33 124 241 294 318 311 212 76 34 19 86 3 2 2 130 161 205 258 170 73 49 21 2 0 0 0 0 0 0 0
1 21 34 35 22 41 59 62 72 75 91 91 69 48 30 22 63 35 161 202 152 119 139 163 31 5 0 12 20 3 18 197 145 214 140 92 71 43 43 2 0 0 0 0 0 0 0
19 33 30 19 40 49 67 45 64 107 71 52 66 87 96 117 129 60 8 0 0 1 25 0 0 4 37 42 16 32 63 156 169 92 0 65 21 0 0 9 0 0 0 0 0 0 0
13 21 19 18 42 66 61 38 60 66 60 103 141 152 188 153 145 83 2 0 1 0 0 3 18 30 33 49 11 22 63 77 77 42 81 32 0 17 0 13 1 0 0 0 0 0 0
14 17 19 11 63 82 70 46 66 46 86 127 208 228 249 212 73 1 0 0 1 4 0 27 6 12 37 26 0 11 43 54 74 43 0 0 0 47 0 19 4 0 0 0 0 0 0
16 20 17 0 60 50 34 49 53 41 79 93 177 213 127 6 0 0 0 2 0 0 0 0 18 26 54 28 0 24 11 31 19 0 4 0 0 38 13 2 19 0 0 0 0 0 0
0 14 0 0 33 28 53 36 44 23 65 41 39 144 102 11 8 1 0 0 0 0 0 2 5 25 23 0 0 13 25 1 1 1 0 0 0 0 0 0 0 6 0 0 0 0 0
0 0 17 0 28 33 0 30 28 15 21 33 16 15 20 1 7 6 0 0 0 0 0 0 0 13 0 0 0 32 19 4 5 3 5 0 3 0 0 0 0 7 0 0 0 0 0
0 0 15 0 19 26 0 0 13 13 7 30 9 10 0 0 0 0 0 0 0 0 0 3 0 0 1 0 0 19 11 9 1 0 0 0 0 0 0 0 0 0 0 0 0 0 0
0 0 19 0 2 19 0 0 0 0 0 3 0 0 0 0 0 0 0 0 0 0 0 0 0 0 0 0 0 1 6 0 0 0 0 0 0 0 0 0 0 0 0 0 0 0 0
0 0 0 0 0 3 0 0 0 0 0 5 0 0 0 0 0 0 0 0 0 0 0 0 5 0 0 0 0 0 0 0 0 0 0 0 0 0 0 0 0 0 0 0 0 0 0
0 0 7 0 0 0 0 0 0 0 0 0 0 0 0 0 0 0 0 0 0 0 0 0 0 0 0 0 0 0 0 0 0 0 0 0 0 0 0 0 0 0 0 0 0 0 0
0 0 0 0 0 0 0 0 0 0 0 0 0 0 0 0 0 0 0 0 0 0 0 0 0 0 0 0 0 0 0 0 0 0 0 0 0 0 0 0 0 0 0 0 0 0 0
0 0 9 0 0 0 0 0 0 0 0 0 0 0 0 0 0 0 0 0 0 0 0 0 0 0 0 0 0 0 0 0 0 0 0 0 0 0 0 0 0 0 0 0 0 0 0
0 0 0 0 0 0 0 0 0 0 0 0 0 0 0 0 0 0 0 0 0 0 0 0 0 0 0 0 0 0 0 0 0 0 0 0 0 0 0 0 0 0 0 0 0 0 0
0 0 0 0 0 0 0 0 0 0 0 0 0 0 0 0 0 0 0 0 0 0 0 0 0 0 0 0 0 0 0 0 0 0 0 0 0 0 0 0 0 0 0 0 0 0 0
0 0 0 0 0 0 0 0 0 0 0 0 0 0 0 0 0 0 0 0 0 0 0 0 0 0 0 0 0 0 0 0 0 0 0 0 0 0 0 0 0 0 0 0 0 0 0
0 0 0 0 0 0 0 0 0 0 0 0 0 0 0 0 0 0 0 0 0 0 0 0 0 0 0 0 0 0 0 0 0 0 0 0 0 0 0 0 0 0 0 0 0 0 0
0 0 0 0 0 0 0 0 0 0 0 0 0 0 0 0 0 0 0 0 0 0 0 0 0 0 0 0 0 0 0 0 0 0 0 0 0 0 0 0 0 0 0 0 0 0 0
0 0 0 0 0 0 0 0 0 0 0 0 0 0 0 0 0 0 0 0 0 0 0 0 0 0 0 0 0 0 0 0 0 0 0 0 0 0 0 0 0 0 0 0 0 0 0
0 0 0 0 0 0 0 0 0 0 0 0 0 0 0 0 0 0 0 0 0 0 0 0 0 1 0 0 0 0 0 0 0 0 0 0 0 0 0 0 0 0 0 0 0 0 0
0 0 0 0 0 0 0 0 0 0 0 0 0 0 0 0 0 0 0 0 0 0 0 0 0 0 0 0 0 0 0 0 0 0 0 0 0 0 0 0 0 0 0 0 0 0 0
0 0 0 0 0 0 0 0 0 0 0 0 0 0 0 0 0 0 0 0 0 0 0 0 0 0 0 0 0 0 0 0 0 0 0 0 0 0 0 0 0 0 1 0 0 0 0
0 0 0 0 0 0 0 0 0 0 0 0 0 0 0 0 0 0 0 0 0 0 0 0 0 0 0 0 0 0 0 0 0 0 0 0 0 0 0 0 0 0 0 0 0 0 0
1 0 0 0 0 0 0 0 0 20 10 0 0 0 0 0 0 0 0 0 1 2 4 0 0 0 0 0 0 0 0 0 0 0 0 0 0 0 0 0 0 0 0 0 0 0 0

GFSGBSN_con_mucape_060.txt.gz
CAPE
18 31 30 37 43 47 22 46 81 91 98 96 85 102 105 115 116 103 98 96 72 61 77 101 109 95 77 45 0 27 37 268 342 143 41 52 81 65 32 17 3 0 0 0 0 0 0
30 15 26 43 50 36 30 66 94 93 106 96 100 108 134 171 176 148 106 82 95 137 172 172 190 169 86 24 0 42 62 32 128 152 26 92 57 70 48 24 6 0 0 0 0 0 0
30 29 29 27 38 47 50 70 61 81 92 109 115 123 171 201 171 183 161 167 107 182 222 252 270 159 103 2 64 43 84 16 98 234 6 109 126 95 47 26 6 1 0 0 0 0 0
11 11 31 35 19 51 53 57 48 74 90 104 119 122 79 111 116 68 33 49 200 265 295 295 225 100 3 3 39 18 22 12 44 260 37 206 189 154 26 16 6 1 1 0 0 0 0
15 24 31 17 17 53 45 61 25 64 87 72 86 90 56 42 24 55 48 133 273 279 294 259 95 55 45 60 36 47 44 34 44 236 151 246 122 81 40 30 24 13 0 0 0 0 0
13 20 23 6 31 46 71 54 33 63 61 106 174 189 174 154 114 68 91 140 111 164 210 139 18 36 6 16 143 73 8 80 199 276 118 146 102 88 81 37 0 0 0 0 0 0 0
16 21 16 0 27 34 35 41 59 57 76 113 157 180 214 199 130 116 53 0 0 156 126 46 16 10 39 154 185 17 1 14 273 94 55 74 1 33 28 12 0 0 0 0 0 0 0
20 17 13 5 31 29 34 52 49 52 77 91 111 148 156 127 98 35 0 0 2 1 9 17 31 13 8 61 53 6 4 96 122 54 36 44 0 26 47 30 2 0 0 0 0 0 0
13 9 16 23 21 21 27 24 46 48 61 39 37 86 67 27 12 6 12 0 2 2 29 37 1 14 21 42 4 2 25 5 49 8 51 0 0 19 3 28 0 0 0 0 0 0 0
10 7 14 26 4 18 19 0 33 39 47 23 12 13 5 0 7 10 4 11 8 2 6 12 19 3 23 0 2 16 22 25 0 0 0 0 2 44 33 0 17 0 0 0 0 0 0
11 7 11 4 0 14 0 6 0 9 31 25 0 1 0 0 0 0 0 0 0 0 1 12 4 13 28 0 0 15 0 11 11 0 0 0 0 48 59 25 41 8 0 0 0 0 0
0 6 11 4 0 13 0 0 0 0 14 7 0 0 0 0 0 0 0 0 0 0 0 1 1 0 0 0 0 0 0 0 0 0 0 0 0 0 2 0 0 0 0 0 0 0 0
0 1 8 3 0 1 3 0 0 0 0 0 0 0 0 0 0 0 0 0 0 0 0 0 2 0 1 0 0 3 0 0 0 0 0 0 0 0 0 0 0 0 0 0 0 0 0
0 0 8 9 0 7 9 0 0 0 0 0 0 0 0 0 0 0 0 0 0 0 0 9 5 0 0 0 0 1 6 0 0 0 0 0 0 0 0 0 0 0 0 0 0 0 0
0 0 0 0 0 0 0 0 0 0 0 0 0 0 0 0 0 0 0 0 0 0 0 0 0 0 0 0 4 0 0 0 0 0 0 0 0 0 0 0 0 0 0 0 0 0 0
0 0 0 0 0 0 0 0 0 0 0 0 0 0 0 0 0 0 0 0 0 0 0 0 0 0 0 0 0 0 0 0 0 0 0 0 0 0 0 0 0 0 0 0 0 0 0
0 0 0 0 0 0 0 0 0 0 0 0 0 0 0 0 0 0 0 0 0 0 0 0 0 0 0 0 0 0 0 0 0 0 0 0 0 0 0 0 0 0 0 0 0 0 0
0 0 0 0 0 0 0 0 0 0 0 0 0 0 0 0 0 0 0 0 0 0 0 0 0 0 0 0 0 0 0 0 0 0 0 0 0 0 0 0 0 0 0 0 0 0 0
0 0 0 0 0 0 0 0 0 0 0 0 0 0 0 0 0 0 0 0 0 0 0 0 0 0 0 0 0 0 0 0 0 0 0 0 0 0 0 0 0 0 0 0 0 0 0
0 0 0 0 0 0 0 0 0 0 0 0 0 0 0 0 0 0 0 0 0 0 0 0 0 0 0 0 0 0 0 0 0 0 0 0 0 0 0 0 0 0 0 0 0 0 0
0 0 0 0 0 0 0 0 0 0 0 0 0 0 0 0 0 0 0 0 0 0 0 0 0 0 0 0 0 0 0 0 0 0 0 0 0 0 0 0 0 0 0 0 0 0 0
0 0 0 0 0 0 0 0 0 0 0 0 0 0 0 0 0 0 0 0 0 0 0 0 0 0 0 0 0 0 0 0 0 0 0 0 0 0 0 0 0 0 0 0 0 0 0
0 0 0 0 0 0 0 0 0 0 0 0 0 0 0 0 0 0 0 0 0 0 0 0 0 0 0 0 0 0 0 0 0 0 0 0 0 0 0 0 0 0 0 0 0 0 0
0 0 0 0 0 0 0 0 0 0 0 0 0 0 0 0 0 0 0 0 0 0 0 0 0 0 0 0 0 0 0 0 0 0 0 0 0 0 0 0 0 0 0 0 0 0 0
0 0 0 0 0 0 0 0 0 0 0 0 0 0 0 0 0 0 0 0 0 0 0 0 0 0 0 0 0 0 0 0 0 0 0 0 0 0 0 0 0 0 0 0 0 0 0
0 0 0 0 0 0 0 0 0 0 0 0 0 0 0 0 0 0 0 0 0 0 0 0 0 0 0 0 0 0 0 0 0 0 0 0 0 0 0 0 0 0 0 0 0 8 0
0 0 3 0 0 0 0 0 0 0 0 0 0 0 0 0 0 0 0 0 0 0 0 0 0 0 0 0 0 0 0 0 0 0 0 0 0 0 0 0 0 0 0 0 0 1 0
5 2 8 8 0 0 0 0 0 0 0 0 0 0 0 0 0 0 0 0 1 2 0 0 0 0 0 0 0 0 0 0 0 0 0 0 0 0 0 0 0 0 1 8 1 0 0
11 2 3 4 3 0 0 0 0 0 0 0 0 0 0 0 0 0 0 0 0 3 4 0 0 0 7 27 11 2 0 0 0 0 0 0 0 0 0 0 0 0 14 0 1 0 0

GFSGBSN_con_mucape_063.txt.gz
CAPE
29 22 23 32 0 10 45 45 61 45 76 94 93 125 126 141 158 165 184 177 130 144 95 85 80 69 58 32 1 37 78 233 343 337 20 14 21 58 49 41 3 0 0 0 1 0 0
16 14 17 30 0 31 42 32 54 56 74 109 137 136 153 159 187 195 196 214 199 150 165 197 139 82 49 10 1 0 61 63 368 341 27 14 27 63 59 47 28 2 0 0 0 0 0
14 18 21 26 0 29 50 67 45 29 62 88 112 98 105 62 29 70 94 82 145 180 197 224 210 144 65 1 19 270 74 75 77 248 25 25 56 107 54 48 46 16 5 0 0 0 0
15 12 12 17 0 44 38 64 36 50 74 97 154 164 176 150 7 12 23 44 39 204 307 289 242 104 54 12 4 13 57 122 53 162 103 56 171 229 119 75 41 29 20 14 0 0 0
11 14 10 18 0 41 31 47 55 54 63 97 106 143 169 182 163 78 2 64 111 214 251 304 250 104 31 129 1 1 62 79 48 273 257 135 297 226 153 84 42 43 0 0 0 0 0
11 14 11 4 0 22 30 49 44 61 72 74 68 102 105 137 184 83 86 96 21 127 261 174 102 106 2 78 59 89 97 68 54 257 140 122 163 113 92 88 0 3 0 0 0 0 0
10 7 12 4 0 26 26 35 47 45 65 60 67 71 36 33 100 48 36 17 80 173 150 79 45 15 60 112 239 224 42 40 145 71 18 90 79 31 0 7 1 7 0 0 0 0 0
7 8 11 4 0 20 15 27 30 28 43 45 53 58 23 18 27 12 20 15 6 23 41 4 25 35 11 0 14 102 12 157 235 31 33 81 28 2 47 37 31 4 10 0 0 0 0
6 0 5 4 0 15 17 15 12 31 31 34 34 32 9 0 0 12 12 6 5 8 31 17 21 16 47 0 0 17 3 17 74 34 37 28 23 0 33 40 12 1 0 0 0 0 0
0 0 0 0 0 12 6 3 0 0 0 0 26 6 0 0 0 2 4 6 3 2 116 6 11 41 70 56 9 25 0 0 31 47 51 23 20 0 9 38 9 0 10 0 0 0 0
0 0 0 0 0 2 11 0 0 0 0 0 0 0 0 0 0 0 0 0 0 0 0 2 0 11 56 0 0 0 0 75 0 10 8 0 0 0 34 56 16 21 4 5 0 0 0
0 0 0 0 0 0 8 0 0 0 0 0 0 0 0 0 0 0 0 0 0 0 0 0 0 0 0 0 0 0 3 0 0 2 0 0 0 0 0 1 6 12 0 0 0 0 0
0 0 0 0 0 0 0 1 0 0 0 0 0 0 0 0 0 0 0 0 4 16 0 1 1 4 17 0 0 0 2 0 0 0 0 0 0 0 4 7 7 10 0 0 0 0 0
0 0 0 0 0 0 0 0 0 0 0 0 0 0 0 0 0 0 0 0 3 0 0 0 0 0 0 0 0 0 0 0 0 0 0 0 0 0 0 0 0 16 0 0 0 0 0
0 0 0 0 0 0 0 0 0 0 0 0 0 0 0 0 0 0 1 0 0 0 0 0 13 0 0 1 0 16 0 0 0 0 0 0 0 0 0 0 0 0 0 0 0 0 0
0 0 0 0 0 0 0 0 0 0 0 0 0 0 0 0 0 0 4 0 0 0 0 0 0 0 0 0 7 9 2 0 0 0 0 0 0 0 0 0 0 0 0 0 0 0 0
0 0 0 0 0 0 0 0 0 0 0 0 0 1 0 0 0 0 0 0 0 0 0 0 0 0 0 0 5 1 0 0 0 0 0 0 0 0 0 0 0 0 0 0 0 0 0
0 0 0 0 0 0 0 0 0 0 0 0 0 2 0 0 0 3 0 0 0 0 0 0 0 0 0 0 4 0 0 2 0 0 0 0 0 0 0 0 0 0 0 0 0 0 0
0 0 0 0 0 0 0 0 0 0 0 0 0 0 0 0 1 10 0 0 0 0 0 0 0 0 0 0 0 0 0 0 0 0 0 0 0 0 0 0 0 0 0 0 0 0 0
0 0 0 0 0 0 0 0 0 0 0 0 0 1 0 0 0 4 2 0 0 0 0 0 0 0 0 0 0 0 0 0 0 0 0 0 0 0 0 0 0 0 0 0 0 0 0
0 0 0 0 0 0 0 0 0 0 0 0 0 0 0 6 3 0 0 0 0 0 0 0 0 0 0 0 0 0 0 0 0 0 0 0 0 0 0 0 0 0 0 0 0 0 0
0 0 0 0 0 0 0 0 0 0 0 0 0 0 0 0 0 0 1 0 0 0 0 0 0 0 0 0 0 0 0 0 0 0 0 0 0 0 0 0 0 0 0 0 0 0 0
0 0 0 0 0 0 0 0 0 0 0 0 0 0 0 0 0 0 8 1 0 0 0 0 0 0 0 0 0 0 0 0 0 0 0 0 0 0 0 0 0 0 0 0 0 0 0
0 0 0 0 0 0 0 0 0 0 0 0 0 0 0 0 0 4 0 0 2 1 0 1 7 0 0 0 0 0 0 0 0 0 0 0 0 0 0 0 0 0 0 0 0 0 0
0 0 0 0 0 0 0 0 0 0 0 0 0 0 0 0 0 0 0 0 3 0 0 0 0 1 0 0 0 0 0 0 0 0 0 0 0 0 0 0 0 0 0 0 0 0 0
4 1 4 0 6 0 0 0 0 0 0 0 0 0 0 0 0 0 0 0 3 12 23 3 0 0 0 36 0 0 0 0 0 0 0 0 0 0 0 0 0 0 0 0 0 6 0
1 0 5 3 7 2 0 0 0 0 0 0 0 0 0 0 0 0 0 0 4 3 12 23 8 2 0 38 0 0 0 0 0 0 0 0 0 0 0 0 0 0 0 0 4 2 0
6 0 3 5 5 0 1 0 0 0 0 0 0 0 0 0 0 0 0 0 5 6 21 17 23 17 36 27 0 0 0 0 0 0 0 0 0 0 0 0 0 0 0 0 9 0 0
2 4 3 1 0 0 0 0 0 0 0 0 0 0 2 0 0 0 0 0 0 4 12 2 14 11 26 34 31 20 0 0 0 0 0 0 0 0 0 0 0 0 1 0 0 8 0

GFSGBSN_con_mucape_066.txt.gz
CAPE
7 12 12 23 0 9 43 58 52 20 19 48 75 108 146 139 130 146 176 163 210 123 118 99 89 74 44 8 0 3 70 27 156 334 83 37 0 16 43 40 7 0 0 0 0 0 0
7 14 8 15 0 32 50 33 38 33 41 61 94 120 154 173 158 33 74 93 148 166 176 143 184 68 1 6 0 0 8 25 82 234 133 12 7 5 3 94 62 1 1 2 0 0 0
0 12 0 5 0 34 36 36 37 33 53 76 78 80 146 180 161 33 29 34 5 69 147 178 209 88 21 0 5 165 76 14 36 97 166 27 5 8 39 57 39 30 8 11 0 0 0
0 12 0 0 0 22 27 22 22 36 43 70 57 76 93 118 157 128 11 20 40 82 235 274 221 65 15 0 0 0 10 6 37 60 203 74 25 161 109 74 50 54 17 28 3 0 0
0 10 0 0 0 19 24 22 28 31 39 55 44 42 39 49 88 136 31 11 80 131 186 243 191 90 1 56 0 0 0 37 46 27 192 248 101 128 111 62 34 38 0 4 1 0 0
0 0 0 0 0 4 19 26 26 28 28 42 51 49 22 28 22 96 31 112 32 52 234 166 98 36 12 5 42 0 141 32 22 107 231 169 72 52 77 56 0 0 0 0 0 0 0
0 0 0 0 0 3 15 14 13 21 28 30 42 34 8 11 27 30 65 148 96 118 71 19 22 24 12 50 147 36 108 63 57 190 222 70 17 0 0 0 0 0 0 0 0 0 0
0 0 0 0 0 0 12 2 0 0 0 0 0 30 20 0 9 9 41 3 4 27 9 5 3 3 68 57 45 94 72 17 57 5 0 47 11 0 13 17 80 8 0 0 2 4 0
0 0 0 0 0 0 11 0 0 0 0 0 0 6 7 2 0 33 0 0 2 0 19 7 27 21 20 11 33 33 25 20 1 0 0 0 4 15 1 0 2 0 0 0 0 0 0
0 0 0 0 0 0 7 0 0 0 0 0 0 0 0 0 0 0 0 0 0 0 0 2 15 5 5 6 46 47 37 9 36 0 34 20 22 0 17 3 9 0 6 10 0 0 0
0 0 0 0 0 0 0 3 0 0 0 0 0 0 0 0 0 0 0 0 0 0 0 2 13 2 2 0 1 9 33 7 8 22 12 1 5 1 4 0 17 0 34 10 0 0 0
0 0 0 0 0 0 0 5 0 0 0 0 0 0 0 7 0 0 0 0 0 0 0 3 5 0 0 0 0 0 2 0 1 0 7 0 14 0 0 0 13 42 23 12 3 19 0
0 0 0 0 0 0 0 0 0 0 0 0 0 0 0 0 0 0 0 0 0 0 0 0 0 3 0 0 0 0 0 0 0 3 0 0 0 0 0 0 0 23 0 0 0 0 0
0 0 0 0 0 0 0 0 0 0 0 0 0 0 0 0 0 0 0 0 0 0 0 0 0 0 0 0 0 0 0 0 0 0 0 0 0 0 0 0 0 0 0 0 0 0 0
0 0 0 0 0 0 0 0 0 0 0 0 0 0 0 0 0 0 0 0 0 0 0 0 0 4 2 0 0 0 0 0 0 0 0 0 0 0 0 0 0 0 0 0 0 0 0
0 0 0 0 0 0 0 0 0 0 0 0 0 0 0 0 0 0 0 0 0 0 0 0 0 0 0 2 1 7 0 0 0 0 0 0 0 0 0 0 0 0 0 0 0 0 0
0 0 0 0 0 0 0 0 0 0 0 0 0 0 0 0 0 0 0 0 0 0 0 0 0 0 0 0 8 0 0 0 0 0 0 0 0 0 0 0 0 0 0 0 0 0 0
0 0 0 0 0 0 0 0 0 0 0 0 0 1 0 0 0 3 0 0 0 0 0 0 0 0 2 0 2 0 0 0 0 0 0 0 0 0 0 0 0 0 0 0 0 0 0
0 0 0 0 0 0 0 0 0 0 0 0 0 0 0 0 10 17 0 0 0 0 0 0 0 0 0 0 0 0 0 0 0 0 0 0 0 0 0 0 0 0 0 0 0 0 0
0 0 0 0 0 0 0 0 0 0 0 0 0 0 0 0 0 1 7 0 0 0 0 0 0 0 0 0 0 0 0 0 0 0 0 0 0 0 0 0 0 0 0 0 0 0 0
0 0 0 0 0 0 0 0 0 0 0 0 0 0 0 3 3 0 1 8 0 0 0 0 0 0 0 0 0 0 0 0 0 0 0 0 0 0 0 0 0 0 0 0 0 0 0
0 0 0 0 0 0 0 0 0 0 0 0 0 0 0 0 0 0 4 11 0 0 0 0 0 0 0 0 0 0 0 0 0 0 0 0 0 0 0 0 0 0 0 0 0 0 0
0 0 0 0 0 0 0 0 0 0 0 0 0 0 0 0 0 0 5 3 8 0 0 0 0 0 0 0 0 0 0 0 0 0 0 0 0 0 0 0 0 0 0 0 0 0 0
0 0 0 0 0 0 0 0 0 0 0 0 0 0 0 0 0 0 0 0 0 13 16 9 0 0 0 0 0 0 0 0 0 0 0 0 0 0 0 0 0 0 0 0 0 0 0
0 0 0 0 4 0 0 0 0 0 0 0 0 0 0 0 0 0 0 0 2 3 5 1 8 1 0 0 0 0 0 0 0 0 0 0 0 0 0 0 0 0 0 0 0 0 0
0 0 0 0 0 0 0 0 0 0 0 0 0 0 0 0 0 0 0 0 0 2 24 17 1 0 0 11 1 0 0 0 0 0 0 0 0 0 0 0 0 0 0 0 0 0 0
2 3 0 0 0 0 0 0 0 0 0 0 0 0 0 0 0 0 0 0 0 8 15 19 0 0 1 18 0 0 0 0 0 0 0 0 0 0 0 0 0 0 0 0 0 0 0
0 1 2 1 0 0 0 0 0 0 0 0 0 0 0 0 0 0 0 0 0 0 0 10 19 5 11 23 7 0 0 0 0 0 0 0 0 0 0 0 0 0 0 1 0 1 0
2 2 5 4 2 0 0 0 0 0 0 0 0 0 0 0 0 0 0 0 0 0 3 14 31 7 34 13 8 0 0 0 0 0 0 0 0 0 0 0 0 0 0 0 3 7 1

GFSGBSN_con_mucape_069.txt.gz
CAPE
0 0 0 0 0 0 21 29 34 32 45 45 61 64 80 99 100 154 43 77 140 158 137 140 111 124 60 15 0 18 5 30 1 262 80 44 0 3 44 35 25 0 0 0 4 6 5
0 0 0 0 0 0 23 23 32 40 45 39 60 57 62 67 110 149 11 2 25 51 157 159 196 120 2 0 0 0 16 15 24 187 60 56 5 9 60 58 24 2 8 15 0 0 1
0 0 0 0 0 0 15 21 32 26 32 28 60 36 26 45 63 107 2 4 30 4 68 178 232 100 70 0 0 34 94 44 27 37 67 51 24 7 1 79 49 48 30 30 0 0 0
0 0 0 0 0 0 15 17 33 26 31 25 48 32 12 36 10 75 63 0 27 39 186 262 244 93 19 0 0 0 0 1 2 28 35 88 46 25 24 36 28 40 13 26 0 0 0
0 0 0 0 0 0 14 17 22 13 26 28 38 20 14 27 26 71 74 6 90 125 153 190 134 88 6 48 0 0 0 8 7 38 59 179 65 20 71 50 33 29 0 0 0 0 0
0 0 0 0 0 0 11 3 0 0 0 0 24 17 2 8 4 8 13 39 45 14 117 192 73 11 1 6 18 1 47 6 4 19 94 168 61 20 43 15 0 6 0 0 0 0 0
0 0 0 0 0 0 5 0 0 0 0 0 0 10 0 0 0 3 0 0 0 0 9 9 6 0 0 40 83 29 117 12 11 9 95 52 15 0 0 1 4 0 3 0 0 0 0
0 0 0 0 0 0 0 2 0 0 0 0 0 0 6 0 0 0 0 0 0 0 0 9 18 26 19 3 54 105 17 10 14 1 1 34 0 0 0 0 5 3 0 0 0 0 0
0 0 0 0 0 0 0 11 0 0 0 0 0 0 0 0 0 0 0 0 0 0 0 1 3 21 8 5 15 0 0 2 6 0 2 0 0 0 14 4 17 11 0 0 0 0 1
0 0 0 0 0 0 0 6 0 0 0 0 0 0 0 0 0 0 0 0 0 0 0 0 0 13 5 0 2 27 28 10 1 0 11 3 12 7 3 5 8 0 0 0 0 6 0
0 0 0 0 0 0 0 0 0 0 0 0 0 0 0 0 0 0 0 0 0 0 0 0 0 2 46 6 0 44 47 3 17 10 0 0 26 4 5 1 0 1 1 5 0 0 0
0 0 0 0 0 0 0 0 0 0 0 0 0 0 0 0 0 0 0 0 0 0 0 0 6 0 0 0 0 32 2 2 5 0 0 0 12 30 21 2 9 16 1 2 3 0 0
0 0 0 0 0 0 0 0 0 0 0 0 0 0 0 0 0 0 0 0 0 0 0 0 0 0 0 0 0 3 6 0 2 0 0 4 0 0 0 1 3 10 8 0 0 0 0
0 0 0 0 0 0 0 0 0 0 0 0 0 0 0 0 0 0 0 0 0 0 0 0 0 0 0 0 0 0 1 0 0 0 0 0 0 0 0 0 0 2 0 0 0 0 0
0 0 0 0 0 0 0 0 0 0 0 0 0 0 0 0 0 0 0 0 0 0 0 0 0 0 0 0 1 0 0 0 0 0 0 0 0 0 0 0 0 0 0 0 0 0 0
0 0 0 0 0 0 0 0 0 0 0 0 0 0 0 0 0 0 0 0 0 0 0 0 0 0 0 0 3 0 0 0 0 0 0 0 0 0 0 0 0 0 0 0 0 0 0
0 0 0 0 0 0 0 0 0 0 0 0 0 0 0 0 0 0 0 0 0 0 0 0 0 0 0 0 0 0 0 0 0 0 0 0 0 0 0 0 0 0 0 0 0 0 0
0 0 0 0 0 0 0 0 0 0 0 0 0 0 0 0 0 0 0 0 0 0 0 0 0 0 0 0 0 0 0 0 0 0 0 0 0 0 0 0 0 0 0 0 0 0 0
0 0 0 0 0 0 0 0 0 0 0 0 0 0 0 0 0 0 0 0 0 0 0 0 0 0 0 0 0 0 0 0 0 0 0 0 0 0 0 0 0 0 0 0 0 0 0
0 0 0 0 0 0 0 0 0 0 0 0 0 0 0 0 0 0 0 0 0 0 0 0 0 0 0 0 0 0 0 0 0 0 0 0 0 0 0 0 0 0 0 0 0 0 0
0 0 0 0 0 0 0 0 0 0 0 0 0 0 0 0 0 0 0 0 0 0 0 0 0 0 0 0 0 0 0 0 0 0 0 0 0 0 0 0 0 0 0 0 0 0 0
0 0 0 0 0 0 0 0 0 0 0 0 0 0 0 0 0 0 0 0 3 1 0 0 0 0 0 0 0 0 0 0 0 0 0 0 0 0 0 0 0 0 0 0 0 0 0
0 0 0 0 0 0 0 0 0 0 0 0 0 0 0 0 0 0 0 0 1 4 1 4 0 0 0 0 0 0 0 0 0 0 0 0 0 0 0 0 0 0 0 0 0 0 0
0 0 0 0 0 0 0 0 0 0 0 0 0 0 0 0 0 0 0 0 0 7 11 5 14 5 5 8 3 0 0 0 0 0 0 0 0 0 0 0 0 0 0 0 0 0 0
0 0 0 0 0 0 0 0 0 0 0 0 0 0 0 0 0 0 0 0 0 0 0 0 7 13 2 0 0 0 0 0 0 0 0 0 0 0 0 0 0 0 0 0 0 0 0
0 0 0 0 0 0 0 0 0 0 0 0 0 0 0 0 0 0 0 0 0 0 0 2 28 27 6 16 16 0 0 0 0 0 0 0 0 0 0 0 0 0 0 0 0 0 0
10 3 3 3 1 0 0 1 0 0 0 0 0 0 0 0 0 0 0 0 0 0 0 0 37 29 4 17 45 0 0 0 0 0 0 0 0 0 0 0 0 0 0 0 0 0 0
18 11 2 1 1 0 0 0 0 0 0 0 0 0 0 0 0 0 0 0 0 0 0 0 0 4 3 7 7 6 0 0 0 0 0 0 0 0 0 0 0 0 0 1 0 0 0
18 19 11 10 13 2 2 0 0 0 0 0 0 0 0 0 0 0 0 0 0 0 0 0 0 0 1 0 8 4 0 0 0 0 0 0 0 0 0 0 0 0 0 0 0 2 2

GFSGBSN_con_mucape_072.txt.gz
CAPE
0 0 0 0 0 0 16 29 40 40 42 58 42 41 30 39 64 133 33 11 32 91 115 132 125 160 94 1 2 12 20 48 93 9 87 38 0 53 61 59 71 14 0 0 45 13 0
0 0 9 0 0 0 18 25 28 42 37 38 27 30 19 42 39 70 0 0 10 35 114 176 222 145 27 0 7 26 41 10 13 47 73 57 0 11 54 85 88 19 8 0 0 0 5
0 0 0 16 0 0 19 0 2 27 33 35 37 24 18 36 11 31 0 0 33 14 100 181 252 104 39 0 10 27 8 20 39 84 72 52 8 22 10 49 89 29 41 4 0 0 0
0 0 0 13 0 0 15 0 0 16 17 29 24 28 10 25 41 24 0 0 12 27 142 221 218 96 0 0 1 9 14 5 3 28 62 71 25 1 0 43 68 49 25 0 0 0 0
0 0 0 0 0 0 6 0 0 0 0 26 22 24 18 15 3 10 0 0 3 28 75 128 120 3 0 1 0 0 0 1 4 0 31 67 44 11 18 38 55 46 0 0 0 0 0
0 0 0 0 0 0 0 3 0 0 0 0 20 10 20 6 1 5 0 0 0 0 0 23 17 0 0 0 0 36 57 34 29 80 17 55 52 14 1 8 0 0 0 0 0 0 0
0 0 0 0 0 0 0 10 0 0 0 0 0 0 7 5 0 0 0 0 0 0 0 0 0 0 0 7 12 56 72 1 18 17 0 69 0 0 0 16 0 0 0 0 0 0 0
0 0 0 0 0 0 0 11 0 0 0 0 0 0 0 1 0 0 0 0 0 0 0 0 11 13 1 7 32 8 1 0 25 0 38 46 0 0 0 24 3 0 0 0 0 0 0
0 0 0 0 0 0 0 7 0 0 0 0 0 0 0 0 0 0 0 0 0 0 0 0 5 10 4 28 5 1 4 4 2 12 9 3 0 0 1 16 11 0 0 0 0 0 0
0 0 0 0 0 0 0 0 0 0 0 0 0 0 0 0 0 0 0 0 0 0 0 0 0 10 34 4 44 22 62 17 0 0 10 0 0 0 16 3 10 12 0 0 0 0 0
0 0 0 0 0 0 0 0 0 0 0 0 0 0 0 0 0 0 0 0 0 0 0 0 0 22 45 11 19 2 16 28 0 0 0 0 1 0 33 0 6 6 1 0 0 0 0
0 0 0 0 0 0 0 0 0 0 0 0 0 0 0 0 0 0 0 0 0 0 0 0 0 0 17 8 19 0 22 11 4 0 0 1 18 13 3 14 16 10 5 3 2 4 0
0 0 0 0 0 0 0 0 0 0 0 0 0 0 0 0 0 0 0 0 0 0 0 0 0 0 59 20 24 0 5 13 0 0 0 0 3 3 6 3 16 25 9 0 0 0 0
0 0 0 0 0 0 0 0 0 0 0 0 0 0 0 0 0 0 0 0 0 0 0 0 0 0 0 2 0 0 0 0 0 0 0 0 0 0 0 0 0 4 8 0 0 0 0
0 0 0 0 0 0 0 0 0 0 0 0 0 0 0 0 0 0 0 0 0 0 0 0 0 0 0 0 3 0 0 0 0 0 0 0 0 0 0 0 0 1 0 0 0 0 0
0 0 0 0 0 0 0 0 0 0 0 0 0 0 0 0 0 0 0 0 0 0 0 0 0 0 0 0 0 0 0 0 0 0 0 0 0 0 0 0 0 1 0 0 0 0 0
0 0 0 0 0 0 0 0 0 0 0 0 0 0 0 0 0 0 0 0 0 0 0 0 0 0 0 0 0 0 0 0 0 0 1 0 0 0 0 0 1 0 0 0 0 0 0
0 0 0 0 0 0 0 0 0 0 0 0 0 0 0 0 0 0 0 0 0 0 0 0 0 0 0 0 0 0 0 0 0 0 0 0 0 0 0 0 0 0 0 0 0 0 0
0 0 0 0 0 0 0 0 0 0 0 0 0 0 0 0 0 0 0 0 0 0 0 0 0 0 0 0 0 0 0 0 0 0 0 0 0 0 0 0 0 0 0 0 0 0 0
0 0 0 0 0 0 0 0 0 0 0 0 0 0 0 0 0 0 0 0 0 0 0 0 0 0 0 0 0 0 0 0 0 0 0 0 0 0 0 0 0 0 0 0 0 0 0
0 0 0 0 0 0 0 0 0 0 0 0 0 0 0 0 0 0 0 0 0 0 0 0 0 0 0 0 0 0 0 0 0 0 0 0 0 0 0 0 0 0 0 0 0 0 0
0 0 0 0 0 0 0 0 0 0 0 0 0 0 0 0 0 0 0 0 0 0 1 0 0 0 0 0 0 0 0 0 0 0 0 0 0 0 0 0 0 0 0 0 0 0 0
0 0 0 0 0 0 0 0 0 0 0 0 0 0 0 0 0 0 0 0 1 5 0 9 8 0 0 0 0 1 0 0 0 0 0 0 0 0 0 0 0 0 0 0 0 0 0
0 0 0 0 0 0 0 0 0 0 0 0 0 0 0 0 0 0 0 0 0 0 0 0 7 11 0 4 5 7 0 0 0 0 0 0 0 0 0 0 0 0 0 0 0 0 0
0 0 0 0 0 0 0 0 0 0 0 0 0 0 0 0 0 0 0 0 0 0 0 0 0 5 22 12 0 0 0 0 0 0 0 0 0 0 0 0 0 0 0 0 0 0 0
0 1 0 1 0 0 0 0 0 0 0 0 0 0 0 0 0 0 0 0 0 0 0 0 31 26 28 15 15 0 0 0 0 0 0 0 0 0 0 0 0 0 0 0 0 0 0
3 16 8 0 2 0 0 0 0 0 0 0 0 0 0 0 0 0 0 0 0 0 0 0 0 17 30 0 10 0 0 0 0 0 0 0 0 0 0 0 0 0 0 0 0 0 0
23 23 21 5 0 0 0 0 0 0 0 0 0 0 0 0 0 0 0 0 0 0 0 0 0 0 10 0 0 17 0 0 0 0 0 0 0 0 0 0 0 0 0 0 0 0 0
21 23 20 13 17 14 12 0 3 3 2 0 0 0 0 0 0 0 0 0 0 0 0 0 0 0 12 0 1 1 0 0 0 0 0 0 0 0 0 0 0 0 0 0 0 4 6

GFSGBSN_con_mucape_075.txt.gz
CAPE
0 0 4 3 0 0 12 0 19 19 31 28 35 26 34 36 26 30 0 0 9 35 58 96 84 169 48 0 0 14 24 0 28 65 54 11 1 27 38 51 85 11 0 0 3 0 0
0 0 5 0 0 0 12 0 0 13 23 23 34 18 18 21 20 3 2 1 6 37 109 179 188 82 14 0 0 1 13 53 122 50 11 33 0 43 46 63 94 40 18 7 0 0 0
0 0 6 0 0 0 5 0 0 0 0 18 26 18 15 16 5 2 0 3 7 29 113 184 230 107 21 0 2 0 3 35 48 44 10 67 5 46 12 46 69 68 18 1 0 0 0
0 0 5 0 0 0 0 11 0 0 0 0 23 12 22 17 4 0 0 0 0 17 86 155 142 50 0 0 18 0 3 18 28 57 54 64 36 39 30 5 67 58 27 0 0 0 0
0 0 5 0 0 0 0 12 0 0 0 0 2 0 11 19 16 2 0 0 0 0 23 49 24 0 0 1 1 2 1 0 6 53 54 72 41 17 35 28 41 24 0 0 0 0 0
0 0 0 0 0 0 0 11 0 0 0 0 0 0 0 4 10 2 0 0 0 0 0 0 0 0 0 0 0 43 35 40 51 90 58 88 42 2 15 23 0 0 0 0 0 0 0
0 0 0 0 0 0 0 12 0 0 0 0 0 0 0 0 1 0 0 0 0 0 0 0 11 0 1 17 5 40 35 20 49 46 0 35 0 0 0 7 0 3 0 0 0 0 0
0 0 0 4 0 0 0 6 0 0 0 0 0 0 0 0 0 0 0 0 0 0 0 0 0 3 2 6 6 3 4 0 15 0 0 0 0 0 1 9 3 0 0 0 0 3 32
0 0 0 1 0 0 0 0 4 0 0 0 0 0 0 0 0 0 0 0 0 0 0 0 5 13 9 11 3 0 10 32 0 0 0 0 0 0 11 22 3 1 0 0 0 1 10
0 0 0 0 0 0 0 0 0 0 0 0 0 0 0 0 0 0 0 0 0 0 0 0 2 6 40 6 6 7 49 27 0 0 0 0 9 0 4 3 17 14 1 0 0 0 0
0 0 0 0 0 0 0 0 0 0 0 0 0 0 0 0 0 0 0 0 0 0 0 0 1 37 24 19 2 29 26 58 0 0 12 0 0 0 0 0 17 12 19 19 2 0 0
0 0 0 0 0 0 0 0 0 0 0 0 0 0 0 0 0 0 0 0 0 0 0 0 7 13 28 37 38 15 16 15 19 1 0 0 0 0 0 0 19 5 7 10 6 0 0
0 0 0 0 0 0 0 0 0 0 0 0 0 0 0 0 0 0 0 0 0 0 0 0 0 0 0 0 0 0 0 0 0 0 0 0 0 1 0 2 7 15 2 0 0 0 0
0 0 0 0 0 0 0 0 0 0 0 0 0 0 0 0 0 0 0 0 0 0 0 0 0 0 0 0 0 8 33 0 0 0 0 0 0 0 0 0 0 11 2 0 0 0 0
0 0 0 0 0 0 0 0 0 0 0 0 0 0 0 0 0 0 0 0 0 0 0 0 0 0 0 3 0 0 8 0 0 0 0 0 0 0 0 0 0 9 0 0 0 0 0
0 0 0 0 0 0 0 0 0 0 0 0 0 0 0 0 0 0 0 0 0 0 0 0 0 0 0 0 0 0 0 0 0 0 0 0 0 0 0 0 1 0 0 0 0 0 0
0 0 0 0 0 0 0 0 0 0 0 0 0 0 0 0 0 0 0 0 0 0 0 0 0 0 0 0 0 0 0 0 0 0 0 0 0 0 0 0 0 0 0 0 0 0 0
0 0 0 0 0 0 0 0 0 0 0 0 0 0 0 0 0 0 0 0 0 0 0 0 0 0 0 2 0 0 0 0 0 0 0 0 0 0 0 0 0 0 0 0 0 0 0
0 0 0 0 0 0 0 0 0 0 0 0 0 0 0 0 0 0 0 0 0 0 0 0 0 0 0 0 0 0 0 0 0 0 0 0 0 0 0 0 0 0 0 0 0 0 0
0 0 0 0 0 0 0 0 0 0 0 0 0 0 0 0 0 0 0 0 0 0 0 0 0 0 0 0 0 0 0 0 0 0 0 0 0 0 0 0 0 0 0 0 0 0 0
0 0 0 0 0 0 0 0 0 0 0 0 0 0 0 0 0 0 0 0 0 0 0 0 0 0 0 0 0 0 0 0 0 0 0 3 0 0 0 0 0 0 0 0 0 0 0
0 0 0 0 0 0 0 0 0 0 0 0 0 0 0 0 0 0 0 0 0 0 0 0 0 0 0 0 0 0 0 0 0 0 0 0 0 0 0 0 0 0 0 0 0 0 0
0 0 0 0 0 0 0 0 0 0 0 0 0 0 0 0 0 0 0 0 0 0 0 6 8 3 3 0 1 5 1 0 1 0 0 0 0 0 0 0 0 0 0 0 0 0 0
0 0 0 0 0 0 0 0 0 0 0 0 0 0 0 0 0 0 0 0 0 0 0 0 31 33 1 11 24 17 10 1 0 0 0 0 0 0 0 0 0 0 0 0 0 0 0
0 0 0 0 0 0 0 0 0 0 0 0 0 0 0 0 0 0 0 0 0 0 0 0 0 0 2 0 11 0 0 0 0 0 0 0 0 0 0 0 0 0 0 0 0 0 0
0 0 0 0 0 0 0 0 0 0 0 0 0 0 0 0 0 0 0 0 0 0 0 0 12 1 43 0 0 0 0 0 0 0 0 0 0 0 0 0 0 0 0 0 0 0 0
0 0 0 0 0 0 0 0 0 0 0 0 0 0 0 0 0 0 0 0 0 0 0 0 0 0 34 10 8 0 0 0 0 0 0 0 0 0 0 0 0 0 0 0 0 0 0
6 12 5 12 6 0 0 0 0 0 0 0 0 0 0 0 0 0 0 0 0 0 0 0 0 1 0 22 5 15 0 0 0 0 0 0 0 0 0 0 0 0 0 0 0 0 0
9 19 14 12 16 14 0 0 0 0 0 0 0 0 0 0 0 0 0 0 0 0 0 0 0 0 0 1 0 2 3 0 0 0 0 0 0 0 0 0 0 0 0 0 0 0 0

GFSGBSN_con_mucape_078.txt.gz
CAPE
0 0 10 0 0 0 3 14 0 0 27 21 25 11 11 28 10 1 0 2 4 14 94 149 129 164 15 0 0 21 13 4 31 63 13 25 34 2 30 38 26 14 31 17 10 15 26
0 0 12 0 0 0 0 11 0 0 11 13 21 7 16 21 12 3 0 2 1 12 86 189 212 81 2 0 8 16 12 8 69 91 72 37 16 0 37 39 39 21 20 47 34 9 9
0 0 9 0 0 0 0 8 0 0 0 7 14 6 20 9 10 3 0 0 0 0 51 148 194 84 0 0 1 3 0 0 42 88 58 57 13 33 36 45 59 36 24 3 2 3 3
0 0 6 4 0 0 0 8 0 0 0 0 0 0 7 15 13 9 0 0 0 0 6 95 103 6 0 23 16 0 1 22 23 131 121 101 12 37 38 7 56 68 41 17 1 0 0
0 0 3 8 0 0 0 9 0 0 0 0 0 0 0 4 7 2 3 0 0 0 0 0 0 0 0 3 6 10 20 0 23 123 105 115 37 27 14 36 43 41 0 13 11 0 1
0 0 2 4 0 0 0 2 0 0 0 0 0 0 0 0 2 1 0 0 0 0 0 0 0 0 0 0 12 4 34 24 29 85 47 34 25 12 7 20 0 0 0 11 9 0 12
0 0 0 3 0 0 0 0 8 0 0 0 0 0 0 0 0 0 0 0 0 0 0 0 0 0 0 16 31 18 28 0 28 21 0 0 14 0 1 15 0 6 7 2 1 10 9
0 0 0 1 0 0 0 0 0 6 0 0 0 0 0 0 0 0 0 0 0 0 0 2 0 0 12 17 0 0 9 0 0 0 0 0 0 0 0 21 4 0 0 0 0 12 0
0 0 0 0 0 0 0 0 0 0 5 0 0 0 0 0 1 0 0 0 0 0 0 0 6 6 7 7 0 0 24 11 0 0 0 1 0 0 13 21 9 0 0 0 0 11 20
0 0 0 0 0 0 0 0 0 0 0 0 0 0 0 0 0 0 0 0 0 0 0 0 7 6 21 3 0 6 27 4 0 0 0 1 0 0 2 22 10 0 0 0 8 1 0
0 0 0 0 0 0 0 0 0 0 0 0 0 0 0 0 0 0 0 0 0 0 0 0 9 33 29 0 0 0 13 20 0 0 0 0 0 0 0 11 12 0 0 0 0 8 3
0 0 0 0 0 0 0 0 0 0 0 0 0 0 0 0 0 0 0 0 0 0 0 0 0 39 37 16 22 7 1 2 0 0 0 0 0 0 0 8 32 18 2 0 0 1 0
0 0 0 0 0 0 0 0 0 0 0 0 0 0 0 0 0 0 0 0 0 0 0 0 0 0 10 9 1 5 0 0 0 0 0 0 0 3 0 5 27 32 18 0 0 0 0
0 0 0 0 0 0 0 0 0 0 0 0 0 0 0 0 0 0 0 0 0 0 0 0 0 0 0 9 1 0 0 0 0 0 0 0 0 2 0 0 0 13 5 0 0 0 0
0 0 0 0 0 0 0 0 0 0 0 0 0 0 0 0 0 0 0 0 0 0 0 0 0 0 0 19 1 0 0 0 0 0 2 0 0 0 0 5 0 0 0 0 0 0 0
0 0 0 0 0 0 0 0 0 0 0 0 0 0 0 0 0 0 0 0 0 0 0 0 0 0 0 0 0 0 0 0 0 0 0 0 0 0 0 3 0 0 0 0 0 0 0
0 0 0 0 0 0 0 0 0 0 0 0 0 0 0 0 0 0 0 0 0 0 0 0 0 0 0 0 0 0 0 0 0 0 0 0 0 0 0 0 0 0 0 0 0 0 0
0 0 0 0 0 0 0 0 0 0 0 0 0 0 0 0 0 0 0 0 0 0 0 0 0 0 0 0 0 0 0 0 0 0 0 0 0 0 0 0 0 0 0 0 0 0 0
0 0 0 0 0 0 0 0 0 0 0 0 0 0 0 0 0 0 0 0 0 0 0 0 0 0 0 0 0 0 0 0 0 0 0 0 0 0 0 0 0 0 0 0 0 0 0
0 0 0 0 0 0 0 0 0 0 0 0 0 0 0 0 0 0 0 0 0 0 0 0 0 0 0 0 0 0 0 0 0 0 0 0 0 0 0 0 0 0 0 0 0 0 0
0 0 0 0 0 0 0 0 0 0 0 0 0 0 0 0 0 0 0 0 0 0 0 0 0 0 0 0 0 0 0 0 0 0 0 0 0 0 0 0 0 0 0 0 0 0 0
0 0 0 0 0 0 0 0 0 0 0 0 0 0 0 0 0 0 0 0 0 0 0 1 4 9 8 4 2 2 0 0 0 0 0 5 0 0 0 0 0 0 0 0 0 0 0
0 0 0 0 0 0 0 0 0 0 0 0 0 0 0 0 0 0 0 0 0 0 0 0 6 24 21 23 7 17 9 4 1 0 0 0 0 0 0 0 0 0 0 0 0 0 0
0 0 0 0 0 0 0 0 0 0 0 0 0 0 0 0 0 0 0 0 0 0 0 0 0 15 10 11 21 14 18 16 9 9 0 0 0 0 0 0 0 0 0 0 0 0 0
0 0 0 0 0 0 0 0 0 0 0 0 0 0 0 0 0 0 0 0 0 0 0 0 0 0 0 18 14 1 1 0 0 0 0 0 0 0 0 0 0 0 0 0 0 0 0
0 0 0 0 0 0 0 0 0 0 0 0 0 0 0 0 0 0 0 0 0 0 0 0 0 0 0 38 40 84 9 0 0 0 0 0 0 0 0 0 0 0 0 0 0 0 0
0 0 0 0 0 0 0 0 0 0 0 0 0 0 0 0 0 0 0 0 0 0 0 0 0 0 0 7 21 8 12 1 0 0 0 0 0 0 0 0 0 0 0 0 0 0 0
0 0 0 0 0 0 0 0 0 0 0 0 0 0 0 0 0 0 0 0 0 0 0 0 0 0 0 4 33 5 0 1 0 0 0 0 0 0 0 0 0 0 0 0 0 0 0
0 0 0 0 4 8 0 0 0 0 0 0 0 0 0 0 0 0 0 0 0 0 0 0 0 0 0 0 0 0 1 1 0 0 0 0 0 0 0 0 0 0 0 0 0 0 0

GFSGBSN_con_mucape_081.txt.gz
CAPE
0 2 6 8 0 0 0 9 0 0 8 18 28 4 11 7 12 5 2 6 9 2 49 99 87 53 1 0 0 18 27 10 26 74 60 70 25 2 10 40 22 39 57 52 26 0 0
0 1 4 8 0 0 0 11 0 0 0 15 20 12 25 4 10 9 4 2 1 3 25 87 118 51 0 0 0 6 9 0 44 85 59 44 56 1 4 66 24 8 59 54 34 0 0
0 0 3 6 6 0 0 10 0 0 0 0 20 0 1 24 15 12 6 1 0 0 6 85 100 0 0 0 0 2 2 0 53 114 54 67 21 44 28 68 42 4 55 65 18 1 2
0 0 3 5 6 0 0 0 10 0 0 0 11 12 0 0 15 9 9 0 0 0 0 63 33 0 1 4 14 0 0 0 54 131 111 138 28 32 56 21 45 49 37 16 5 3 0
0 0 1 4 6 0 0 0 1 3 0 0 0 12 0 0 5 6 0 0 0 0 0 0 0 0 0 0 4 9 27 0 23 96 86 83 20 21 45 55 40 31 0 0 2 0 0
0 0 0 3 4 7 0 0 0 6 3 0 0 0 0 0 0 4 0 0 0 0 0 0 0 0 0 12 40 24 17 5 9 75 53 23 19 12 32 27 0 0 0 2 0 0 0
0 0 0 1 4 6 0 0 0 0 0 0 0 0 0 0 1 2 0 0 0 0 0 0 0 0 7 7 8 17 0 0 0 44 0 3 0 0 0 42 0 3 0 0 1 2 0
0 0 0 0 3 0 4 0 0 0 0 0 0 0 0 0 0 0 0 0 0 0 0 0 1 1 10 6 0 0 2 0 5 0 9 0 0 0 2 12 20 11 8 0 3 4 3
0 0 0 0 0 0 0 0 0 0 0 0 0 0 0 0 0 0 0 0 0 0 0 0 2 0 0 0 0 12 1 0 0 0 0 0 1 0 10 24 23 27 0 0 1 2 8
0 0 0 0 0 0 0 0 0 0 0 0 0 0 0 0 0 0 0 0 0 0 0 0 17 3 0 0 0 34 30 0 0 0 3 1 0 0 4 25 8 0 0 0 0 2 0
0 0 0 0 0 0 0 0 0 0 0 0 0 0 0 0 0 0 0 0 0 0 0 0 23 11 0 0 0 0 3 2 0 0 0 0 0 0 0 0 0 0 0 0 0 0 0
0 0 0 0 0 0 0 0 0 0 0 0 0 0 0 0 0 0 0 0 0 0 0 0 5 22 2 2 0 0 0 0 0 0 0 0 0 0 0 23 18 7 4 7 2 0 0
0 0 0 0 0 0 0 0 0 0 0 0 0 0 0 0 0 0 0 0 0 0 0 0 0 4 5 0 0 0 0 0 0 0 0 0 0 0 0 0 47 32 17 0 0 0 0
0 0 0 0 0 0 0 0 0 0 0 0 0 0 0 0 0 0 0 0 0 0 0 0 0 0 0 0 0 0 0 0 0 0 0 0 0 0 0 0 0 0 0 0 0 0 0
0 0 0 0 0 0 0 0 0 0 0 0 0 0 0 0 0 0 0 0 0 0 0 0 0 0 0 13 1 0 0 0 0 0 0 0 0 0 0 0 0 0 0 0 0 0 0
0 0 0 0 0 0 0 0 0 0 0 0 0 0 0 0 0 0 0 0 0 0 0 0 0 0 0 0 4 3 0 0 0 0 0 0 0 0 0 1 0 0 0 0 0 0 0
0 0 0 0 0 0 0 0 0 0 0 0 0 0 0 0 0 0 0 0 0 0 0 0 0 0 0 0 0 0 0 0 0 0 0 0 0 0 0 0 0 0 0 0 0 0 0
0 0 0 0 0 0 0 0 0 0 0 0 0 0 0 0 0 0 0 0 0 0 0 0 0 0 0 0 4 0 0 0 0 0 0 0 0 0 0 0 0 3 0 0 0 0 0
0 0 0 0 0 0 0 0 0 0 0 0 0 0 0 0 0 0 0 0 0 0 0 0 0 0 0 0 0 0 0 0 0 0 0 0 0 0 0 0 0 0 0 0 0 0 0
0 0 0 0 0 0 0 0 0 0 0 0 0 0 0 0 0 0 0 0 0 0 0 0 0 0 0 0 4 0 0 0 0 0 0 0 0 0 0 0 0 0 0 0 0 0 0
0 0 0 0 0 0 0 0 0 0 0 0 0 0 0 0 0 0 0 0 0 0 0 0 3 5 6 1 4 1 0 0 0 0 10 0 0 0 0 0 0 0 0 0 0 0 0
0 0 0 0 0 0 0 0 0 0 0 0 0 0 0 0 0 0 0 0 0 0 0 0 0 0 24 23 40 9 6 0 0 0 0 13 0 0 0 0 0 0 0 0 0 0 0
0 0 0 0 0 0 0 0 0 0 0 0 0 0 0 0 0 0 0 0 0 0 0 0 0 0 0 0 4 26 33 11 20 0 0 0 0 0 0 0 0 0 0 0 0 0 0
14 0 0 0 0 0 0 0 0 0 0 0 0 0 0 0 0 0 0 0 0 0 0 0 0 0 0 0 0 8 8 12 11 0 3 0 0 0 0 0 0 0 0 0 0 0 0
11 0 0 0 0 0 0 0 0 0 0 0 0 0 0 0 0 0 0 0 0 0 0 0 0 0 0 0 0 1 21 8 13 2 6 8 0 0 0 0 0 0 0 0 0 0 0
9 0 0 0 0 0 0 0 0 0 0 0 0 0 0 0 0 0 0 0 0 0 0 0 0 0 0 0 0 0 0 0 5 10 7 0 2 0 0 0 0 0 0 0 0 0 0
10 0 0 0 0 0 0 0 0 0 0 0 0 0 0 0 0 0 0 0 0 0 0 0 0 0 0 0 0 0 0 0 17 0 0 0 0 0 0 0 0 0 0 0 0 0 0
7 0 0 0 0 0 0 0 0 0 0 0 0 0 0 0 0 0 0 0 0 0 0 0 0 0 0 0 0 1 3 16 3 0 0 0 0 0 0 0 0 0 0 0 0 0 0
5 0 0 0 0 0 0 0 0 0 0 0 0 0 0 0 0 0 0 0 0 0 0 0 0 0 0 0 0 0 0 0 0 0 0 0 0 0 0 0 0 0 0 0 0 0 0

GFSGBSN_con_mucape_084.txt.gz
CAPE
0 1 3 4 5 2 0 8 11 0 0 22 23 18 26 17 5 4 3 1 2 3 37 78 106 87 14 0 11 2 34 2 15 41 62 69 83 38 4 25 88 84 123 95 42 29 34
0 0 3 2 6 4 0 0 12 0 0 5 23 19 3 26 16 7 1 1 0 0 0 102 127 31 0 3 4 2 3 0 7 81 86 48 74 20 45 90 101 11 121 132 49 31 13
0 0 2 2 4 6 0 0 0 10 0 0 17 23 13 1 20 9 11 0 0 0 0 96 90 0 42 14 3 2 0 3 9 90 84 55 47 80 37 114 61 54 88 129 74 69 52
0 0 0 2 3 5 1 0 0 0 6 0 1 0 0 0 9 8 5 0 0 0 0 1 37 0 34 0 33 16 11 3 80 108 55 63 44 60 84 66 103 75 53 87 99 47 25
0 0 0 2 3 3 7 1 0 0 0 6 0 0 0 0 7 6 1 0 0 0 0 0 0 0 0 10 21 2 14 1 81 99 80 53 56 45 80 129 118 97 25 30 72 54 32
0 0 0 0 2 3 5 7 0 0 0 0 0 0 0 0 0 3 0 0 0 0 0 0 0 0 0 22 7 4 14 4 66 86 54 24 61 90 86 122 0 14 36 33 27 4 0
0 0 0 0 2 2 4 5 0 0 0 0 0 0 0 0 0 2 0 0 0 0 0 0 1 0 6 18 6 15 6 2 55 51 0 2 0 0 5 73 13 37 42 42 20 2 8
0 0 0 0 0 1 2 1 0 0 0 0 0 0 0 0 0 0 0 0 0 0 0 1 2 5 0 0 0 22 0 0 0 0 0 0 0 6 8 29 6 24 26 0 0 0 18
0 0 0 0 0 0 1 0 2 0 0 0 0 0 0 0 0 0 0 0 0 0 0 3 7 0 0 0 1 25 18 0 0 0 0 0 0 18 18 14 18 13 0 0 0 0 23
0 0 0 0 0 0 0 0 0 0 0 0 0 0 0 0 0 0 0 0 0 0 0 0 6 5 0 0 9 21 25 0 0 0 0 0 0 0 30 0 11 0 0 0 1 16 0
1 0 0 0 0 0 0 0 0 0 0 0 0 0 0 0 0 0 0 0 0 0 0 0 14 19 0 0 0 0 27 13 0 0 0 0 0 0 0 9 19 14 0 11 10 40 20
1 0 0 0 0 0 0 0 0 0 2 0 0 0 0 0 0 0 0 0 0 0 0 0 7 23 3 0 0 0 0 4 8 0 0 1 0 0 1 19 15 6 6 6 6 24 0
1 0 0 0 0 0 0 0 0 4 1 0 0 0 0 0 0 0 0 0 0 0 0 0 0 2 0 0 0 0 0 0 0 0 0 0 0 0 0 60 36 55 62 0 0 0 0
0 0 0 0 0 0 0 0 0 0 0 0 0 0 0 0 0 0 0 0 0 0 0 0 0 0 0 0 0 0 0 0 0 0 1 2 0 0 0 10 24 25 27 0 0 0 0
0 0 0 0 0 0 0 0 0 0 0 0 0 0 0 0 0 0 0 0 0 0 0 0 0 0 0 0 9 0 0 0 0 0 33 14 0 0 0 0 16 0 1 0 0 0 0
6 1 0 0 0 0 0 0 0 0 0 0 0 0 0 0 0 0 0 0 0 0 0 0 0 0 0 0 0 2 0 0 0 0 0 0 0 0 0 0 0 0 0 0 0 0 0
0 6 0 0 0 0 0 0 0 0 0 0 0 0 0 0 0 0 0 0 0 0 0 0 0 0 0 1 0 0 0 0 0 0 0 0 0 0 0 0 0 0 0 0 0 0 0
3 4 1 0 0 0 0 0 0 0 0 0 0 0 0 0 0 0 0 0 0 0 0 0 0 0 0 0 17 0 0 0 0 0 0 0 0 0 0 0 0 0 0 0 0 0 0
43 27 0 0 0 0 0 0 0 0 0 0 0 0 0 0 0 0 0 0 0 0 0 0 0 0 0 0 0 10 9 0 0 2 0 0 0 0 0 0 0 0 0 0 0 0 0
15 21 0 0 0 0 0 0 0 0 0 0 0 0 0 0 0 0 0 0 0 0 0 0 0 0 0 0 4 15 12 3 2 0 0 0 0 0 0 0 0 0 0 0 0 0 0
39 19 0 0 0 0 0 0 0 0 0 0 0 0 0 0 0 0 0 0 0 0 0 0 0 0 0 0 0 28 22 15 7 3 8 5 0 0 0 0 0 0 0 0 0 0 0
21 27 0 0 0 0 0 0 0 0 0 0 0 0 0 0 0 0 0 0 0 0 0 0 0 0 0 0 0 0 9 16 75 7 38 5 2 0 0 0 0 0 0 0 0 0 0
3 5 0 0 0 0 0 0 0 0 0 0 0 0 0 0 0 0 0 0 0 0 0 0 0 0 0 0 0 4 6 0 3 1 3 0 3 0 0 0 0 0 0 0 0 0 0
3 5 0 0 0 0 0 0 0 0 0 0 0 0 0 0 0 0 0 0 0 0 0 0 0 0 0 0 0 0 0 1 0 3 0 0 0 0 0 0 0 0 0 0 0 0 0
5 2 0 0 0 0 0 0 0 0 0 0 0 0 0 0 0 0 0 0 0 0 0 0 0 0 0 0 0 0 0 5 0 0 14 0 2 14 0 0 0 0 0 0 0 0 0
3 4 0 0 0 0 0 0 0 0 0 0 0 0 0 0 0 0 0 0 0 0 0 0 0 0 0 0 0 0 0 0 65 0 1 0 16 7 0 0 0 0 0 0 0 0 0
7 2 0 0 0 0 0 0 0 0 0 0 0 0 0 0 0 0 0 0 0 0 0 0 0 0 0 0 0 0 0 1 7 15 4 0 22 42 0 0 0 0 0 0 0 0 0
23 16 3 2 0 0 0 0 0 0 0 0 0 0 0 0 0 0 0 0 0 0 0 0 0 0 0 0 0 0 0 0 0 0 0 12 21 0 0 0 0 0 0 0 0 0 0
8 12 12 7 0 0 0 0 0 0 0 0 0 0 0 0 0 0 0 0 0 0 0 0 0 0 0 0 0 0 0 0 0 0 0 21 2 0 0 0 0 0 0 0 0 0 0

GFSGBSN_con_mucape_087.txt.gz
CAPE
0 0 0 1 4 10 13 0 0 13 0 12 26 29 15 17 33 9 5 6 4 2 12 124 160 108 90 53 11 0 8 6 28 48 154 242 81 54 7 37 122 105 53 71 92 72 54
0 0 0 0 1 5 10 5 0 0 9 12 23 21 17 4 18 17 13 13 2 0 0 107 129 79 72 37 11 11 7 12 20 100 144 164 79 57 28 26 72 105 83 74 89 82 74
0 0 0 0 0 2 6 9 13 0 0 0 11 17 18 0 2 15 11 11 0 0 0 21 112 13 64 37 28 15 2 0 5 110 134 118 78 17 26 54 66 84 76 92 41 72 76
0 0 0 0 0 0 2 5 6 13 2 0 0 14 16 0 0 7 6 1 0 0 0 0 7 10 19 10 42 39 25 15 77 79 49 58 71 110 101 91 76 50 71 75 62 90 73
3 4 1 0 0 0 0 2 5 6 20 0 0 0 0 0 0 4 4 0 0 0 0 0 2 3 22 36 11 7 6 35 57 84 97 66 64 45 103 95 94 74 27 61 62 68 71
19 17 7 0 0 0 0 1 2 6 19 2 0 0 0 0 0 0 0 0 0 0 0 0 1 1 11 12 3 4 0 38 41 72 1 0 57 55 66 74 0 12 1 43 9 62 50
25 22 4 0 0 0 0 0 1 3 8 0 0 0 0 0 0 0 0 0 0 6 0 2 14 6 13 22 11 5 0 48 48 53 0 0 24 6 2 36 41 0 42 39 39 31 31
36 10 0 0 0 0 0 0 0 1 4 11 0 0 0 0 0 0 0 0 0 0 0 2 1 0 0 2 0 4 13 0 0 0 0 0 62 15 23 43 37 67 56 59 26 27 0
22 8 0 0 0 0 0 0 0 1 0 0 0 0 0 0 0 0 0 0 0 0 6 0 0 0 0 0 0 0 14 1 0 0 0 0 16 8 24 30 38 31 43 44 26 0 7
29 10 0 0 0 0 0 0 0 0 0 0 0 0 0 0 0 0 0 0 0 0 0 0 0 4 3 0 7 11 18 19 0 0 0 0 0 0 21 0 8 0 21 7 0 17 30
48 8 9 1 0 0 0 0 0 0 0 0 0 0 0 0 0 0 0 0 0 0 0 0 3 1 0 3 0 20 27 31 0 0 0 0 0 0 0 1 1 4 26 23 27 28 31
36 16 1 0 0 0 0 0 0 0 1 0 0 0 0 0 0 0 0 0 0 0 0 0 3 4 1 0 0 0 12 11 6 0 0 0 4 11 27 42 24 22 14 34 36 50 0
41 30 4 0 0 0 0 0 0 0 0 0 0 0 0 0 0 0 0 0 0 0 0 0 0 0 0 0 0 0 0 0 22 25 0 0 0 28 10 28 34 27 7 0 0 0 0
10 41 4 0 0 0 0 0 0 0 0 0 0 0 0 0 0 0 0 0 0 0 0 0 0 0 0 0 0 0 0 0 5 7 33 0 6 18 4 28 0 0 6 0 0 0 0
2 3 9 0 0 0 0 0 0 0 0 1 0 1 6 0 0 0 0 0 0 0 0 0 0 0 0 6 0 0 0 0 0 7 49 65 100 0 0 21 38 5 88 43 0 0 0
14 19 32 0 0 0 0 0 0 0 0 0 0 1 5 0 0 3 0 0 0 0 0 0 0 1 0 7 0 6 0 0 0 0 15 18 9 0 0 0 8 35 14 0 33 0 0
6 25 37 0 0 0 0 0 0 0 0 0 0 0 5 0 2 0 0 0 0 0 0 0 0 0 0 5 25 0 6 2 0 0 0 0 5 4 0 0 0 0 0 0 2 0 0
9 16 21 1 0 0 0 0 0 0 0 0 0 0 5 0 0 0 0 0 0 0 0 0 0 0 0 6 13 15 1 32 2 12 0 0 0 91 0 0 0 0 0 0 0 0 0
4 30 30 4 0 0 0 0 0 0 0 0 0 0 0 1 0 0 0 0 0 0 0 0 0 0 0 0 0 16 48 45 39 68 19 0 0 0 2 0 0 0 33 28 2 11 0
19 21 10 35 14 0 0 0 0 0 0 0 0 0 0 0 0 0 0 0 0 0 0 0 0 1 0 0 26 0 19 51 36 41 78 39 0 0 0 3 0 0 0 0 35 33 0
11 30 7 33 34 0 0 0 0 0 0 0 0 0 0 0 0 0 0 0 0 0 0 0 0 0 0 0 0 0 0 48 61 78 51 1 0 0 9 0 0 0 0 0 0 0 0
5 27 14 23 28 0 0 0 0 0 0 0 0 0 0 0 0 0 0 0 0 0 0 0 0 0 0 0 0 0 0 0 33 52 14 7 0 0 0 0 0 0 0 0 0 0 0
10 20 14 28 0 0 0 0 0 0 0 0 0 0 0 0 0 0 0 0 0 0 0 0 0 0 0 0 0 0 0 9 1 4 9 0 9 0 32 0 0 0 0 0 0 0 0
15 13 20 22 0 0 0 0 0 0 0 0 0 0 0 0 0 0 0 0 0 0 0 0 0 0 0 0 0 0 0 0 0 0 0 0 1 17 0 0 0 0 0 0 0 0 0
10 18 17 8 0 0 0 0 0 0 0 0 0 0 0 0 0 0 0 0 0 0 0 0 0 0 0 0 0 0 0 0 0 0 0 0 0 71 57 0 0 0 0 0 0 0 0
4 23 15 7 0 0 0 0 0 0 0 0 0 0 0 0 0 0 0 0 0 0 0 0 0 0 0 0 0 0 0 0 0 0 0 0 0 0 54 43 0 0 0 0 0 0 0
20 5 15 4 0 0 0 0 0 0 0 0 0 0 0 0 0 0 0 0 0 0 0 0 0 0 0 0 0 0 0 0 0 24 0 0 8 0 69 31 0 0 0 0 0 1 0
3 19 18 0 0 0 0 0 0 0 0 0 0 0 0 0 0 0 0 0 0 0 0 0 0 0 0 0 0 0 0 0 0 0 26 35 34 66 58 23 0 0 0 0 1 0 0
1 4 6 2 0 0 0 0 0 0 0 0 0 0 0 0 0 0 0 0 0 0 0 0 0 0 0 0 0 0 0 0 0 0 0 2 13 19 57 21 0 0 0 0 0 0 0

GFSGBSN_con_mucape_090.txt.gz
CAPE
15 13 0 0 2 5 3 2 6 12 0 0 15 25 25 19 6 27 17 19 4 4 0 27 173 157 90 23 5 1 1 0 0 5 25 156 62 74 23 16 1 10 6 84 91 61 38
18 20 7 0 0 2 5 3 2 5 11 0 0 17 21 23 0 10 21 12 8 0 0 0 109 134 99 1 10 7 0 6 1 25 96 156 67 58 40 80 21 2 43 15 70 95 34
12 8 11 0 2 0 3 2 3 3 8 13 0 0 11 21 0 4 13 9 3 0 0 0 58 30 0 0 12 8 0 4 9 59 131 155 82 112 33 21 97 28 2 0 40 57 68
8 15 8 7 2 0 1 2 2 2 4 11 11 0 0 15 0 0 6 4 0 0 0 12 38 12 1 0 4 2 0 4 45 96 81 37 20 34 34 18 26 57 52 0 1 55 69
13 12 18 5 2 0 0 1 3 2 3 10 9 0 0 0 0 0 0 1 0 0 0 0 0 8 0 6 3 0 3 25 64 43 6 2 13 1 43 11 0 1 0 0 0 29 58
23 18 4 9 4 0 0 0 2 3 2 4 3 0 0 0 0 0 0 0 0 0 0 0 5 0 0 0 0 2 0 28 44 0 0 0 0 0 0 31 1 0 0 0 0 55 36
73 45 18 19 20 0 0 0 1 2 2 6 4 0 0 0 0 0 0 0 0 0 0 0 0 0 0 0 4 0 5 35 6 0 0 0 0 1 0 2 7 7 6 0 2 86 33
82 60 17 31 15 3 0 0 1 1 3 2 0 0 0 0 0 0 0 0 0 0 0 0 0 0 0 0 0 0 2 0 0 0 0 0 3 1 9 0 11 6 0 0 18 54 43
83 18 23 5 19 2 0 0 1 0 3 1 0 0 0 0 0 0 0 0 0 0 0 0 0 0 0 0 4 1 0 0 0 0 0 0 15 10 16 0 13 25 0 15 21 3 0
69 84 25 20 14 17 0 0 0 0 3 0 0 0 0 0 0 0 0 0 0 0 0 0 0 0 0 0 0 0 0 2 0 0 0 0 0 0 19 16 0 5 28 7 19 0 0
50 61 8 35 30 21 0 0 0 0 3 2 0 0 0 0 0 0 0 0 0 0 0 0 0 0 0 0 0 1 0 0 0 0 0 0 0 0 24 0 3 2 23 8 8 0 0
67 60 4 28 29 23 0 0 0 0 2 2 0 0 0 0 4 0 0 0 0 0 0 0 0 4 0 0 0 0 1 3 7 0 0 0 0 3 6 28 12 50 28 23 0 0 0
31 69 6 45 26 35 0 0 0 0 1 0 0 0 0 1 0 0 0 0 0 0 0 0 0 1 0 0 0 0 0 0 0 0 0 0 0 0 2 9 17 35 0 0 0 0 0
63 21 41 7 22 17 0 0 0 0 0 0 0 0 0 0 0 0 0 0 0 0 0 0 0 0 0 0 0 0 0 0 0 0 0 0 0 0 0 7 0 0 0 0 0 0 0
26 18 32 3 92 34 0 0 0 0 0 0 0 1 2 0 0 0 0 0 0 0 0 0 0 0 0 1 0 0 0 0 0 0 25 0 0 0 0 2 3 0 0 8 0 0 0
16 48 10 2 13 26 0 0 0 0 0 0 0 1 1 0 0 0 0 0 0 0 0 0 0 0 0 0 0 4 0 0 0 0 34 25 2 0 1 2 5 23 1 0 0 0 0
12 42 12 1 27 26 1 0 0 0 0 0 0 1 0 2 3 0 0 0 0 0 0 0 0 0 0 0 0 0 0 4 7 7 24 31 5 5 0 2 2 1 25 14 1 0 0
15 11 11 7 69 62 18 0 0 0 1 1 0 0 1 4 0 0 0 0 0 0 0 0 0 0 0 0 0 0 0 15 66 44 3 2 0 0 0 0 0 3 0 1 0 0 0
23 4 23 15 58 35 14 0 0 0 5 0 0 0 0 0 0 0 0 0 0 0 0 0 0 0 0 0 0 0 0 81 66 56 5 1 0 0 53 3 0 0 0 0 0 0 0
3 2 3 11 30 50 26 0 0 0 0 0 0 0 0 0 0 0 0 0 0 0 0 0 0 0 0 0 0 0 0 34 51 45 172 8 1 0 1 0 0 0 0 0 0 0 0
0 4 5 20 17 47 26 0 0 0 0 0 0 0 0 0 0 0 0 0 0 0 0 0 0 0 0 0 0 0 0 0 0 2 33 20 12 0 0 0 0 0 0 0 0 0 0
0 1 3 31 32 28 35 0 1 0 3 0 0 0 0 0 0 0 0 0 0 0 0 0 0 0 0 0 0 0 0 0 0 0 0 2 0 0 0 7 0 0 0 0 0 0 0
3 0 10 23 47 61 45 0 0 0 0 0 0 0 0 0 0 0 0 0 0 0 0 0 0 0 0 0 0 0 0 0 0 0 0 3 0 0 0 0 0 2 0 0 0 0 0
0 0 2 1 12 26 25 0 0 1 0 0 0 0 0 0 0 0 0 0 0 0 0 0 0 0 0 0 0 0 0 0 0 0 0 0 0 0 0 0 0 0 0 0 0 0 0
0 2 7 29 4 10 3 0 0 0 0 0 0 0 0 0 0 0 0 0 0 0 0 0 0 0 0 0 0 0 0 0 0 0 0 0 0 0 0 0 0 0 0 0 0 0 0
0 0 0 2 49 16 5 0 0 0 0 0 0 0 0 0 0 0 0 0 0 0 0 0 0 0 0 0 0 0 0 0 0 0 0 0 0 0 9 3 3 0 0 0 0 0 0
1 4 1 4 3 10 1 0 0 0 0 0 0 0 0 0 0 0 0 0 0 0 0 0 0 0 0 0 0 0 0 0 0 0 0 0 0 0 2 1 2 0 0 0 0 1 0
0 0 0 1 4 2 0 0 0 0 0 0 0 0 0 0 0 0 0 0 0 0 0 0 0 0 0 0 0 0 0 0 0 0 0 0 0 0 0 9 0 0 0 0 3 1 0
0 0 1 0 3 8 0 0 0 0 0 0 0 0 0 0 0 0 0 0 0 0 0 0 0 0 0 0 0 0 0 0 0 0 0 0 3 16 42 2 0 0 2 0 0 0 1

GFSGBSN_con_mucape_093.txt.gz
CAPE
0 9 9 8 9 1 1 1 5 5 9 5 8 2 11 14 15 5 15 16 20 4 0 0 43 157 61 1 0 1 6 0 0 0 1 13 6 38 38 2 7 3 25 52 14 56 44
52 0 7 10 14 15 1 0 2 4 8 11 10 8 0 8 0 1 0 2 12 2 0 0 44 103 18 0 8 2 11 4 3 0 20 0 16 38 26 15 6 0 31 46 13 23 72
118 55 1 13 15 12 1 0 0 3 4 8 14 10 6 7 0 0 0 4 5 0 0 0 46 28 0 0 2 2 3 8 16 37 66 71 46 33 23 25 32 2 0 26 20 19 24
167 123 6 7 17 17 0 0 0 2 4 6 13 10 6 0 0 0 0 0 2 0 0 0 20 8 0 0 0 9 7 4 28 35 34 13 4 16 43 39 47 54 0 0 7 1 24
184 145 113 7 33 6 4 5 0 1 2 2 8 6 0 0 0 0 0 0 0 0 0 3 0 0 0 0 0 8 6 32 6 1 11 18 12 29 39 26 25 1 0 0 0 0 12
185 155 104 61 13 6 6 2 0 1 1 1 8 7 0 0 0 0 0 0 0 0 0 0 0 0 0 0 0 4 11 1 0 0 0 0 0 0 26 3 0 0 0 0 0 0 0
10 94 130 76 6 9 24 12 0 0 0 0 5 2 0 0 0 0 0 0 0 0 0 0 0 0 0 0 0 0 1 2 0 0 0 0 0 0 0 6 0 16 0 0 0 0 0
24 16 79 79 8 26 14 28 0 0 0 0 3 0 0 0 0 0 0 0 0 0 0 0 0 0 0 0 0 0 0 0 0 0 0 0 0 0 0 1 0 0 0 0 44 122 31
0 14 19 51 3 14 13 46 13 0 0 0 0 0 0 0 0 0 0 0 0 0 0 0 0 0 0 0 0 0 0 0 0 0 0 0 0 0 0 4 0 0 0 0 0 26 15
0 1 1 14 37 13 39 50 9 0 0 0 0 0 0 0 0 0 0 0 0 0 0 0 0 0 0 0 0 0 0 0 0 0 0 0 0 0 0 4 7 21 45 28 7 4 0
2 0 11 18 30 32 33 45 15 0 0 0 0 0 0 0 0 0 0 0 0 0 0 0 0 0 0 0 0 0 0 0 0 0 0 0 0 0 0 6 25 17 9 20 22 14 0
25 0 0 5 16 27 32 66 32 21 0 0 0 0 0 0 0 0 0 0 0 0 0 0 0 0 0 0 0 0 0 0 0 0 0 0 0 0 0 3 6 22 11 12 8 24 0
33 38 0 13 7 3 9 32 69 16 0 0 0 0 0 0 0 0 0 0 0 0 0 0 0 0 0 0 0 0 0 0 0 0 0 0 0 0 0 1 16 29 0 0 0 0 0
72 67 0 0 5 8 2 24 72 39 0 0 0 0 0 0 0 0 0 0 0 0 0 0 0 0 0 0 0 0 0 0 0 0 0 0 0 0 0 5 0 15 25 0 0 0 0
77 124 4 4 2 11 0 3 52 0 1 0 0 0 0 0 0 0 0 0 0 0 0 0 0 0 0 0 0 0 0 0 0 0 1 0 0 0 0 4 3 0 0 3 0 0 0
111 156 6 5 4 5 3 6 22 0 0 1 0 0 0 0 0 0 0 0 0 0 0 0 0 0 0 0 0 0 0 0 0 1 7 16 0 0 0 10 5 4 0 0 0 0 0
177 109 5 3 0 2 4 6 33 0 0 0 0 0 0 0 0 0 0 0 0 0 0 0 0 0 0 0 0 0 0 1 33 29 1 32 19 6 21 4 0 3 8 17 0 0 0
101 129 0 8 0 4 2 13 36 0 1 1 0 0 0 0 0 0 0 0 0 0 0 0 0 0 0 0 0 0 0 0 71 33 0 3 16 7 70 5 17 3 1 2 0 0 0
96 72 9 4 44 4 2 5 6 0 2 0 0 0 7 0 0 0 0 0 0 0 0 0 0 0 0 0 0 0 0 23 41 30 24 2 7 8 5 0 11 7 0 0 0 0 0
83 65 5 29 0 4 7 27 16 1 0 0 0 0 0 0 0 0 0 0 0 0 0 0 0 0 0 0 0 0 0 0 0 0 72 17 0 0 1 0 0 0 0 0 0 10 0
1 17 8 0 0 3 3 38 44 0 0 0 0 0 0 0 0 0 0 0 0 0 0 0 0 0 0 0 0 0 0 0 0 0 26 17 0 0 0 0 3 0 0 1 1 0 0
83 1 1 4 0 0 10 19 40 0 0 0 0 0 0 0 0 0 0 0 0 0 0 0 0 0 0 0 0 0 0 0 0 0 0 5 0 0 0 0 0 0 0 0 0 1 0
51 0 0 0 1 10 30 8 20 0 0 0 0 0 0 0 0 0 0 0 0 0 0 0 0 0 0 0 0 0 0 0 0 0 0 0 0 0 13 0 0 0 0 0 0 0 0
2 3 0 0 0 1 6 57 4 0 0 0 0 0 0 0 0 0 0 0 0 0 0 0 0 0 0 0 0 0 0 0 0 0 0 0 0 0 0 0 2 0 0 0 0 0 0
2 0 0 0 1 1 2 29 21 0 0 0 0 0 0 0 0 0 0 0 0 0 0 0 0 0 0 0 0 0 0 0 0 0 0 0 0 0 0 2 0 0 0 0 0 0 0
0 0 19 0 1 1 3 69 40 0 0 0 0 0 0 0 0 0 0 0 0 0 0 0 0 0 0 0 0 0 0 0 0 0 0 0 0 0 0 0 0 0 0 0 0 0 0
0 0 1 1 0 2 8 6 49 0 0 0 0 0 0 0 0 0 0 0 0 0 0 0 0 0 0 0 0 0 0 0 0 0 0 0 0 0 0 0 0 1 1 0 0 0 1
0 1 2 0 1 0 3 43 0 0 0 0 0 0 0 0 0 0 0 0 0 0 0 0 0 0 0 0 0 0 0 0 0 0 0 0 0 0 0 0 0 0 1 0 0 0 0
0 3 2 0 1 1 0 0 0 0 0 0 0 0 0 0 0 0 0 0 0 0 0 0 0 0 0 0 0 0 0 0 0 0 0 0 1 0 27 1 3 0 0 0 4 0 1

GFSGBSN_con_mucape_096.txt.gz
CAPE
121 115 76 4 12 19 12 2 0 0 1 3 8 7 6 9 18 4 0 3 3 16 7 0 9 54 12 0 1 8 9 0 0 1 0 9 22 53 47 21 0 24 12 43 70 33 19
220 156 117 91 11 1 9 15 1 0 1 2 4 12 6 8 16 0 0 2 3 8 2 0 10 30 0 0 5 17 10 8 11 8 0 0 18 26 24 61 0 1 4 40 35 24 33
75 243 190 125 21 5 14 3 11 0 0 2 2 7 5 7 0 0 0 0 0 2 0 0 0 0 0 0 6 12 8 6 17 16 0 0 19 20 20 14 3 2 1 11 111 3 14
0 6 87 225 136 10 23 4 16 3 0 2 3 2 1 0 0 0 0 0 0 0 0 0 0 0 0 0 10 19 23 17 15 21 16 7 13 37 33 19 0 0 1 0 34 12 9
0 0 1 35 155 142 5 26 11 7 1 0 3 0 0 0 0 0 0 0 0 0 0 0 0 0 0 0 7 12 6 6 7 1 0 0 4 20 33 39 5 0 0 0 0 0 1
0 0 0 1 39 148 34 4 9 10 8 0 2 0 0 0 0 0 0 0 0 0 0 0 0 0 0 0 8 4 0 0 2 0 4 0 0 11 38 10 0 0 0 0 0 0 0
0 0 0 2 26 56 66 8 31 10 12 0 1 0 0 0 0 0 0 0 0 0 0 0 0 0 0 0 0 7 0 0 0 0 0 0 0 5 11 17 13 5 0 0 0 0 0
3 0 0 0 19 50 12 17 11 16 27 3 0 0 0 0 0 0 0 0 0 0 0 0 0 0 0 0 0 0 0 0 0 0 0 0 0 0 0 0 2 7 0 0 0 9 0
13 5 2 0 0 43 35 12 54 26 34 18 0 0 0 0 0 0 0 0 0 0 0 0 0 0 0 0 0 0 0 0 0 0 0 0 0 0 0 0 0 0 0 0 0 14 0
20 23 5 9 0 0 4 12 10 13 46 11 0 0 0 0 0 0 0 0 0 0 0 0 0 0 0 0 0 0 0 0 0 0 0 0 0 0 0 5 3 0 5 0 4 0 0
0 0 0 5 20 30 1 6 4 14 40 11 0 0 0 0 0 0 0 0 0 0 0 0 0 0 0 0 0 0 0 0 0 0 0 0 0 0 0 1 1 0 10 3 5 0 0
2 0 0 0 15 46 16 3 3 7 24 10 0 0 0 0 0 0 0 0 0 0 0 0 0 0 0 0 0 0 0 0 0 0 0 0 0 0 0 5 11 6 21 17 25 9 0
10 6 9 0 7 38 16 16 7 6 11 36 0 0 0 0 0 0 0 0 0 0 0 0 0 0 0 0 0 0 0 0 0 0 0 0 0 0 0 4 23 20 27 6 0 0 0
23 9 8 22 3 15 15 13 3 3 18 41 0 1 0 0 0 0 0 0 0 0 0 0 0 0 0 0 0 0 0 0 0 0 0 0 0 0 0 0 0 3 0 4 0 0 0
28 29 29 16 12 14 24 9 1 20 13 39 1 0 0 0 0 0 0 0 0 0 0 0 0 0 0 0 0 0 0 0 0 0 0 0 0 0 0 1 6 11 9 1 0 0 0
100 76 97 15 19 25 27 2 6 2 8 0 0 0 0 0 0 0 0 0 0 0 0 0 0 0 0 0 0 0 0 0 0 4 10 2 0 0 0 16 21 5 2 0 0 0 0
148 114 113 53 119 124 59 2 25 1 11 0 0 0 0 0 0 0 0 0 0 0 0 0 0 0 0 0 0 0 0 1 37 22 30 8 12 2 33 21 4 11 0 5 0 0 0
146 130 97 95 166 119 35 1 6 1 2 7 0 0 2 0 0 0 0 0 0 0 0 0 0 0 0 0 0 0 0 0 59 61 3 21 81 11 1 21 19 27 12 6 0 0 0
185 133 112 99 139 96 9 0 0 4 11 1 0 0 1 0 0 0 0 0 0 0 0 0 0 0 0 0 0 0 0 0 11 19 39 53 0 0 1 13 18 15 9 10 3 0 0
166 134 114 74 73 37 2 6 0 24 9 0 0 0 0 0 0 0 0 0 0 0 0 0 0 0 0 0 0 0 0 0 0 2 48 46 0 0 1 1 2 0 7 5 20 0 0
92 102 26 8 71 0 0 53 0 18 15 0 0 0 0 0 0 0 0 0 0 0 0 0 0 0 0 0 0 0 0 0 0 0 2 36 0 0 0 0 0 16 0 2 7 0 0
67 1 0 83 16 7 50 44 0 0 5 0 0 0 0 0 0 0 0 0 0 0 0 0 0 0 0 0 0 0 0 0 0 0 0 0 0 0 0 0 0 0 0 0 0 0 0
39 13 81 12 0 0 5 10 0 0 1 0 0 0 0 0 0 0 0 0 0 0 0 0 0 0 0 0 0 0 0 0 0 0 0 0 0 0 0 0 6 0 0 0 0 0 0
44 64 60 20 0 6 10 2 0 16 0 0 0 0 0 0 0 0 0 0 0 0 0 0 0 0 0 0 0 0 0 0 0 0 0 0 0 0 0 4 0 0 0 0 0 0 0
47 63 21 0 0 4 0 0 0 22 0 0 0 0 0 0 0 0 0 0 0 0 0 0 0 0 0 0 0 0 0 0 0 0 0 0 0 0 0 0 0 0 0 0 0 0 0
24 34 0 0 0 8 20 1 1 0 2 0 0 0 0 0 0 0 0 0 0 0 0 0 0 0 0 0 0 0 0 0 0 0 0 0 0 0 0 0 0 0 0 0 0 1 0
25 0 0 0 0 3 0 0 0 1 0 0 0 0 0 0 0 0 0 0 0 0 0 0 0 0 0 0 0 0 0 0 0 0 0 0 0 0 0 0 0 0 0 0 0 0 0
27 0 0 0 3 0 0 0 1 1 0 0 0 0 0 0 0 0 0 0 0 0 0 0 0 0 0 0 0 0 0 0 0 0 0 0 0 0 0 0 0 0 0 0 0 0 0
38 19 0 1 5 0 0 0 0 1 0 0 0 0 0 0 0 0 0 0 0 0 0 0 0 0 0 0 0 0 0 0 0 0 0 0 0 0 1 0 0 0 0 0 0 2 5

GFSGBSN_con_mucape_099.txt.gz
CAPE
45 69 86 117 136 77 34 20 19 5 11 1 2 11 11 1 3 12 1 10 10 7 6 5 13 18 0 0 0 15 10 1 15 17 0 36 64 20 19 16 0 17 9 28 56 61 33
0 3 57 51 90 157 43 32 14 20 6 7 0 12 13 1 1 1 0 8 5 2 3 4 9 0 0 0 7 14 2 1 10 0 0 6 33 24 11 0 0 4 2 4 43 31 26
0 0 0 0 4 3 122 28 38 20 16 13 0 11 12 1 2 0 0 5 2 0 0 1 1 0 0 0 11 33 19 6 3 1 1 4 29 16 29 0 0 0 0 0 37 33 10
2 2 0 0 0 0 5 58 53 25 7 4 5 4 6 3 1 0 0 1 0 0 0 0 0 0 0 0 8 15 7 6 4 20 2 1 33 28 44 26 75 4 7 13 38 31 16
7 0 0 0 0 0 12 9 105 67 16 8 7 0 7 6 1 0 0 0 0 0 0 0 0 0 0 0 0 1 1 2 3 0 0 9 24 21 19 42 0 0 2 1 36 82 43
31 19 15 12 0 0 0 5 21 26 38 6 5 0 3 0 2 0 0 0 0 0 0 0 0 0 0 0 0 0 0 0 0 0 0 6 25 11 11 0 2 0 0 0 12 36 6
21 28 23 5 13 16 14 0 13 10 22 11 8 1 0 0 0 0 0 0 0 0 0 0 0 0 0 0 0 0 0 0 0 0 0 0 6 26 17 0 0 0 0 0 0 4 3
21 26 25 24 8 19 23 12 0 19 4 77 9 8 0 0 0 0 0 0 0 0 0 0 0 0 0 0 0 0 0 0 0 0 0 0 0 3 5 0 0 0 0 0 0 0 0
21 22 22 18 26 10 17 38 14 4 11 5 31 44 0 0 0 0 0 0 0 0 0 0 0 0 0 0 0 0 0 0 0 0 0 0 0 0 2 2 0 0 0 0 0 0 0
33 31 24 25 23 0 10 24 12 31 11 15 17 2 0 0 0 0 0 0 0 0 0 0 0 0 0 0 0 0 0 0 0 0 0 0 0 0 0 0 3 0 0 0 0 0 0
28 34 38 24 27 2 0 22 8 34 9 5 23 12 0 3 0 0 0 0 0 0 0 0 0 0 0 0 0 0 0 0 0 0 0 0 0 0 0 0 14 0 3 0 16 35 0
20 28 30 33 21 26 14 15 2 5 6 1 25 6 0 1 0 0 0 0 0 0 0 0 0 0 0 0 0 0 0 0 0 0 0 0 0 0 0 0 3 11 19 10 4 30 0
70 67 71 35 31 24 23 14 5 18 9 2 9 19 0 0 0 0 0 0 0 0 0 0 0 0 0 0 0 0 0 0 0 0 0 0 0 0 0 0 0 8 28 0 0 0 0
108 67 69 69 33 24 23 16 1 18 7 13 14 4 0 0 0 0 0 0 0 0 0 0 0 0 0 0 0 0 0 0 0 0 0 0 0 0 0 0 0 3 20 0 0 0 0
102 87 93 83 46 31 31 14 5 15 9 4 1 1 0 0 0 0 0 0 0 0 0 0 0 0 0 0 0 0 0 0 0 0 0 0 0 0 0 0 3 4 5 3 6 0 0
127 119 93 71 51 31 33 16 11 25 3 6 0 0 0 0 0 0 0 0 0 0 0 0 0 0 0 0 0 0 0 0 0 1 8 0 0 0 0 16 8 1 4 6 3 0 0
142 116 51 97 101 123 28 11 12 7 44 0 0 1 6 0 0 0 0 0 0 0 0 0 0 0 0 0 0 0 0 0 0 0 24 13 0 0 24 17 4 30 10 7 4 0 0
144 131 72 124 141 189 21 32 28 2 0 1 0 0 7 0 0 0 0 0 0 0 0 0 0 0 0 0 0 0 0 0 33 43 0 36 0 0 0 29 33 42 32 16 4 0 0
149 164 83 93 149 106 67 27 33 12 67 0 0 0 10 0 0 0 0 0 0 0 0 0 0 0 0 0 0 0 0 0 0 0 0 17 0 0 0 42 31 89 11 23 5 0 0
180 197 160 128 146 152 77 73 41 0 52 0 0 0 0 0 0 0 0 0 0 0 0 0 0 0 0 0 0 0 0 0 0 0 17 15 0 0 0 0 0 8 9 21 19 12 0
131 142 94 103 84 31 12 26 0 6 10 4 0 0 0 0 0 1 0 0 0 0 0 0 0 0 0 0 0 0 0 0 0 0 0 0 0 0 0 0 0 0 0 18 63 3 0
43 70 47 0 0 9 82 0 0 27 8 0 0 0 0 0 0 0 0 0 0 0 0 0 0 0 0 0 0 0 0 0 0 0 0 0 0 0 0 0 0 0 0 6 0 0 0
31 40 49 94 58 35 0 0 1 0 0 0 0 0 0 0 0 0 0 0 0 0 0 0 0 0 0 0 0 0 0 0 0 0 0 0 0 0 0 0 0 0 0 0 0 0 0
21 28 36 72 50 0 0 3 3 3 0 0 0 0 0 0 0 0 0 0 0 0 0 0 0 0 0 0 0 0 0 0 0 0 0 0 0 0 0 0 0 0 0 0 0 0 0
28 32 44 51 0 1 11 16 2 0 0 0 0 0 2 0 0 0 0 0 0 0 0 0 0 0 0 0 0 0 0 0 0 0 0 0 0 0 0 0 0 0 0 0 0 0 0
30 15 53 47 0 2 2 7 0 0 0 8 0 0 0 0 0 0 0 0 0 0 0 0 0 0 0 0 0 0 0 0 0 0 0 0 0 0 0 0 0 0 0 0 0 0 0
31 17 31 0 0 0 1 22 0 0 0 4 0 0 0 0 0 0 0 0 0 0 0 0 0 0 0 0 0 0 0 0 0 0 0 0 0 0 0 0 0 0 0 0 0 0 0
43 11 10 0 0 0 0 3 5 0 3 0 0 0 0 0 0 0 0 0 0 0 0 0 0 0 0 0 0 0 0 0 0 0 0 0 0 0 0 0 0 0 0 0 0 0 0
47 8 13 24 0 0 0 0 0 0 0 0 0 0 0 1 4 0 0 0 0 0 0 0 0 0 0 0 0 0 0 0 0 0 0 0 0 0 0 0 0 0 0 0 0 0 0

GFSGBSN_con_mucape_102.txt.gz
CAPE
9 1 0 1 22 0 62 16 48 17 37 35 21 15 0 11 10 10 13 9 5 7 11 3 18 26 0 0 0 8 2 0 5 9 7 15 61 36 4 1 0 0 0 14 6 60 51
6 17 25 17 0 0 0 0 35 72 35 36 33 3 1 2 6 10 9 9 4 2 3 0 19 16 0 0 1 14 24 0 0 4 10 15 27 35 0 0 0 0 0 1 12 23 19
14 11 10 18 19 29 0 0 4 35 64 35 57 14 12 0 5 7 7 7 2 0 0 0 11 1 0 0 0 12 9 11 13 0 0 12 16 43 0 0 0 0 18 17 34 20 22
19 21 14 16 18 17 24 15 4 10 20 43 77 25 5 0 8 6 5 6 1 0 0 0 4 0 0 0 1 4 11 8 15 7 0 16 62 55 26 0 13 3 0 10 34 37 4
17 18 19 22 18 20 25 21 60 3 38 67 15 7 8 1 5 3 5 2 0 0 0 0 0 0 0 0 0 0 4 5 15 17 19 34 30 10 23 7 0 0 0 2 1 18 17
24 22 26 19 22 23 17 17 34 16 12 32 23 17 25 6 0 0 6 0 0 0 0 0 0 0 0 0 0 0 0 0 11 7 10 9 26 21 7 0 0 0 0 6 4 25 45
53 45 32 30 25 21 27 20 20 38 35 6 13 1 9 24 0 0 1 0 0 0 0 0 0 0 0 0 0 0 0 0 0 1 0 1 0 0 2 0 0 0 0 0 0 2 0
29 31 33 23 34 35 22 15 15 12 28 6 32 45 15 16 0 4 0 0 0 0 0 0 0 0 0 0 0 0 0 0 0 0 0 0 0 0 9 0 0 0 0 0 15 0 0
28 41 34 19 30 23 25 28 12 7 6 32 14 5 4 2 0 1 0 0 0 0 0 0 0 0 0 0 0 0 0 0 0 0 0 0 0 1 0 4 0 0 0 0 0 0 0
58 49 32 31 36 29 21 23 13 7 9 13 7 16 4 0 0 0 0 0 0 0 0 0 0 0 0 0 0 0 0 0 0 0 0 0 0 0 0 0 0 0 0 0 0 0 0
73 69 62 57 57 33 34 31 19 7 8 0 6 6 13 23 0 0 0 0 0 0 0 0 0 0 0 0 0 0 0 0 0 0 0 0 0 0 0 0 0 0 0 0 8 0 0
71 89 78 68 69 66 55 37 18 7 13 13 13 5 7 0 0 0 0 0 0 0 0 0 0 0 0 0 0 0 0 0 0 0 0 0 0 0 0 0 0 0 6 0 25 0 2
70 72 80 83 88 72 81 57 11 6 23 16 20 7 12 0 0 0 0 0 0 0 0 0 0 0 0 0 0 0 0 0 0 0 0 0 0 0 0 0 9 9 35 0 0 0 1
81 65 66 73 87 94 85 71 10 1 27 35 22 8 6 0 2 0 0 0 0 0 0 0 0 0 0 0 0 0 0 0 0 0 0 0 0 0 0 0 7 15 18 0 0 0 0
82 92 87 73 95 114 84 78 6 8 37 14 10 3 1 0 3 0 2 0 0 0 0 0 0 0 0 0 0 0 0 0 0 0 0 0 0 0 0 0 4 9 10 4 0 0 0
71 84 92 80 84 117 121 68 1 2 40 79 3 7 4 1 8 0 0 0 0 0 0 0 0 0 0 0 0 0 0 0 0 0 0 0 0 0 0 5 23 19 4 5 10 0 0
101 99 103 124 138 127 76 54 5 7 19 63 5 3 1 2 6 0 0 0 0 0 0 0 0 0 0 0 0 0 0 0 0 0 15 0 0 0 17 12 24 53 81 21 3 0 0
88 136 138 175 2 0 77 37 1 10 30 32 0 4 0 0 0 0 0 0 0 0 0 0 0 0 0 0 0 0 0 0 4 0 0 6 0 0 0 6 54 49 41 36 25 0 0
149 105 167 113 5 38 75 9 17 16 53 14 0 2 0 0 0 0 0 0 0 0 0 0 0 0 0 0 0 0 0 0 0 0 0 0 0 0 0 0 38 97 25 6 28 0 0
89 59 104 86 89 109 82 84 46 43 48 3 1 0 0 0 0 0 0 0 0 0 0 0 0 0 0 0 0 0 0 0 0 0 0 0 0 0 0 0 0 0 0 4 13 16 7
73 22 51 46 56 59 76 107 49 41 54 36 0 0 0 0 0 0 0 0 0 0 0 0 0 0 0 0 0 0 0 0 0 0 0 0 0 0 0 0 0 0 0 0 15 2 4
79 18 21 31 1 1 3 55 39 45 75 36 0 0 0 0 0 0 0 0 0 0 0 0 0 0 0 0 0 0 0 0 0 0 0 0 0 0 0 0 0 0 0 0 0 0 0
59 44 26 13 46 94 5 30 47 74 105 2 0 0 1 0 0 0 0 0 0 0 0 0 0 0 0 0 0 0 0 0 0 0 0 0 0 0 0 0 0 0 0 0 1 1 0
39 40 30 7 50 56 19 0 0 53 30 1 0 0 0 0 0 0 0 0 0 0 0 0 0 0 0 0 0 0 0 0 0 0 0 0 0 0 0 0 0 0 1 0 0 0 0
37 29 38 7 44 31 26 7 0 8 0 4 0 0 0 0 0 0 0 0 0 0 0 0 0 0 0 0 0 0 0 0 0 0 0 0 0 0 0 0 0 1 0 0 0 0 0
0 23 40 10 23 56 0 8 2 1 0 0 0 0 0 0 0 0 0 0 0 0 0 0 0 0 0 0 0 0 0 0 0 0 0 0 0 0 0 0 0 0 0 0 0 0 2
0 34 21 24 0 0 0 1 4 2 2 0 0 0 0 0 0 0 0 0 0 0 0 0 0 0 0 0 0 0 0 0 0 0 0 0 0 0 0 0 0 0 0 1 0 0 4
0 44 19 35 0 0 0 0 0 0 0 0 0 0 0 0 0 0 0 0 0 0 0 0 0 0 0 0 0 0 0 0 0 0 0 0 0 0 0 0 0 0 0 0 0 0 0
0 45 25 39 13 0 0 0 0 0 3 0 0 0 0 0 0 5 0 0 0 0 0 0 0 0 0 0 0 0 0 0 0 0 0 0 0 0 0 0 0 0 0 0 0 0 0

GFSGBSN_con_mucape_105.txt.gz
CAPE
20 9 15 13 13 13 8 2 1 3 15 1 6 27 21 29 31 0 8 8 13 15 8 4 0 23 0 0 0 0 0 5 6 26 26 37 56 68 39 2 0 0 0 12 21 14 58
30 28 21 21 17 18 19 9 4 6 9 10 37 12 6 15 2 0 3 8 9 18 4 1 0 10 0 0 0 0 2 2 33 3 16 19 18 42 12 1 0 0 7 10 58 25 40
28 31 15 19 28 22 16 17 16 27 9 7 6 20 23 10 12 2 1 3 7 13 1 1 0 0 0 0 0 0 0 5 20 1 7 22 19 57 0 0 0 0 5 23 67 7 26
46 39 26 19 14 17 20 15 26 14 24 0 16 25 10 12 27 1 0 1 2 5 1 0 0 0 0 0 0 0 0 8 6 15 6 30 39 10 11 0 17 0 0 8 1 10 11
60 47 45 40 21 22 27 15 12 12 11 2 1 0 10 9 13 17 1 0 0 0 0 0 0 0 0 0 0 0 1 0 0 0 3 21 15 20 18 26 0 0 0 2 5 0 4
67 68 66 69 63 61 45 21 18 6 8 6 3 1 8 7 4 25 0 0 0 0 0 0 0 0 0 0 0 0 0 2 2 7 9 21 39 7 6 5 0 0 0 0 0 0 20
71 60 51 37 53 58 55 51 24 7 4 5 19 21 3 0 13 6 9 0 0 0 0 0 0 0 0 0 0 0 0 0 1 2 0 2 0 0 0 0 0 0 0 0 0 0 5
72 82 73 55 38 51 33 46 28 14 7 8 5 20 27 0 4 13 0 0 0 0 0 0 0 0 0 0 0 0 0 0 0 0 0 0 0 0 0 0 0 0 0 0 0 0 12
55 48 59 63 71 64 63 33 45 11 5 11 8 9 6 6 0 0 10 0 0 0 0 0 0 0 0 0 0 0 0 0 0 0 0 0 0 0 0 0 0 0 0 0 0 0 0
38 42 41 56 75 88 90 83 52 0 0 14 7 28 6 12 0 0 0 0 0 0 0 0 0 0 0 0 0 0 0 0 0 0 0 0 0 0 0 0 0 0 0 0 0 0 0
26 34 34 41 55 83 105 99 101 20 5 16 13 2 17 0 7 0 0 0 0 0 0 0 0 0 0 0 0 0 0 0 0 0 0 0 0 0 0 0 0 0 0 4 0 0 1
22 20 29 44 68 66 95 106 111 47 19 16 14 13 16 2 17 1 0 0 0 0 0 0 0 0 0 0 0 0 0 0 0 0 0 0 0 0 0 0 1 0 2 20 23 0 1
37 43 42 50 67 68 75 91 112 81 23 23 0 2 27 20 10 1 0 0 0 0 0 0 0 0 0 0 0 0 0 0 0 0 0 0 0 0 0 0 11 15 20 0 0 0 0
47 45 50 60 77 83 83 96 111 91 10 12 6 17 9 6 14 4 0 0 0 0 0 0 0 0 0 0 0 0 0 0 0 0 0 0 0 0 0 13 28 27 8 0 0 0 0
43 53 73 78 89 93 105 96 113 86 28 2 2 12 9 12 13 0 0 0 0 0 0 0 0 0 0 0 0 0 0 0 0 0 0 0 0 0 0 30 20 4 15 4 1 0 0
46 55 98 109 128 153 138 143 113 63 16 19 0 17 22 0 0 0 0 0 0 0 0 0 0 0 0 0 0 0 0 0 0 0 0 0 0 0 10 10 26 29 6 51 14 0 0
38 49 85 106 107 60 87 155 101 7 2 47 0 0 0 2 0 1 0 0 0 0 0 0 0 0 0 0 0 0 0 0 0 0 0 0 0 0 0 0 0 88 81 15 1 1 0
51 69 75 70 43 0 77 49 58 0 0 31 25 0 0 1 0 0 0 0 0 0 0 0 0 0 0 0 0 0 0 0 0 0 0 0 0 0 0 1 31 23 11 19 28 0 1
42 65 83 65 39 12 31 53 32 9 9 30 0 0 0 0 0 0 0 0 0 0 0 0 0 0 0 0 0 0 0 0 0 0 0 0 0 0 0 0 1 0 0 0 0 0 0
44 47 84 64 41 31 39 39 29 42 49 18 0 0 0 0 0 0 0 0 0 0 0 0 0 0 0 0 0 0 0 0 0 0 0 0 0 0 0 0 0 0 0 2 0 0 0
52 39 79 55 53 21 0 0 8 34 37 32 0 6 0 0 0 0 0 0 0 0 0 0 0 0 0 0 0 0 0 0 0 0 0 0 0 0 0 0 0 0 0 0 0 0 1
42 49 66 70 20 44 61 58 29 34 61 4 9 1 0 0 0 0 0 0 0 0 0 0 0 0 0 0 0 0 0 0 0 0 0 0 0 0 0 0 0 0 0 0 0 0 0
29 36 55 70 13 34 88 40 0 74 33 0 0 1 0 0 0 0 0 0 0 0 0 0 0 0 0 0 0 0 0 0 0 0 0 0 0 0 0 0 0 0 0 0 0 0 0
21 0 55 50 57 85 50 61 12 7 37 0 0 0 0 0 0 0 0 0 0 0 0 0 0 0 0 0 0 0 0 0 0 0 0 0 0 0 0 0 0 0 0 0 0 0 0
18 0 0 24 26 34 30 28 0 0 16 0 1 0 0 0 0 0 0 0 0 0 0 0 0 0 0 0 0 0 0 0 0 0 0 0 0 0 0 0 0 0 0 0 0 0 0
16 0 0 27 28 53 11 8 0 0 6 2 0 2 0 0 0 0 0 0 0 0 0 0 0 0 0 0 0 0 0 0 0 0 0 0 0 0 0 0 0 0 0 0 0 0 3
5 0 0 30 22 6 0 4 3 0 8 0 0 0 0 0 0 0 0 0 0 0 0 0 0 0 0 0 0 0 0 0 0 0 0 0 0 0 0 0 0 0 0 0 0 0 2
0 0 0 21 8 0 0 2 1 0 0 0 0 0 0 0 0 0 0 0 0 0 0 0 0 0 0 0 0 0 0 0 0 0 0 0 0 0 0 0 0 0 0 0 0 0 0
0 0 0 32 0 0 0 3 1 1 1 0 0 1 0 0 0 0 0 0 0 0 0 0 0 0 0 0 0 0 0 0 0 0 0 0 0 0 0 0 0 0 0 0 0 0 0

GFSGBSN_con_mucape_108.txt.gz
CAPE
0 27 31 28 27 20 24 20 17 14 13 24 0 23 39 8 8 7 1 1 0 6 3 0 13 8 0 0 0 0 0 1 10 4 23 70 77 47 71 126 168 142 59 34 10 0 1
0 30 52 44 34 27 22 18 18 17 15 15 10 0 19 16 13 10 4 0 0 9 1 0 13 3 0 0 0 0 0 13 22 0 1 28 42 117 50 43 135 36 1 20 1 0 0
0 0 26 59 42 28 16 21 15 13 14 14 6 2 2 11 2 6 2 26 2 11 6 0 8 4 0 0 0 0 0 2 7 14 7 20 37 44 18 16 8 4 7 31 10 54 34
0 0 0 54 57 47 41 22 25 20 14 12 11 3 3 5 0 3 0 9 1 2 1 0 5 0 0 0 0 0 0 0 10 22 20 29 20 18 44 8 9 4 0 0 30 39 2
21 60 53 52 51 59 60 54 18 10 14 16 12 14 26 7 2 0 3 9 4 0 0 0 0 0 0 0 0 0 0 0 3 0 4 9 20 30 13 23 11 2 0 1 17 4 0
59 71 82 68 50 43 47 42 45 3 6 13 13 7 3 2 2 2 1 5 5 0 0 0 0 0 0 0 0 0 0 2 3 7 15 7 17 1 8 16 0 0 0 0 0 0 0
50 47 46 48 60 74 65 65 47 10 0 6 11 3 0 5 9 5 14 15 2 0 0 0 0 0 0 0 0 0 0 0 0 2 0 2 22 0 0 0 0 0 0 0 0 0 0
59 48 53 46 53 61 77 75 72 22 12 3 3 0 20 14 7 10 10 10 1 0 0 0 0 0 0 0 0 0 0 0 0 0 0 0 0 0 0 0 0 0 0 0 0 0 0
51 44 46 65 57 49 59 69 76 78 34 17 5 0 17 19 6 20 15 10 0 0 0 0 0 0 0 0 0 0 0 0 0 0 0 0 0 0 0 0 0 0 0 0 0 0 0
51 35 23 27 28 51 60 60 85 102 75 74 11 0 4 3 6 20 14 0 0 0 0 0 0 0 0 0 0 0 0 0 0 0 0 0 0 0 0 0 0 0 0 0 0 0 0
0 36 45 54 53 45 50 63 81 92 125 134 28 0 0 26 9 16 1 0 0 0 0 0 0 0 0 0 0 0 0 0 0 0 0 0 0 0 0 0 0 0 0 0 12 0 0
0 32 35 40 54 68 69 85 103 117 109 124 39 1 23 46 7 6 6 0 0 0 0 0 0 0 0 0 0 0 0 0 0 0 0 0 0 0 0 0 1 1 32 45 34 0 2
32 37 41 56 58 96 91 116 124 117 159 104 24 11 42 33 0 21 0 0 0 0 0 0 0 0 0 0 0 0 0 0 0 0 0 0 0 0 0 0 27 44 56 0 0 0 0
30 43 57 55 122 135 104 146 162 150 106 90 26 21 66 13 0 0 1 0 0 0 0 0 0 0 0 0 0 0 0 0 0 0 0 0 0 0 1 23 13 50 45 0 0 0 0
35 56 57 73 103 44 4 60 185 155 56 24 41 8 34 6 1 0 0 0 0 0 0 0 0 0 0 0 0 0 0 0 0 0 0 0 0 0 0 17 41 45 71 20 2 0 0
36 57 74 90 65 23 29 46 78 67 7 24 61 18 11 11 10 2 0 0 0 0 0 0 0 0 0 0 0 0 0 0 0 0 0 0 0 0 1 27 36 59 19 134 172 0 0
35 56 45 97 58 29 31 65 47 5 0 36 56 1 0 0 2 2 0 0 0 0 0 0 0 0 0 0 0 0 0 0 0 0 0 0 0 0 0 0 0 19 40 32 20 34 0
36 53 52 80 66 35 37 23 45 0 4 50 45 0 0 0 0 0 0 0 0 0 0 0 0 0 0 0 0 0 0 0 0 0 0 0 0 0 0 0 23 31 11 3 53 0 0
37 52 62 72 57 21 11 30 44 26 16 42 3 0 0 0 0 0 0 0 0 0 0 0 0 0 0 0 0 0 0 0 0 0 0 0 0 0 0 0 0 0 0 0 0 0 16
25 48 53 54 90 43 30 0 11 31 24 22 0 0 0 0 0 0 0 0 0 0 0 0 0 0 0 0 0 0 0 0 0 0 0 0 0 0 0 0 0 0 0 0 0 1 0
22 48 50 54 72 81 48 43 13 0 1 18 0 0 0 0 0 0 0 0 0 0 0 0 0 0 0 0 0 0 0 0 0 0 0 0 0 0 0 0 0 0 0 0 0 0 0
10 38 31 55 62 58 54 67 29 1 3 2 0 7 0 0 0 0 0 0 0 0 0 0 0 0 0 0 0 0 0 0 0 0 0 0 0 0 0 0 0 0 0 0 0 0 0
0 38 27 43 36 45 48 46 10 50 47 0 0 4 0 0 0 0 0 0 0 0 0 0 0 0 0 0 0 0 0 0 0 0 0 0 0 0 0 0 0 0 0 0 0 0 0
0 27 26 4 22 8 55 37 26 16 31 34 0 0 0 0 0 0 0 0 0 0 0 0 0 0 0 0 0 0 0 0 0 0 0 0 0 0 0 0 0 0 0 0 0 0 0
0 15 23 0 34 11 0 7 6 0 0 6 0 0 0 0 0 0 0 0 0 0 0 0 0 0 0 0 0 0 0 0 0 0 0 0 0 0 0 0 0 0 0 0 0 0 0
0 2 14 0 30 27 0 0 0 0 0 0 0 0 0 0 0 0 0 0 0 0 0 0 0 0 0 0 0 0 0 0 0 0 0 0 0 0 0 0 0 0 0 0 0 0 0
0 0 0 0 26 8 0 0 4 0 1 1 0 0 0 0 0 0 0 0 0 0 0 0 0 0 0 0 0 0 0 0 0 0 0 0 0 0 0 0 0 0 0 0 0 0 0
0 0 0 0 0 5 0 0 0 0 5 0 0 0 0 0 0 0 0 0 0 0 0 0 0 0 0 0 0 0 0 0 0 0 0 0 0 0 0 0 0 0 0 0 0 0 0
0 0 0 0 0 4 0 0 0 0 0 0 0 0 0 0 0 0 0 0 0 0 0 0 0 0 0 0 0 0 0 0 0 0 0 0 0 0 0 0 0 0 0 0 0 0 0

GFSGBSN_con_mucape_111.txt.gz
CAPE
0 0 0 0 0 0 16 17 23 12 22 24 17 16 4 0 46 48 8 4 4 8 3 8 6 1 0 0 0 0 0 0 0 1 33 31 42 43 65 52 68 65 70 105 94 31 7
0 0 0 0 0 28 0 6 22 29 23 22 21 18 18 2 32 75 18 2 5 9 0 7 1 3 11 0 0 0 0 0 0 0 12 32 75 70 116 47 54 52 65 87 43 0 21
0 0 41 42 0 0 37 19 0 1 8 23 23 16 16 41 42 32 7 3 7 6 1 6 4 4 0 0 0 0 0 0 0 8 2 8 42 45 61 11 4 37 55 82 33 0 0
0 50 50 60 59 49 40 42 12 8 1 12 23 17 7 8 20 7 8 11 18 22 0 5 3 6 0 0 0 0 0 0 2 4 12 13 50 55 83 30 21 34 49 0 25 17 14
0 4 20 31 41 55 70 62 53 27 37 6 15 17 6 2 0 5 5 8 26 13 0 2 2 0 0 0 0 0 0 0 3 1 5 0 3 66 37 9 19 18 0 0 2 0 4
0 0 0 35 53 55 57 71 81 85 63 61 20 14 3 19 12 3 13 13 13 3 0 0 0 0 0 0 0 0 0 0 0 2 6 2 2 29 8 1 0 0 0 0 0 0 1
0 0 0 46 39 49 57 64 74 92 118 95 67 14 1 15 66 21 15 15 1 2 0 0 0 0 0 0 0 0 0 0 0 0 0 7 0 0 0 0 26 0 0 0 0 0 0
0 0 0 40 56 58 58 53 70 90 106 110 101 23 0 6 38 12 31 35 16 7 0 0 0 0 0 0 0 0 0 0 0 0 18 0 0 24 7 0 0 0 0 0 0 0 0
0 0 0 56 72 65 71 66 82 99 117 113 114 53 0 9 6 9 24 23 15 6 0 0 0 0 0 0 0 0 0 0 0 0 0 0 1 0 0 0 0 0 0 0 0 0 0
0 0 0 51 60 61 68 73 81 101 100 129 122 81 8 0 19 4 8 2 6 0 0 0 0 0 0 0 0 0 0 0 0 0 0 0 3 0 0 0 12 0 0 0 0 0 0
0 0 1 49 51 49 74 82 95 118 211 238 123 110 22 0 10 8 12 0 0 0 0 0 0 0 0 0 0 0 0 0 0 0 0 0 0 0 0 0 5 2 7 22 18 0 0
0 0 44 46 66 109 93 69 85 145 186 196 132 91 18 11 45 9 1 0 0 0 0 0 0 0 0 0 0 0 0 0 0 0 0 0 0 0 0 0 0 18 42 33 36 0 0
0 0 38 62 73 114 102 15 53 70 168 124 61 45 1 5 19 9 7 0 0 0 0 0 0 0 0 0 0 0 0 0 0 0 0 0 0 0 0 0 29 41 50 0 0 0 0
0 0 36 48 72 66 12 85 75 70 100 34 5 13 0 17 40 17 7 0 0 0 0 0 0 0 0 0 0 0 0 0 0 0 0 0 0 0 0 0 0 45 58 0 0 0 0
0 0 39 61 70 71 34 73 45 58 41 0 47 18 66 59 1 0 1 0 0 0 0 0 0 0 0 0 0 0 0 0 0 0 0 0 0 0 0 13 37 40 99 58 47 10 0
1 0 31 56 70 69 40 47 48 20 35 36 48 5 27 4 0 0 0 0 0 0 0 0 0 0 0 0 0 0 0 0 0 0 0 0 0 0 0 5 37 34 17 72 82 0 0
2 0 18 56 61 57 26 37 49 17 0 3 74 6 3 1 1 0 0 0 0 0 0 0 0 0 0 0 0 0 0 0 0 0 0 0 0 0 0 0 0 9 9 14 0 10 11
0 0 9 44 57 46 27 34 17 27 0 47 83 1 0 0 0 0 0 0 0 0 0 0 0 0 0 0 0 0 0 0 0 0 0 0 0 0 0 0 13 28 0 0 0 0 7
1 0 3 30 66 61 36 30 8 29 11 26 0 0 0 0 0 0 0 0 0 0 0 0 0 0 0 0 0 0 0 0 0 0 0 0 0 0 0 0 0 0 0 0 0 0 43
0 0 0 17 56 71 33 25 37 5 3 28 0 0 0 0 0 0 0 0 0 0 0 0 0 0 0 0 0 0 0 0 0 0 0 0 0 0 0 0 0 0 0 0 0 0 0
0 0 0 8 32 59 31 0 11 0 0 17 0 0 0 0 0 0 0 0 0 0 0 0 0 0 0 0 0 0 0 0 0 0 0 0 0 0 0 0 0 0 0 0 0 0 0
1 0 0 2 28 48 31 6 16 1 0 0 0 0 0 0 0 0 0 0 0 0 0 0 0 0 0 0 0 0 0 0 0 0 0 0 0 0 0 0 0 0 0 0 0 0 0
0 0 0 0 16 21 35 22 0 8 15 0 0 0 0 0 0 0 0 0 0 0 0 0 0 0 0 0 0 0 0 0 0 0 0 0 0 0 0 0 0 0 0 0 0 0 0
1 0 0 0 0 0 0 0 2 19 14 0 0 0 0 0 0 0 0 0 0 0 0 0 0 0 0 0 0 0 0 0 0 0 0 0 0 0 0 0 0 0 0 0 0 0 0
0 0 0 0 0 0 0 0 0 0 4 0 0 0 0 0 0 0 0 0 0 0 0 0 0 0 0 0 0 0 0 0 0 0 0 0 0 0 0 0 0 0 0 0 0 0 0
0 0 0 0 0 17 0 0 0 0 0 0 0 0 0 0 0 0 0 0 0 0 0 0 0 0 0 0 0 0 0 0 0 0 0 0 0 0 0 0 0 0 0 0 0 0 0
0 0 0 0 0 0 0 0 0 0 1 0 0 0 0 0 0 0 0 0 0 0 0 0 0 0 0 0 0 0 0 0 0 0 0 0 0 0 0 0 0 0 0 0 0 0 0
0 0 0 0 0 0 0 0 0 0 0 0 0 0 0 0 0 0 0 0 0 0 0 0 0 0 0 0 0 0 0 0 0 0 0 0 0 0 0 0 0 0 0 0 0 0 0
0 0 0 0 0 0 0 0 0 0 0 0 0 3 0 0 0 0 0 0 0 0 0 0 0 0 0 0 0 0 0 0 0 0 0 0 0 0 0 0 0 0 0 0 0 0 0

GFSGBSN_con_mucape_114.txt.gz
CAPE
0 0 0 0 22 0 18 12 6 11 19 24 28 17 22 16 36 34 57 26 27 6 6 0 1 2 0 0 0 0 0 0 0 0 0 34 38 23 20 28 59 24 1 15 21 20 48
0 0 0 56 65 61 52 38 24 26 10 22 24 24 19 8 7 3 24 10 20 18 17 0 0 2 0 0 0 0 0 0 0 0 1 16 23 23 11 46 55 49 43 26 32 12 5
0 0 0 0 34 38 44 50 54 40 59 40 34 19 15 10 2 8 48 35 11 25 17 0 3 4 0 0 0 0 0 0 0 0 0 23 23 7 13 21 19 32 41 42 34 27 0
0 0 0 0 0 39 51 63 60 72 87 87 64 23 9 8 3 5 16 75 12 20 25 1 4 11 0 0 0 0 0 0 0 1 6 14 16 0 2 33 15 4 13 0 4 1 0
0 0 0 0 0 9 30 35 41 60 77 100 102 64 16 2 4 34 25 37 17 46 29 4 0 0 0 0 0 0 0 0 0 0 9 3 0 10 27 21 0 0 0 0 0 0 0
0 0 0 0 0 45 52 58 58 62 78 77 109 105 58 0 8 75 45 41 22 24 3 0 0 0 0 0 0 0 0 0 0 1 10 3 2 18 6 0 3 0 0 0 0 0 0
0 0 0 0 0 55 62 58 65 80 79 91 117 120 92 1 12 67 24 3 1 0 0 0 0 0 0 0 0 0 0 0 0 0 0 18 0 0 2 0 0 0 0 0 0 0 0
0 0 0 0 59 62 69 70 85 94 99 117 138 139 95 13 7 29 10 6 7 0 0 2 0 0 0 0 0 0 0 0 10 0 25 0 0 8 8 9 0 0 0 0 0 1 0
0 0 0 0 61 61 68 92 92 109 118 125 138 143 127 40 0 27 9 15 21 8 1 0 0 0 0 0 0 0 0 0 0 0 0 0 0 22 6 0 0 0 0 0 0 5 0
0 0 0 0 47 60 81 72 46 42 95 153 206 210 107 28 0 7 19 2 7 1 2 0 0 0 0 0 0 0 0 0 0 0 0 0 1 0 0 0 7 0 0 0 0 0 0
0 0 0 0 45 58 73 46 85 122 156 149 168 95 62 27 0 4 8 8 3 11 0 0 0 0 0 0 0 0 0 0 0 0 0 0 0 0 0 0 4 0 0 0 0 0 0
0 8 0 0 45 64 77 88 125 123 133 102 56 42 42 9 19 2 1 25 1 0 0 0 0 0 0 0 0 0 0 0 0 0 0 0 0 0 0 0 0 0 1 0 8 17 0
35 9 2 0 41 76 85 84 125 115 83 46 34 13 9 15 28 11 4 0 0 0 0 0 0 0 0 0 0 0 0 0 0 0 0 0 0 0 0 0 1 18 16 0 0 0 0
33 2 1 15 56 78 60 67 115 88 52 68 45 28 15 0 15 1 1 0 0 0 0 0 0 0 0 0 0 0 0 0 0 0 0 0 0 0 0 0 0 0 19 0 0 0 0
1 3 1 13 59 82 54 28 69 109 121 116 102 20 57 47 26 0 0 0 0 0 0 0 0 0 0 0 0 0 0 0 0 0 0 0 0 0 0 0 10 6 20 0 0 2 0
3 0 0 15 58 84 46 33 35 26 75 75 18 17 4 7 0 0 0 0 0 0 0 0 0 0 0 0 0 0 0 0 0 0 0 0 0 0 0 1 25 21 7 0 0 0 0
3 2 0 13 41 61 41 29 18 15 4 36 67 0 0 0 0 0 0 0 0 0 0 0 0 0 0 0 0 0 0 0 0 0 0 0 0 0 0 0 0 0 0 0 0 0 0
8 7 0 9 26 39 28 14 13 9 0 0 39 0 0 0 0 0 0 0 0 0 0 0 0 0 0 0 0 0 0 0 0 0 0 0 0 0 0 0 0 0 0 0 0 0 0
3 2 5 4 17 18 3 14 6 0 0 0 0 0 0 0 0 0 0 0 0 0 0 0 0 0 0 0 0 0 0 0 0 0 0 0 0 0 0 0 0 0 0 0 0 0 0
2 2 0 1 14 24 0 16 0 0 0 0 0 0 0 0 0 0 0 0 0 0 0 0 0 0 0 0 0 0 0 0 0 0 0 0 0 0 0 0 0 0 0 0 0 0 0
2 0 0 0 2 7 3 10 0 0 0 0 0 0 0 0 0 0 0 0 0 0 0 0 0 0 0 0 0 0 0 0 0 0 0 0 0 0 0 0 0 0 0 0 0 0 0
0 0 0 0 0 0 2 7 0 0 4 0 0 0 0 0 0 0 0 0 0 0 0 0 0 0 0 0 0 0 0 0 0 0 0 0 0 0 0 0 0 0 0 0 0 0 0
1 0 0 0 0 0 2 15 0 1 22 0 0 0 0 0 0 0 0 0 0 0 0 0 0 0 0 0 0 0 0 0 0 0 0 0 0 0 0 0 0 0 0 0 0 0 0
0 0 0 0 0 0 0 4 0 0 5 0 0 0 0 0 0 0 0 0 0 0 0 0 0 0 0 0 0 0 0 0 0 0 0 0 0 0 0 0 0 0 0 0 0 0 0
0 0 0 0 0 0 0 0 0 0 0 0 0 0 0 0 0 0 0 0 0 0 0 0 0 0 0 0 0 0 0 0 0 0 0 0 0 0 0 0 0 0 0 0 0 0 0
0 0 0 0 0 0 0 0 0 0 0 0 0 0 0 0 0 0 0 0 0 0 0 0 0 0 0 0 0 0 0 0 0 0 0 0 0 0 0 0 0 0 0 0 0 0 0
0 0 0 0 0 0 0 0 0 0 0 0 0 0 0 0 0 0 0 0 0 0 0 0 0 0 0 0 0 0 0 0 0 0 0 0 0 0 0 0 0 0 0 0 0 0 0
1 0 0 0 0 0 0 0 0 0 0 0 0 0 0 0 0 0 0 0 0 0 0 0 0 0 0 0 0 0 0 0 0 0 0 0 0 0 0 0 0 0 0 0 0 0 0
0 0 0 0 0 0 0 0 0 0 0 0 1 1 13 0 0 0 0 0 0 0 0 0 0 0 0 0 0 0 0 0 0 0 0 0 0 0 0 0 0 0 0 0 0 0 0

GFSGBSN_con_mucape_117.txt.gz
CAPE
0 0 0 0 57 43 35 43 49 68 66 61 50 33 22 11 6 2 3 7 26 22 5 13 1 0 0 0 0 0 0 0 0 0 0 9 32 32 13 1 7 0 0 0 0 1 0
0 0 0 0 56 46 44 57 66 58 67 75 75 54 31 12 6 0 3 4 18 10 3 14 3 0 0 0 0 0 0 0 0 0 0 20 29 28 14 2 6 0 4 0 0 0 8
0 0 0 0 57 46 46 46 36 40 44 63 63 82 46 25 9 1 6 8 60 18 7 17 0 0 0 0 0 0 0 0 0 0 0 23 12 7 18 0 0 0 0 0 0 0 5
0 83 0 0 0 3 58 58 64 65 64 59 68 77 103 49 18 0 24 41 30 17 23 9 7 3 0 0 0 0 0 0 0 1 10 3 5 8 3 2 0 0 0 1 0 16 14
0 0 0 23 0 14 50 43 68 68 73 88 93 92 101 87 23 7 77 74 29 32 25 0 0 0 0 0 0 0 0 0 1 4 0 0 0 0 23 12 0 0 0 0 0 1 6
0 0 41 14 0 9 48 65 78 89 104 115 107 105 98 85 14 9 70 56 51 18 4 6 0 0 0 0 0 0 0 0 0 7 0 0 3 0 3 0 0 0 0 0 0 0 0
0 0 0 55 0 40 59 83 105 100 80 110 138 164 137 93 36 30 19 8 3 1 11 0 0 0 0 0 0 0 0 0 0 0 0 0 0 0 0 0 0 0 0 0 0 0 0
12 55 63 25 0 58 83 114 82 85 147 167 155 221 201 72 95 0 25 4 1 0 0 2 2 0 0 0 0 0 0 0 1 0 0 0 0 0 16 5 0 0 0 0 0 0 1
56 57 60 1 0 94 114 123 130 208 243 231 221 269 152 39 74 12 47 30 20 0 1 1 2 0 0 0 0 0 0 0 0 0 0 0 0 14 4 0 0 0 0 0 0 0 0
62 52 63 0 43 96 130 126 179 243 256 161 125 150 76 62 6 15 19 16 5 1 0 0 0 0 0 0 0 0 0 0 0 0 0 0 3 0 0 0 8 0 7 0 0 0 0
62 51 29 0 56 104 110 145 176 165 81 68 68 63 39 36 2 9 54 22 1 0 0 0 0 0 0 0 0 0 0 0 0 0 0 0 0 0 0 0 6 0 4 0 0 0 0
74 0 0 0 61 85 125 53 139 157 123 148 57 34 41 37 20 2 17 0 0 0 0 0 0 0 0 0 0 0 0 0 0 0 0 0 0 0 0 0 10 7 0 0 0 4 0
92 10 2 0 52 55 112 27 90 87 77 141 74 50 4 4 31 0 4 0 0 0 0 0 0 0 0 0 0 0 0 0 0 0 0 0 0 0 0 0 9 8 2 0 0 0 0
45 8 5 3 32 38 17 13 16 23 15 97 99 21 38 7 0 0 0 0 0 0 0 0 0 0 0 0 0 0 0 0 0 0 0 0 0 0 0 0 2 7 0 0 0 0 0
0 15 19 12 15 16 7 16 18 17 0 49 46 13 15 23 1 0 0 0 0 0 0 0 0 0 0 0 0 0 0 0 0 0 0 0 0 0 0 18 11 0 0 0 9 0 0
0 23 19 14 11 5 11 15 14 8 0 1 0 0 0 0 0 1 0 0 0 0 0 0 0 0 0 0 0 0 0 0 0 0 0 0 0 0 0 0 0 0 0 0 0 0 0
0 6 10 4 5 6 5 11 8 0 0 2 0 0 0 0 0 0 0 0 0 0 0 0 0 0 0 0 0 0 0 0 0 0 0 0 0 0 0 0 0 0 0 0 0 0 0
0 0 10 0 2 5 3 2 0 0 0 0 0 0 0 0 0 0 0 0 0 0 0 0 0 0 0 0 0 0 0 0 0 0 0 0 0 0 0 0 0 0 0 0 0 0 0
0 3 0 0 0 1 1 0 0 0 0 0 0 0 0 0 0 0 0 0 0 0 0 0 0 0 0 0 0 0 0 0 0 0 0 0 0 0 0 0 0 0 0 0 0 0 0
0 1 0 0 0 5 0 0 0 0 0 0 0 0 0 0 0 0 0 0 0 0 0 0 0 0 0 0 0 0 0 0 0 0 0 0 0 0 0 0 0 0 0 0 0 0 0
0 0 0 0 0 0 0 0 0 0 0 0 0 0 0 0 0 0 0 0 0 0 0 0 0 0 0 0 0 0 0 0 0 0 0 0 0 0 0 0 0 0 0 0 0 0 0
0 0 0 0 0 0 0 0 0 0 0 0 0 0 0 0 0 0 0 0 0 0 0 0 0 0 0 0 0 0 0 0 0 0 0 0 0 0 0 0 0 0 0 0 0 0 0
0 0 0 0 0 0 0 0 0 0 0 0 0 0 0 0 0 0 0 0 0 0 0 0 0 0 0 0 0 0 0 0 0 0 0 0 0 0 0 0 0 0 0 0 0 0 0
3 0 0 0 0 0 0 0 0 0 0 0 0 0 0 0 0 0 0 0 0 0 0 0 0 0 0 0 0 0 0 0 0 0 0 0 0 0 0 0 0 0 0 0 0 0 0
4 0 0 0 0 0 0 0 0 0 0 0 0 0 0 0 0 0 0 0 0 0 0 0 0 0 0 0 0 0 0 0 0 0 0 0 0 0 0 0 0 0 0 0 0 0 0
0 0 0 0 0 0 0 0 0 0 0 0 0 0 0 0 0 0 0 0 0 0 0 0 0 0 0 0 0 0 0 0 0 0 0 0 0 0 0 0 0 0 0 0 0 0 0
0 1 0 0 0 0 0 0 0 0 0 0 0 0 0 0 0 0 0 0 0 0 0 0 0 0 0 0 0 0 0 0 0 0 0 0 0 0 0 0 0 0 0 0 0 0 0
0 1 0 0 0 0 0 0 0 0 0 0 0 0 0 0 0 0 0 0 0 0 0 0 0 0 0 0 0 0 0 0 0 0 0 0 0 0 0 0 0 0 0 0 0 0 0
0 0 1 0 0 0 0 0 0 0 0 0 0 1 0 0 0 0 0 0 0 0 0 0 0 0 0 0 0 0 0 0 0 0 0 0 0 0 0 0 0 0 0 0 0 0 0